[[{"header":{"parameterUnit":"m.s-1","parameterCategory":1,"la1":30.6,"la2":29.2853,"lo1":-89.7004,"lo2":-87.6739,"dy":0.0162,"dx":0.0183,"nx":112,"ny":82,"refTime":"2023-08-20T18:00:00:Z","depth":0,"parameterNumber":2,"parameterNumberName":"U-component_of_WINDS"},"data":[0.0,0.0,0.0,0.0,0.0,0.0,0.0,0.0,0.0,0.0,0.0,0.0,0.0,0.0,0.0,0.0,0.0,0.0,0.0,0.0,0.0,0.0,0.0,0.0,0.0,0.0,0.0,0.0,0.0,0.0,0.0,0.0,0.0,0.0,0.0,0.0,0.0,0.0,0.0,0.0,0.0,0.0,0.0,0.0,0.0,0.0,0.0,0.0,0.0,0.0,0.0,0.0,0.0,0.0,0.0,0.0,0.0,0.0,0.0,0.0,0.0,0.0,0.0,0.0,0.0,0.0,0.0,0.0,0.0,0.0,0.0,0.0,0.0,0.0,0.0,0.0,0.0,0.0,0.0,0.0,0.0,0.0,0.0,0.0,0.0,0.0,0.0,0.0,0.0,0.0,1.8505,1.8505,1.8522,1.8542,1.8598,1.8617,1.8638,1.8697,0.0,0.0,0.0,0.0,0.0,0.0,0.0,0.0,0.0,0.0,0.0,0.0,0.0,0.0,0.0,0.0,0.0,0.0,0.0,0.0,0.0,0.0,0.0,0.0,0.0,0.0,0.0,0.0,0.0,0.0,0.0,0.0,0.0,0.0,0.0,0.0,0.0,0.0,0.0,0.0,0.0,0.0,0.0,0.0,0.0,0.0,0.0,0.0,0.0,0.0,0.0,0.0,0.0,0.0,0.0,0.0,0.0,0.0,0.0,0.0,0.0,0.0,0.0,0.0,0.0,0.0,0.0,0.0,0.0,0.0,0.0,0.0,0.0,0.0,0.0,0.0,0.0,0.0,0.0,0.0,0.0,0.0,0.0,0.0,0.0,0.0,0.0,0.0,0.0,0.0,0.0,0.0,0.0,0.0,0.0,0.0,0.0,0.0,0.0,0.0,0.0,0.0,0.0,0.0,1.8522,1.8579,1.8579,1.8581,1.8603,1.8641,1.8678,1.8697,0.0,0.0,0.0,0.0,0.0,0.0,0.0,0.0,0.0,0.0,0.0,0.0,0.0,0.0,0.0,0.0,0.0,0.0,0.0,0.0,0.0,0.0,0.0,0.0,0.0,0.0,0.0,0.0,0.0,0.0,0.0,0.0,0.0,0.0,0.0,0.0,0.0,0.0,0.0,0.0,0.0,0.0,0.0,0.0,0.0,0.0,0.0,0.0,0.0,0.0,0.0,0.0,0.0,0.0,0.0,0.0,0.0,0.0,0.0,0.0,0.0,0.0,0.0,0.0,0.0,0.0,0.0,0.0,0.0,0.0,0.0,0.0,0.0,0.0,0.0,0.0,0.0,0.0,0.0,0.0,0.0,0.0,0.0,0.0,0.0,0.0,0.0,0.0,0.0,0.0,0.0,0.0,0.0,0.0,0.0,0.0,0.0,0.0,0.0,0.0,0.0,0.0,0.0,1.8542,1.8561,1.86,1.8601,1.862,1.8659,1.8697,1.8715,1.8752,1.8752,0.0,0.0,0.0,0.0,0.0,0.0,0.0,0.0,0.0,0.0,0.0,0.0,0.0,0.0,0.0,0.0,0.0,0.0,0.0,0.0,0.0,0.0,0.0,0.0,0.0,0.0,0.0,0.0,0.0,0.0,0.0,0.0,0.0,0.0,0.0,0.0,0.0,0.0,0.0,0.0,0.0,0.0,0.0,0.0,0.0,0.0,0.0,0.0,0.0,0.0,0.0,0.0,0.0,0.0,0.0,0.0,0.0,0.0,0.0,0.0,0.0,0.0,0.0,0.0,0.0,0.0,0.0,0.0,0.0,0.0,0.0,0.0,0.0,0.0,0.0,0.0,0.0,0.0,0.0,0.0,0.0,0.0,0.0,0.0,0.0,0.0,0.0,0.0,0.0,0.0,0.0,0.0,0.0,0.0,0.0,0.0,0.0,0.0,0.0,0.0,0.0,0.0,1.8598,1.8619,1.8622,1.8623,1.8659,1.8715,1.8715,1.8752,1.8788,1.8788,0.0,0.0,0.0,0.0,0.0,0.0,0.0,0.0,0.0,0.0,0.0,0.0,0.0,0.0,0.0,0.0,0.0,0.0,0.0,0.0,0.0,0.0,0.0,0.0,0.0,0.0,0.0,0.0,0.0,0.0,0.0,0.0,0.0,0.0,0.0,0.0,0.0,0.0,0.0,0.0,0.0,0.0,0.0,0.0,0.0,0.0,0.0,0.0,0.0,0.0,0.0,0.0,0.0,0.0,0.0,0.0,0.0,0.0,0.0,0.0,0.0,0.0,0.0,0.0,0.0,0.0,0.0,0.0,0.0,0.0,0.0,0.0,0.0,0.0,0.0,0.0,0.0,0.0,0.0,0.0,0.0,0.0,0.0,0.0,0.0,0.0,0.0,0.0,0.0,0.0,0.0,0.0,0.0,0.0,0.0,0.0,0.0,0.0,0.0,0.0,0.0,0.0,1.8603,1.8604,1.8697,1.8697,1.8715,1.8788,1.8788,1.8788,1.8788,1.8788,0.0,0.0,0.0,0.0,0.0,0.0,0.0,0.0,0.0,0.0,0.0,0.0,0.0,0.0,0.0,0.0,0.0,0.0,0.0,0.0,0.0,0.0,0.0,0.0,0.0,0.0,0.0,0.0,0.0,0.0,0.0,0.0,0.0,0.0,0.0,0.0,0.0,0.0,0.0,0.0,0.0,0.0,0.0,0.0,0.0,0.0,0.0,0.0,0.0,0.0,0.0,0.0,0.0,0.0,0.0,0.0,0.0,0.0,0.0,0.0,0.0,0.0,0.0,0.0,0.0,0.0,0.0,0.0,0.0,0.0,0.0,0.0,0.0,0.0,0.0,0.0,0.0,0.0,0.0,0.0,0.0,0.0,0.0,0.0,0.0,0.0,0.0,0.0,0.0,0.0,0.0,0.0,0.0,0.0,0.0,0.0,0.0,0.0,0.0,0.0,0.0,0.0,1.866,1.8697,1.8752,1.8752,1.877,1.8788,1.8788,1.8788,1.8788,0.0,0.0,0.0,0.0,0.0,0.0,0.0,0.0,0.0,0.0,0.0,0.0,0.0,0.0,0.0,0.0,0.0,0.0,0.0,0.0,0.0,0.0,0.0,0.0,0.0,0.0,0.0,0.0,0.0,0.0,0.0,0.0,0.0,0.0,0.0,0.0,0.0,0.0,0.0,0.0,0.0,0.0,0.0,0.0,0.0,0.0,0.0,0.0,0.0,0.0,0.0,0.0,0.0,0.0,0.0,0.0,0.0,0.0,0.0,0.0,0.0,0.0,0.0,0.0,0.0,0.0,0.0,0.0,0.0,0.0,0.0,0.0,0.0,0.0,0.0,0.0,0.0,0.0,0.0,0.0,0.0,0.0,0.0,0.0,0.0,0.0,0.0,0.0,0.0,0.0,0.0,0.0,0.0,0.0,0.0,0.0,0.0,0.0,0.0,0.0,0.0,0.0,1.8733,1.8715,1.8752,1.8788,1.8788,1.8788,1.8788,1.8788,1.8788,1.8788,0.0,0.0,0.0,0.0,0.0,0.0,0.0,0.0,0.0,0.0,0.0,0.0,0.0,0.0,0.0,0.0,0.0,0.0,0.0,0.0,0.0,0.0,0.0,0.0,0.0,0.0,0.0,0.0,0.0,0.0,0.0,0.0,0.0,0.0,0.0,0.0,0.0,0.0,0.0,0.0,0.0,0.0,0.0,0.0,0.0,0.0,0.0,0.0,0.0,0.0,0.0,0.0,0.0,0.0,0.0,0.0,0.0,0.0,0.0,0.0,0.0,0.0,0.0,0.0,0.0,0.0,0.0,0.0,0.0,0.0,0.0,0.0,0.0,0.0,0.0,0.0,0.0,0.0,0.0,0.0,0.0,0.0,0.0,0.0,0.0,0.0,0.0,0.0,0.0,0.0,0.0,0.0,0.0,0.0,0.0,0.0,0.0,0.0,0.0,0.0,0.0,0.0,1.8788,1.8788,1.8788,1.8788,1.8788,1.8788,1.8788,1.8788,1.8788,0.0,0.0,0.0,0.0,0.0,0.0,0.0,0.0,0.0,0.0,0.0,0.0,0.0,0.0,0.0,0.0,0.0,0.0,0.0,0.0,0.0,0.0,0.0,0.0,0.0,0.0,0.0,0.0,0.0,0.0,0.0,0.0,0.0,0.0,0.0,0.0,0.0,0.0,0.0,0.0,0.0,0.0,0.0,0.0,0.0,0.0,0.0,0.0,0.0,0.0,0.0,0.0,0.0,0.0,0.0,0.0,0.0,0.0,0.0,0.0,0.0,0.0,0.0,0.0,0.0,0.0,0.0,0.0,0.0,0.0,0.0,0.0,0.0,0.0,0.0,0.0,0.0,0.0,0.0,0.0,0.0,0.0,0.0,0.0,0.0,0.0,0.0,0.0,0.0,0.0,0.0,0.0,0.0,0.0,0.0,0.0,0.0,0.0,0.0,0.0,0.0,0.0,0.0,1.8788,1.8788,1.8788,1.8788,1.8788,1.8788,1.8788,1.8788,1.8788,1.8788,0.0,0.0,0.0,0.0,0.0,0.0,0.0,0.0,0.0,0.0,0.0,0.0,0.0,0.0,0.0,0.0,0.0,0.0,0.0,0.0,0.0,0.0,0.0,0.0,0.0,0.0,0.0,0.0,0.0,0.0,0.0,0.0,0.0,0.0,0.0,0.0,0.0,0.0,0.0,0.0,0.0,0.0,0.0,0.0,0.0,0.0,0.0,0.0,0.0,0.0,0.0,0.0,0.0,0.0,0.0,0.0,0.0,0.0,0.0,0.0,0.0,0.0,0.0,0.0,0.0,0.0,0.0,0.0,0.0,0.0,0.0,0.0,0.0,0.0,0.0,0.0,0.0,0.0,0.0,0.0,0.0,0.0,0.0,0.0,0.0,0.0,0.0,0.0,0.0,0.0,0.0,0.0,0.0,0.0,0.0,0.0,0.0,0.0,0.0,0.0,0.0,0.0,1.8788,1.8788,1.8788,1.8788,1.8788,1.8788,1.8788,1.8788,1.8788,1.8788,0.0,0.0,0.0,0.0,0.0,0.0,0.0,0.0,0.0,0.0,0.0,0.0,0.0,0.0,0.0,0.0,0.0,0.0,0.0,0.0,0.0,0.0,0.0,0.0,0.0,0.0,0.0,0.0,0.0,0.0,0.0,0.0,0.0,0.0,0.0,0.0,0.0,0.0,0.0,0.0,0.0,0.0,0.0,0.0,0.0,0.0,0.0,0.0,0.0,0.0,0.0,0.0,0.0,0.0,0.0,0.0,0.0,0.0,0.0,0.0,0.0,0.0,0.0,0.0,0.0,0.0,0.0,0.0,0.0,0.0,0.0,0.0,0.0,0.0,0.0,0.0,0.0,0.0,0.0,0.0,0.0,0.0,0.0,0.0,0.0,0.0,0.0,0.0,0.0,0.0,0.0,0.0,0.0,0.0,0.0,0.0,0.0,0.0,0.0,0.0,0.0,0.0,1.8788,1.8788,1.8788,1.8788,1.8788,1.8788,1.8788,1.8788,1.8788,1.8788,0.0,0.0,0.0,0.0,0.0,0.0,0.0,0.0,0.0,0.0,0.0,0.0,0.0,0.0,0.0,0.0,0.0,0.0,0.0,0.0,0.0,0.0,0.0,0.0,0.0,0.0,0.0,0.0,0.0,0.0,0.0,0.0,0.0,0.0,0.0,0.0,0.0,0.0,0.0,0.0,0.0,0.0,0.0,0.0,0.0,0.0,0.0,0.0,0.0,0.0,0.0,0.0,0.0,0.0,0.0,0.0,0.0,0.0,0.0,0.0,2.3195,0.0,0.0,0.0,0.0,0.0,0.0,0.0,0.0,0.0,0.0,0.0,0.0,0.0,0.0,0.0,0.0,0.0,0.0,0.0,0.0,0.0,0.0,0.0,0.0,0.0,0.0,0.0,0.0,0.0,0.0,0.0,0.0,0.0,0.0,0.0,0.0,0.0,0.0,0.0,0.0,0.0,1.8788,1.8788,1.8788,1.8788,1.8788,1.8788,1.8788,1.8788,1.8788,1.8788,1.8788,0.0,0.0,0.0,0.0,0.0,0.0,0.0,0.0,0.0,0.0,0.0,0.0,0.0,0.0,0.0,0.0,0.0,0.0,0.0,0.0,0.0,0.0,0.0,0.0,0.0,0.0,0.0,0.0,0.0,0.0,0.0,0.0,0.0,0.0,0.0,0.0,0.0,0.0,0.0,0.0,0.0,0.0,0.0,0.0,0.0,0.0,0.0,0.0,0.0,0.0,0.0,0.0,0.0,0.0,0.0,0.0,0.0,0.0,0.0,0.0,2.3302,0.0,0.0,0.0,0.0,0.0,0.0,0.0,0.0,0.0,0.0,0.0,0.0,0.0,0.0,0.0,0.0,0.0,0.0,0.0,0.0,0.0,0.0,0.0,0.0,0.0,0.0,0.0,0.0,0.0,0.0,0.0,0.0,0.0,0.0,0.0,0.0,0.0,0.0,0.0,0.0,1.8788,1.8788,1.8788,1.8788,1.8788,1.8788,1.8788,1.8788,1.8788,1.8788,1.8788,0.0,0.0,0.0,0.0,0.0,0.0,0.0,0.0,0.0,0.0,0.0,0.0,0.0,0.0,0.0,0.0,0.0,0.0,0.0,0.0,0.0,0.0,0.0,0.0,0.0,0.0,0.0,0.0,0.0,0.0,0.0,0.0,0.0,0.0,0.0,0.0,0.0,0.0,0.0,0.0,0.0,0.0,0.0,0.0,0.0,0.0,0.0,0.0,0.0,0.0,0.0,0.0,0.0,2.8298,2.8592,2.8592,2.8592,2.8874,2.9213,2.6081,2.5341,2.6231,2.4272,0.0,0.0,0.0,0.0,0.0,0.0,0.0,0.0,0.0,0.0,0.0,0.0,0.0,0.0,0.0,0.0,0.0,0.0,0.0,0.0,0.0,0.0,0.0,0.0,2.1194,2.1215,0.0,0.0,0.0,0.0,0.0,0.0,0.0,0.0,0.0,0.0,0.0,0.0,1.8788,1.8788,1.8788,1.8788,1.8788,1.8788,1.8788,1.8788,1.8788,1.8788,1.8788,1.8788,0.0,0.0,0.0,0.0,0.0,0.0,0.0,0.0,0.0,0.0,0.0,0.0,0.0,0.0,0.0,0.0,0.0,0.0,0.0,0.0,0.0,0.0,0.0,0.0,0.0,0.0,0.0,0.0,0.0,0.0,0.0,0.0,2.473,2.3499,0.0,0.0,0.0,0.0,0.0,0.0,0.0,0.0,0.0,0.0,0.0,0.0,0.0,2.8994,2.9744,2.994,3.0047,3.0047,3.0154,3.0166,3.0107,3.0107,3.0118,3.0145,2.9614,0.0,2.8652,2.8351,0.0,0.0,0.0,0.0,0.0,0.0,0.0,0.0,0.0,0.0,0.0,0.0,0.0,0.0,0.0,0.0,0.0,0.0,0.0,0.0,0.0,0.0,2.492,2.4508,2.3786,2.3379,0.0,2.2446,2.0805,2.0805,2.0805,0.0,0.0,0.0,0.0,0.0,0.0,0.0,1.8788,1.8788,1.8788,1.8788,1.8788,1.8788,1.8788,1.8788,1.8788,1.8788,1.8788,1.8788,1.8788,1.8788,0.0,0.0,0.0,0.0,0.0,0.0,0.0,0.0,0.0,0.0,0.0,0.0,0.0,0.0,0.0,0.0,0.0,0.0,0.0,0.0,0.0,0.0,0.0,0.0,0.0,0.0,0.0,0.0,0.0,2.4034,2.4926,2.4266,2.4855,2.4712,0.0,0.0,0.0,0.0,0.0,0.0,0.0,0.0,0.0,2.9351,2.9797,3.0386,3.1171,3.1617,3.1818,3.1787,3.1787,3.1724,3.1629,3.1629,3.1597,3.1535,3.1535,3.1341,3.0853,2.9607,2.8499,2.7444,0.0,0.0,0.0,0.0,2.489,2.542,2.6498,2.7169,0.0,2.8127,0.0,0.0,0.0,0.0,0.0,0.0,0.0,0.0,0.0,0.0,2.6425,2.6213,2.5699,2.5532,2.6601,2.4533,2.218,0.0,2.1108,2.1001,2.068,0.0,0.0,0.0,0.0,2.0091,2.0091,2.0091,2.0091,2.0091,1.9716,1.9466,1.9466,1.9074,1.8788,1.8788,1.8788,1.8788,1.8788,1.8788,1.8788,0.0,0.0,0.0,0.0,0.0,0.0,0.0,0.0,0.0,0.0,0.0,0.0,0.0,0.0,0.0,0.0,0.0,0.0,0.0,0.0,0.0,0.0,0.0,0.0,0.0,0.0,0.0,0.0,2.4855,2.5604,2.5604,2.6264,2.6282,0.0,0.0,0.0,0.0,0.0,0.0,2.9369,2.903,2.9369,3.0564,3.1135,3.1796,3.2599,3.3187,3.3425,3.3377,3.3359,3.3293,3.3156,3.3156,3.3106,3.3054,3.3054,3.3037,3.2809,3.0797,2.973,2.9223,2.8094,2.7406,2.7017,2.6813,2.713,2.7794,2.8729,2.9435,3.0066,3.0649,3.0486,2.9761,2.8558,0.0,0.0,0.0,0.0,2.6053,2.7041,2.7906,2.8495,2.8495,2.8027,2.783,2.8599,2.6641,2.4219,0.0,2.1982,2.1661,2.1447,0.0,0.0,0.0,0.0,2.1108,2.1108,2.1108,2.1108,2.1108,2.0608,2.0287,2.0287,1.9734,1.9395,1.9395,1.9395,1.9395,1.9395,1.9395,1.9395,1.9395,0.0,0.0,0.0,0.0,0.0,0.0,0.0,0.0,0.0,0.0,0.0,0.0,0.0,0.0,0.0,0.0,0.0,0.0,0.0,0.0,0.0,0.0,0.0,0.0,0.0,0.0,0.0,0.0,0.0,2.8004,2.8744,0.0,0.0,0.0,0.0,3.0154,2.8994,2.9512,3.2491,3.1207,3.1457,3.3794,3.3901,3.4276,3.5025,3.4993,3.4977,3.4977,3.4854,3.4765,3.4675,3.4675,3.4657,3.4582,3.4582,3.4582,3.4442,3.2862,3.137,3.0036,2.9966,2.9,2.7824,2.9316,2.9895,3.0141,3.1651,3.2195,3.2264,3.235,3.0932,2.9154,2.9054,2.7409,0.0,0.0,2.8333,2.9331,3.0907,3.1929,3.2612,3.2612,3.1439,3.0303,3.0386,2.9109,2.7487,0.0,2.4391,2.3142,2.2357,0.0,2.1964,2.1215,2.1108,2.1108,2.1108,2.1108,2.1108,2.1108,2.1072,2.1036,2.1036,2.1019,2.0983,2.0983,2.0983,2.0983,2.0983,2.0983,2.0983,2.0983,2.0983,0.0,0.0,0.0,0.0,0.0,0.0,0.0,0.0,0.0,0.0,0.0,0.0,0.0,0.0,0.0,0.0,0.0,0.0,0.0,0.0,0.0,0.0,0.0,0.0,0.0,0.0,0.0,0.0,2.8253,2.8923,0.0,2.8691,2.9744,3.0672,3.1225,3.217,3.3205,3.4311,3.3847,3.3937,3.4793,3.4811,3.492,3.5118,3.5101,3.5031,3.4924,3.4871,3.4799,3.4761,3.4761,3.4725,3.4688,3.4688,3.4688,3.4653,3.4108,3.3547,3.3055,3.3055,3.2704,3.2265,3.2845,3.3055,3.3143,3.3687,3.388,3.3863,3.3899,3.3371,3.2632,3.2103,3.1364,3.0868,3.1482,3.1901,3.2409,3.3454,3.4001,3.4333,3.4333,3.3161,3.2168,3.2692,3.0914,2.914,2.8859,2.7585,2.6417,2.6157,2.5247,2.4462,2.4177,2.3285,2.262,2.262,2.262,2.262,2.262,2.2178,2.1857,2.1857,2.1393,2.1108,2.1108,2.1108,2.1108,2.1108,2.1108,2.1108,2.1108,2.1108,2.1108,0.0,0.0,0.0,0.0,0.0,0.0,0.0,0.0,0.0,0.0,0.0,0.0,0.0,0.0,0.0,0.0,0.0,0.0,0.0,0.0,0.0,0.0,0.0,0.0,0.0,2.8138,2.9672,2.9423,3.0332,3.0886,3.057,3.1974,3.2884,3.2884,3.4329,3.5204,3.5204,3.5204,3.5328,3.5614,3.5614,3.5704,3.5883,3.5847,3.5739,3.5574,3.5537,3.5518,3.546,3.546,3.546,3.546,3.546,3.546,3.546,3.546,3.546,3.5407,3.4898,3.4688,3.4688,3.4688,3.4688,3.4688,3.4688,3.4688,3.4688,3.4688,3.4688,3.4582,3.4056,3.3934,3.397,3.4005,3.4076,3.4235,3.473,3.496,3.5048,3.5048,3.4304,3.3788,3.4316,3.2962,3.1716,3.2014,2.9993,2.8182,2.8182,2.7335,2.6621,2.6621,2.5283,2.4284,2.4284,2.3815,2.3494,2.3494,2.3017,2.2696,2.2696,2.2214,2.1911,2.1911,2.1911,2.1911,2.1911,2.1911,2.1911,2.1911,2.1911,2.1911,2.1911,0.0,0.0,0.0,0.0,0.0,0.0,0.0,0.0,0.0,0.0,0.0,0.0,0.0,0.0,0.0,0.0,0.0,0.0,0.0,0.0,0.0,0.0,0.0,2.8495,2.9654,3.0939,3.1706,3.3187,3.4418,3.5132,3.5239,3.5257,3.5257,3.5293,3.5328,3.5328,3.5346,3.5703,3.647,3.6506,3.6809,3.7445,3.7405,3.7312,3.7179,3.7119,3.7058,3.7058,3.7058,3.7058,3.7058,3.7058,3.7058,3.7058,3.7058,3.7058,3.69,3.5355,3.4758,3.4758,3.4758,3.4758,3.4758,3.4758,3.4758,3.4758,3.4758,3.4758,3.4758,3.4758,3.4758,3.4758,3.4758,3.4814,3.4869,3.4869,3.4924,3.4978,3.4978,3.5066,3.5137,3.5119,3.517,3.5221,3.5221,3.1546,2.8413,2.8413,2.8342,2.8307,2.8307,2.6925,0.0,2.5872,2.4587,2.3636,2.3636,2.3636,2.3636,2.3636,2.3636,2.3636,2.3636,2.3636,2.3636,2.3636,2.3636,2.3636,2.3636,2.3636,2.3636,2.3636,0.0,0.0,0.0,0.0,0.0,0.0,0.0,0.0,0.0,0.0,0.0,0.0,0.0,0.0,0.0,0.0,0.0,0.0,0.0,0.0,0.0,2.9866,3.107,3.0011,3.2206,3.4008,3.4222,3.4633,3.4989,3.5186,3.5739,3.6078,3.6078,3.7148,3.7826,3.7826,3.8326,3.8719,3.8933,3.895,3.8981,3.9,3.8978,3.8858,3.8696,3.8673,3.8673,3.8673,3.8673,3.8673,3.8673,3.8673,3.8673,3.8673,3.8673,3.8673,3.8515,3.6952,3.6355,3.6355,3.6355,3.6355,3.6355,3.6355,3.6355,3.6355,3.6355,3.6355,3.6355,3.6355,3.6355,3.6355,3.6355,3.6394,3.6394,3.6394,3.6435,3.6511,3.6511,3.6162,3.5793,3.5634,3.535,3.5259,3.5701,3.4416,3.3294,3.3294,3.1867,3.0743,3.0743,2.8923,0.0,2.7522,2.7166,2.6898,2.6898,2.6898,2.6898,2.6898,2.6898,2.6898,2.6898,2.6898,2.6898,2.6898,2.6898,2.6898,2.6898,2.6898,2.6898,0.0,0.0,0.0,0.0,0.0,0.0,0.0,0.0,0.0,0.0,0.0,0.0,0.0,0.0,0.0,0.0,0.0,0.0,0.0,0.0,0.0,0.0,3.2594,3.3637,3.3126,3.4309,3.5346,3.5667,3.5703,3.5971,3.6649,3.7131,3.7541,3.7844,3.8736,3.9272,3.9272,3.9682,3.9914,3.9914,3.9914,3.9836,3.9696,3.9615,3.9552,3.9388,3.9322,3.9305,3.9305,3.9305,3.9305,3.9305,3.9305,3.9305,3.9305,3.9305,3.9305,0.0,0.0,0.0,0.0,0.0,3.7953,3.7953,3.7953,3.7953,3.7953,3.7953,3.7953,3.7953,3.7953,3.7953,3.7953,3.7953,3.7953,3.7953,3.7953,3.773,3.7506,3.7506,3.7002,3.6478,3.6357,3.6219,3.6185,3.6506,3.6381,0.0,3.6203,3.4526,3.3169,3.3169,3.1457,3.0047,2.9726,2.9101,2.8556,2.8235,2.8182,2.8182,2.8182,2.8182,0.0,0.0,0.0,2.8182,2.8182,2.8182,0.0,0.0,0.0,2.8182,2.8182,0.0,0.0,0.0,2.7121,2.7326,0.0,0.0,0.0,0.0,0.0,0.0,0.0,0.0,0.0,0.0,0.0,0.0,0.0,0.0,0.0,0.0,3.5331,3.6789,3.6878,3.6219,3.5971,3.6595,3.6738,3.7362,3.879,3.8933,3.9218,3.986,4.0003,4.0057,4.0057,0.0,0.0,0.0,0.0,4.0143,4.0042,3.9962,3.984,3.9752,3.9652,3.9568,3.9568,3.9568,3.9568,3.9568,3.9568,3.9568,3.9568,3.9568,3.9568,3.955,3.9375,3.9305,3.9305,3.9305,3.9305,3.9305,3.9305,0.0,0.0,3.9305,3.9305,3.9305,3.9305,3.9305,3.9305,3.9305,3.9305,3.9305,3.9305,3.8778,3.8251,3.8251,3.7787,3.7316,3.7246,3.7453,3.7658,3.7749,3.7735,3.7719,3.7719,3.6399,3.5346,3.5346,3.4079,3.2884,3.2188,3.0903,2.9779,2.9084,0.0,0.0,2.8887,2.8798,2.8717,2.8717,2.8717,2.8717,2.8717,2.8717,2.8717,2.8717,2.8717,2.8717,2.8717,2.8717,2.944,3.0743,2.9162,2.8594,0.0,0.0,0.0,0.0,0.0,0.0,0.0,0.0,0.0,0.0,0.0,0.0,0.0,0.0,0.0,3.4884,3.6597,3.7933,3.8546,3.8922,3.8974,3.8397,3.8879,3.9361,3.9664,3.97,3.9753,3.9896,4.0503,4.0877,4.0877,4.1484,4.1841,4.1841,4.1841,4.1782,4.1659,4.1618,4.1534,4.1339,0.0,0.0,4.1165,4.1165,4.1165,4.1165,4.1165,4.1165,4.1165,4.1165,4.1165,4.1042,3.9796,3.9305,3.9305,3.9305,3.9305,3.9305,3.9305,3.9305,3.9305,3.9305,3.9305,3.9305,3.9305,3.9305,0.0,3.9305,3.9305,3.9305,3.9305,3.9199,3.9076,3.9076,3.8971,3.8784,3.8345,3.8672,3.9239,3.9815,3.9085,3.8427,3.8576,3.7238,3.6167,3.6167,3.5364,3.4704,3.4543,3.4276,3.4026,3.3865,3.3312,3.2973,3.2973,3.2349,3.1974,3.1974,3.1974,3.1974,3.1974,3.1974,3.1974,3.1974,3.1974,3.1974,3.1974,3.1974,3.2135,3.2384,3.0796,3.0761,0.0,0.0,0.0,0.0,0.0,0.0,0.0,0.0,0.0,0.0,0.0,3.2693,3.3902,0.0,3.5271,3.7184,3.8126,3.8868,3.9626,4.0344,4.0428,3.9526,3.9738,4.0075,4.0467,4.0503,4.0681,4.1074,4.1466,4.1698,4.1698,4.2073,4.2465,4.2894,4.2894,4.303,4.3362,4.3319,4.3251,4.3164,4.3076,4.2988,4.2836,4.2836,4.2597,4.2201,4.2201,4.1973,4.1604,4.1604,4.1604,4.1516,4.0762,4.0463,4.0463,4.0463,4.0463,4.0463,4.0463,4.0463,4.0463,4.0463,4.0463,4.0463,4.0463,4.0463,4.0463,4.0463,4.0463,4.0463,4.0463,4.0182,3.9901,3.9901,3.9585,3.9234,3.8971,3.9236,3.9646,3.9962,3.9637,3.9266,3.9323,3.8683,3.7898,3.7113,3.6649,3.6256,3.5846,3.581,3.565,3.5257,3.4882,3.465,3.465,3.3937,3.3312,3.2952,3.2916,3.2916,3.2916,3.2916,3.2916,3.2916,3.2916,3.2916,3.2916,3.2916,3.2916,3.2898,3.2063,3.2117,0.0,0.0,0.0,0.0,0.0,0.0,0.0,3.2504,3.3203,3.3012,3.3817,3.4984,3.6388,3.6661,3.7271,3.9295,3.9678,3.995,4.0564,4.1229,4.1405,4.0699,4.0495,4.0667,4.1328,4.1381,4.1703,4.2465,4.2519,4.259,4.2733,4.2733,4.3036,4.3697,4.3732,4.4018,4.4607,4.4555,4.4511,4.4511,4.4378,4.4271,4.4135,4.4135,4.3754,4.3072,4.3026,4.2658,4.2043,4.2043,4.1973,4.1832,4.1832,4.1745,4.1604,4.1604,4.1604,4.1604,4.1604,4.1604,4.1604,4.1604,4.1604,4.1604,4.1604,4.1604,4.1604,4.1604,4.1604,4.1604,4.1604,4.1148,4.0691,4.0691,4.0217,3.9761,3.9761,3.9911,4.0035,4.0058,4.0095,4.0125,4.0146,4.0003,3.9432,3.8041,3.7826,3.7523,3.6738,3.6631,3.6381,3.5739,3.5543,3.5382,3.5221,3.4668,3.3972,3.3169,3.3116,3.3045,3.2916,3.2916,3.2916,3.2916,3.2916,3.2916,3.2916,3.2916,3.2916,3.2916,3.2916,3.2916,3.1819,3.3276,3.4469,3.4578,3.4153,3.3462,0.0,3.4318,3.5717,3.4908,3.6435,3.8253,3.9191,3.9272,3.9498,4.0397,4.1125,4.1579,4.1578,4.2172,4.2621,4.2492,4.2379,4.2315,4.236,4.232,4.2619,4.3304,4.3375,4.3661,4.4321,4.4357,4.4392,4.4482,4.45,4.4535,4.4624,4.4563,4.4537,4.4511,4.4467,4.4423,4.4271,4.4271,4.4145,4.3966,4.3827,4.3728,4.3641,4.3641,4.3254,4.2675,4.2675,4.2236,4.1604,4.1604,4.1604,4.1604,4.1604,4.1604,4.1604,4.1604,4.1604,4.1604,4.1604,4.1604,4.1604,4.1604,4.1604,4.1604,4.1604,4.1552,4.1481,4.1481,4.1411,4.1402,4.1472,4.1533,4.1601,4.1813,4.1321,4.09,4.0985,4.0378,3.9629,3.879,3.8683,3.838,3.7559,3.7452,3.7416,3.7327,3.6684,3.5989,3.5275,3.5132,3.4775,3.4008,3.3972,3.3651,3.2952,3.2916,3.2916,3.2916,3.2916,3.2916,3.2916,3.2916,3.2916,3.2916,3.2916,3.2916,3.4699,3.5646,3.6244,3.6647,3.6517,3.625,3.6297,3.744,3.8375,3.7978,3.9038,4.013,4.043,4.0434,4.0656,4.1338,4.1722,4.2068,4.2449,4.2775,4.2936,4.288,4.3201,4.3231,4.2641,4.2979,4.3373,4.3673,4.4121,4.4474,4.4693,4.4711,4.4882,4.5302,4.5302,4.5517,4.5998,4.5998,4.5998,4.5954,4.5954,4.5863,4.5772,4.5772,4.545,4.4915,4.4347,4.4089,4.4043,4.4043,4.3821,4.3447,4.3447,4.3237,4.2833,4.1938,4.1604,4.1604,4.1604,4.1604,4.1604,4.1604,4.1604,4.1604,4.1604,4.1604,4.1604,4.1604,4.1604,4.1604,4.1604,4.1648,4.1692,4.1692,4.1797,4.1858,4.1902,4.197,4.1977,4.2061,4.1896,4.1782,4.1787,4.152,4.1203,4.0906,4.0042,3.9165,3.8397,3.829,3.8112,3.763,3.7291,3.6774,3.5971,3.5899,3.5578,3.4793,3.474,3.4597,3.4258,3.424,3.424,3.424,3.424,3.424,3.424,3.424,3.424,3.424,3.424,3.424,3.6147,3.6835,3.7559,3.8313,3.8517,3.8711,3.9468,4.0025,4.0419,4.0388,4.0785,4.1167,4.1354,4.1376,4.1565,4.2282,4.2375,4.2558,4.305,4.3141,4.3159,4.3303,4.3848,4.3989,4.349,4.3876,4.4268,4.4443,4.5,4.5372,4.5484,4.5502,4.571,4.6195,4.6212,4.6481,4.7043,4.7043,4.7043,4.6998,4.6998,4.6934,4.6842,4.6842,4.6447,4.5804,4.522,4.4862,4.477,4.477,4.46,4.4314,4.4314,4.419,4.381,4.2685,4.2281,4.2236,4.2236,4.2096,4.1938,4.1938,4.178,4.1604,4.1604,4.1604,4.1604,4.1604,4.1604,4.1648,4.1648,4.1736,4.1841,4.1841,4.1945,4.2005,4.203,4.2055,4.2103,4.2145,4.2228,4.2287,4.2287,4.2287,4.2292,4.2284,4.1332,4.0217,3.9236,3.8933,3.8594,3.7987,3.7719,3.7345,3.6774,3.672,3.6381,3.5578,3.5543,3.5435,3.5221,3.5204,3.5204,3.5204,3.5204,3.5204,3.5204,3.5204,3.5204,3.5204,3.5204,3.5204,3.5943,3.7225,3.9231,4.0104,4.0308,4.0502,4.123,4.1452,4.144,4.1379,4.1267,4.1443,4.2216,4.2316,4.2491,4.3265,4.3358,4.3322,4.3196,4.3214,4.3488,4.4254,4.4381,4.4691,4.5457,4.5312,4.5431,4.6061,4.6151,4.6475,4.7194,4.723,4.7248,4.7266,4.7266,4.7214,4.7178,4.7178,4.7133,4.6998,4.6998,4.6998,4.6998,4.6842,4.6778,4.676,4.6584,4.6519,4.6519,4.6519,4.6094,4.5457,4.5457,4.4887,4.4089,4.4036,4.3927,4.3834,4.3834,4.336,4.2763,4.2763,4.2254,4.1604,4.1604,4.1604,4.1604,4.1604,4.1692,4.178,4.178,4.1884,4.2005,4.2005,4.2005,4.203,4.2079,4.2103,4.2145,4.2287,4.2287,4.2287,4.2287,4.2287,4.2287,4.2287,4.2251,4.1645,4.0075,3.9254,3.8808,3.8772,3.8058,3.7577,3.7559,3.7541,3.7202,3.6417,3.6363,3.6006,3.5239,3.5204,3.5204,3.5204,3.5204,3.5204,3.5204,3.5204,3.5204,3.5204,3.5204,3.5204,3.8599,3.9342,4.016,4.0977,4.12,4.1256,4.1505,4.1927,4.2304,4.2273,4.1717,4.1341,4.1617,4.1627,4.1654,4.1915,4.2818,4.3446,4.334,4.334,4.3597,4.4327,4.4856,4.5512,4.6332,4.6266,4.6291,4.6504,4.6928,4.724,4.7432,4.7407,4.7407,4.7302,4.7302,4.7276,4.7294,4.7294,4.7232,4.7187,4.716,4.7133,4.7133,4.698,4.6934,4.6934,4.6888,4.6824,4.6731,4.6731,4.6542,4.6218,4.6218,4.6059,4.5764,4.5764,4.5717,4.5511,4.4302,4.3792,4.3673,4.3673,4.3525,4.3403,4.3403,4.3403,4.3403,4.3403,4.3403,4.3342,4.2811,4.2774,4.2736,4.2203,4.2121,4.2222,4.2246,4.2228,4.2246,4.2287,4.2287,4.2287,4.2287,4.2287,4.2287,4.2287,4.1841,4.1306,4.077,4.0021,3.9361,3.8861,3.8558,3.8183,3.763,3.7577,3.747,3.7202,3.7184,3.7059,3.6792,3.6774,3.6774,3.6774,3.6774,3.6774,3.6774,3.6774,3.6774,3.6774,3.6774,3.6774,3.938,4.0141,4.1014,4.1832,4.2017,4.2092,4.2389,4.2823,4.315,4.315,4.2199,4.1379,4.1379,4.1285,4.1222,4.1222,4.2584,4.3584,4.3569,4.3534,4.3885,4.4894,4.548,4.6193,4.7234,4.7262,4.7241,4.7183,4.7575,4.7765,4.7663,4.7663,4.7639,4.7511,4.7511,4.7468,4.7363,4.7363,4.7363,4.7302,4.7249,4.7223,4.7205,4.716,4.707,4.7088,4.7088,4.6998,4.6888,4.6888,4.6842,4.6731,4.6731,4.6731,4.6684,4.6684,4.6637,4.6448,4.5253,4.4741,4.4622,4.4622,4.4456,4.4271,4.4271,4.4271,4.4271,4.4271,4.4316,4.4254,4.374,4.3703,4.3604,4.3106,4.3066,4.3054,4.2787,4.2733,4.2626,4.2341,4.2287,4.2287,4.2287,4.2287,4.2287,4.2287,4.1859,4.152,4.152,4.0842,4.0164,3.9682,3.9129,3.8594,3.8058,3.7755,3.7577,3.7577,3.7577,3.7577,3.7577,3.7577,3.7577,3.7577,3.7577,3.7577,3.7577,3.7577,3.7577,3.7577,3.7577,3.7577,3.8544,3.9863,4.185,4.2649,4.2853,4.3058,4.3838,4.4005,4.4005,4.4005,4.2607,4.1378,4.1378,4.1194,4.104,4.104,4.2548,4.3675,4.3675,4.3749,4.438,4.5934,4.6101,4.6672,4.8179,4.8247,4.8187,4.8032,0.0,4.7992,4.7992,4.7992,4.797,4.7902,4.7902,4.7801,4.7511,4.7511,4.7468,4.732,4.732,4.7302,4.7302,4.7302,4.7294,4.7196,4.7196,4.7133,4.7043,4.7043,4.7043,4.7043,4.698,4.6934,4.6842,4.6824,4.6731,4.6637,4.6637,4.6176,4.5563,4.5563,4.5078,4.444,4.444,4.444,4.444,4.444,4.4529,4.4618,4.4582,4.4609,4.466,4.4624,4.4624,4.4428,4.3714,4.3572,4.334,4.2555,4.2376,4.2341,4.2287,4.2287,4.2287,4.2287,4.2287,4.2287,4.2287,4.1627,4.1145,4.1092,3.9789,3.8897,3.8826,3.8094,3.763,3.7577,3.7577,3.7577,3.7577,3.7577,3.7577,3.7577,3.7577,3.7577,3.7577,3.7577,3.7577,3.7577,3.7577,3.7613,4.1163,4.1999,4.2686,4.3485,4.3689,4.3745,4.3949,4.4005,4.4005,4.4005,4.169,3.9704,3.9704,3.8655,3.7785,3.7785,4.0141,4.1926,4.1926,4.3028,4.4395,4.5985,4.617,4.6797,4.8366,4.8532,4.8476,0.0,4.8172,4.7992,4.7992,4.7992,4.7992,4.797,4.797,4.7929,4.787,4.7824,4.7759,4.7759,4.7554,4.745,4.7468,4.7363,4.7276,4.7276,4.7276,4.7276,4.7232,4.7232,4.7232,4.7232,4.7178,4.7133,4.7088,4.6998,4.6934,4.6888,4.6888,4.6717,4.6465,4.6465,4.6415,4.63,4.63,4.63,4.63,4.63,4.6346,4.6203,4.5615,4.5454,4.5356,4.4749,4.4624,4.4571,4.4375,4.4339,4.4268,4.4053,4.3572,4.3001,4.2394,4.2287,4.2287,4.2287,4.2287,4.2287,4.2287,4.2109,4.1752,4.1163,4.0753,4.0057,3.8915,3.8611,3.8237,3.763,3.7577,3.7577,3.7577,3.7577,3.7577,3.7577,3.7577,3.7577,3.7577,3.7577,3.7577,3.7577,3.7577,3.7613,4.2333,4.3058,4.3448,4.3893,4.4005,4.3819,4.3113,4.2946,4.2742,4.1999,3.9825,3.8042,3.8042,3.7291,3.6893,3.7571,3.9804,4.1681,4.2384,4.3272,4.4476,4.607,4.6255,4.6849,4.8439,4.8587,4.8587,4.8587,4.8402,4.8267,4.8208,4.8208,4.8169,4.809,4.809,4.805,4.7992,4.7988,4.7947,4.7947,4.7806,4.7705,4.7705,4.7597,4.7511,4.7468,0.0,4.7363,4.7302,4.7302,4.7302,4.732,4.7249,4.7249,4.7249,4.716,4.7143,4.7143,4.7143,4.7098,4.7007,4.6934,4.6934,4.6998,4.6998,4.6998,4.6998,4.6998,4.6998,4.689,4.6444,4.632,4.6212,4.5766,4.5659,4.557,4.5213,4.5142,4.5035,4.4678,4.4018,4.3375,4.2894,4.2519,4.2287,4.2287,4.2287,4.2287,4.2287,4.2287,4.2126,4.1663,4.1306,4.0753,3.9878,3.9504,3.895,3.8183,3.813,3.7969,3.7594,3.7577,3.7577,3.7577,3.7577,3.7577,3.7577,3.7577,3.7577,3.7577,3.7613,3.7667,4.2705,4.3466,4.4005,4.4005,4.4005,4.3578,4.1962,4.159,4.1126,3.9454,3.7819,3.6686,3.6686,3.6593,3.6946,3.8247,3.9955,4.1627,4.3132,4.354,4.4289,4.5986,4.6249,4.6897,4.8328,4.8568,4.8623,4.8623,4.8623,4.8605,4.8532,4.8494,4.8419,4.8265,4.8226,4.8187,4.8072,4.8032,4.8032,4.8032,4.7992,4.7992,4.7992,4.7966,4.7842,4.7741,4.7597,4.7493,4.7389,4.7407,4.7363,4.7363,4.7363,4.732,4.7302,4.732,4.7302,4.7302,4.7302,4.7302,4.7276,4.7116,4.7025,4.7025,4.7025,4.7025,4.7025,4.7025,4.7025,4.7025,4.7025,4.7025,4.7025,4.7025,4.7025,4.6847,4.615,4.6007,4.5731,4.4928,4.425,4.375,4.3554,4.2912,4.2412,4.2305,4.2287,4.2287,4.2287,4.2287,4.2287,4.2287,4.168,4.1217,4.1109,4.0467,3.9753,3.9004,3.8968,3.8594,3.7773,3.7755,3.7702,3.7577,3.7577,3.7613,3.7613,3.7613,3.7613,3.7631,3.7721,3.7739,4.3392,4.3893,4.4005,4.4005,4.4005,4.3578,4.1962,4.159,4.1126,3.9454,3.7819,3.6686,3.6686,3.6147,3.5553,3.5126,3.7002,3.8859,3.9825,4.1144,4.289,4.5212,4.6052,4.6832,4.7779,4.8466,4.8855,0.0,4.8855,4.875,4.8605,4.8569,4.8569,4.8514,4.8494,4.8437,4.8419,4.8265,4.8148,4.8148,4.8032,4.7992,4.7992,4.801,4.797,4.797,4.7911,0.0,4.787,4.7824,4.7819,4.7759,4.7554,4.7468,4.745,4.7363,4.7302,4.7302,4.7302,4.7302,4.7302,4.7276,4.7232,4.7232,4.7232,4.7232,4.7232,4.7232,4.7232,4.7232,4.7232,4.7232,4.7232,4.7232,4.7232,4.724,4.7096,4.7008,4.6704,4.5899,4.5543,4.4999,4.3732,4.3393,4.3072,4.2394,4.2287,4.2287,4.2287,4.2287,4.2287,4.2287,4.2162,4.1805,4.1163,4.0967,4.0556,3.9771,3.9718,3.9379,3.8629,3.8594,3.8272,3.7594,3.7577,3.7613,3.7667,3.7667,3.7721,3.7864,3.7864,3.7916,4.3559,4.4005,4.4005,4.4005,4.4005,4.3355,4.0866,4.029,3.9584,3.711,3.5994,3.5479,3.5504,3.5559,3.5597,3.5597,3.6938,3.8596,4.0272,4.1185,4.2619,4.5097,4.6102,4.6922,4.776,4.858,4.9046,4.9046,4.9046,4.8943,4.8732,4.8642,4.8587,4.8587,4.8569,4.855,4.855,4.8476,4.842,4.8401,4.8324,4.8247,4.8247,4.8169,4.809,4.809,4.8032,4.7992,4.7992,4.7988,4.7947,4.7947,4.7806,4.7747,4.7747,4.7705,4.7645,4.7645,4.7645,4.7645,4.7645,4.7645,4.7475,4.7302,4.7302,4.7302,4.7302,4.7302,4.7302,4.7302,4.7302,4.7302,4.7302,4.7302,4.7302,4.7302,4.7302,4.7276,4.7142,4.6747,4.6309,4.5763,4.5029,4.4205,4.3524,4.313,4.2718,4.245,4.245,4.245,4.245,4.2405,4.2427,4.2289,4.1912,4.1877,4.1536,4.073,4.0677,4.0336,3.9621,3.9586,3.9406,3.9012,3.8599,3.8402,3.842,3.8008,3.7846,3.7899,3.7916,3.7967,4.3323,4.3806,4.3844,4.403,4.3937,4.2988,3.9881,3.9026,3.8021,3.4945,3.4186,3.4111,3.4367,3.4965,3.5637,3.6272,3.7057,3.8458,4.0942,4.1297,4.2268,4.492,4.6115,4.6975,4.7666,4.8618,4.9197,4.9197,4.9197,4.9098,4.8876,4.8768,4.8678,4.8678,4.8642,4.8642,4.8642,4.8623,4.8587,4.8587,4.855,4.8532,4.8532,4.8381,4.8304,4.8304,4.8169,4.813,4.8111,4.8032,4.8032,4.8032,4.7992,4.7992,4.7992,4.7992,4.7992,4.7992,4.7992,4.7992,4.7992,4.7992,4.7728,4.7432,4.7432,4.7432,4.7432,4.7432,4.7432,4.7432,4.745,4.7407,4.7407,4.7407,4.7407,4.7407,4.7407,4.7363,4.7345,4.7345,4.6834,4.6385,4.6223,4.5144,4.4209,4.385,4.3278,4.2793,4.2627,4.2649,4.2609,4.2584,4.2588,4.2609,4.2609,4.2609,4.234,4.171,4.1674,4.1315,4.0579,4.0543,4.0471,4.0291,3.9697,3.9337,3.9373,3.8744,3.8348,3.8221,3.8307,3.8233,4.2445,4.3098,4.3285,4.405,4.3677,4.2445,3.9952,3.8749,3.748,3.4927,3.3803,3.3523,3.4255,3.4479,3.4531,3.461,3.5357,3.6777,3.9261,3.9616,4.0792,4.4024,4.5761,4.6732,4.6807,4.8263,4.9197,4.9197,4.9197,4.9164,4.9068,4.9068,4.9015,4.8874,4.8804,4.8787,4.8787,4.8642,4.8587,4.8587,4.8587,4.8587,4.8587,4.855,4.855,4.8569,4.8494,4.8457,0.0,4.8265,4.8187,4.8187,4.805,4.7992,4.7992,4.7992,4.7992,4.7992,4.7992,4.7992,4.7992,4.7992,4.7992,4.7951,4.7951,4.7951,4.7951,4.7951,4.7951,4.7911,4.7842,4.7861,4.7801,4.7699,4.7657,4.7657,4.7657,4.7554,4.7468,4.7468,4.7309,4.6996,4.6313,4.6079,4.5486,4.403,4.3758,4.3415,4.2695,4.2691,4.2788,4.2763,4.2667,4.2609,4.2609,4.2609,4.2573,4.2501,4.2501,4.2142,4.1333,4.1297,4.0973,4.0309,4.0237,4.022,4.0275,4.0203,3.986,3.9278,3.9329,3.8964,4.1614,4.2287,4.2361,4.2716,4.2529,4.1521,3.857,3.7636,3.6552,3.3608,3.2748,3.2639,3.2941,3.3843,3.4367,3.388,3.4948,3.6691,3.9164,3.9502,4.0739,4.4037,4.5892,4.6885,4.6885,4.8403,4.9377,4.9377,4.9377,4.9345,4.923,4.9164,4.9131,4.9079,4.9015,4.898,4.898,4.8839,4.8785,4.8785,4.8732,4.8732,4.8732,4.8642,4.8587,4.8587,4.8569,4.855,0.0,4.8458,4.842,4.842,4.8364,4.8344,4.8286,4.8286,4.8247,4.819,4.819,4.819,4.819,4.819,4.819,4.8151,4.8032,4.7992,4.7992,4.7992,4.7992,4.7992,4.797,4.7947,4.7947,4.7888,4.7888,4.7888,4.7888,4.7847,4.7788,4.7788,4.7747,4.7638,4.7329,4.6894,4.6327,4.5715,4.4774,4.4049,4.3699,4.3303,4.3032,4.3031,4.2862,4.2786,4.2786,4.2786,4.2842,4.2899,4.2899,4.2792,4.2485,4.2504,4.2359,4.205,4.1561,4.1342,4.1378,4.0887,4.0488,4.0231,4.0266,4.0117,4.0772,4.1501,4.1557,4.18,4.1314,4.0098,3.7536,3.6395,3.5165,3.2625,3.1912,3.182,3.2067,3.2874,3.3475,3.3419,3.4583,3.6291,3.8568,3.9118,4.0303,4.3141,4.5153,4.6412,4.6675,4.8423,4.9521,4.949,4.9509,4.9459,4.9358,4.9327,4.9262,4.9179,4.915,4.9116,4.9116,4.903,4.8978,4.8962,4.8892,4.8857,4.8822,4.8714,4.8714,4.8678,4.8678,4.8642,0.0,4.8642,4.8587,4.8587,4.8587,4.8569,4.8532,4.8532,4.8476,4.8382,4.8382,4.8382,4.8382,4.8382,4.8382,4.8364,4.821,4.8151,4.8072,4.8072,4.8072,4.805,4.805,4.8032,4.7992,4.7992,4.7992,4.7992,4.7992,4.7992,4.7992,4.7992,4.7992,4.7992,4.7992,4.7536,4.708,4.6843,4.584,4.4948,4.4455,4.3908,4.3452,4.3251,4.3069,4.3013,4.3013,4.3013,4.3013,4.3123,4.3123,4.316,4.3214,4.3214,4.3214,4.3214,4.2649,4.2339,4.2339,4.1774,4.1373,4.1136,4.1188,4.1095,3.9915,4.0816,4.1004,4.1785,4.0159,3.8131,3.7286,3.5202,3.3193,3.2274,3.1466,3.1166,3.1954,3.1466,3.1485,3.3137,3.4076,3.5224,3.6983,3.7924,3.9077,4.082,4.3221,4.507,4.5919,4.8202,4.9563,4.949,4.9509,0.0,4.9509,4.9509,4.9427,4.923,4.9197,4.9197,4.9197,4.9197,4.9164,4.9101,4.9101,4.9015,4.8909,4.8909,4.8909,4.8909,4.8822,4.8787,0.0,4.8642,4.8587,4.8587,4.8587,4.8587,4.8587,4.8587,4.8587,4.8587,4.8587,4.8587,4.8587,4.8587,4.8587,4.8587,4.8587,4.8439,4.8306,4.8306,4.8247,4.8187,4.8187,4.809,4.7992,4.7992,4.7992,4.7992,4.7992,4.7992,4.7992,4.7992,4.7992,4.7992,4.7992,4.7992,4.7718,4.6934,4.6807,4.6189,4.4601,4.4382,4.409,4.3268,4.3214,4.3214,4.3214,4.3214,4.3214,4.3214,4.3214,4.3214,4.3214,4.3214,4.3214,4.3214,4.3196,4.3196,4.3196,4.3178,4.2777,4.1975,4.2134,4.1849,3.612,3.6704,3.6779,3.7002,3.6475,3.5555,3.4143,3.322,3.2241,3.0809,3.032,3.0226,3.0471,3.0772,3.1506,3.3201,3.4162,3.552,3.7766,3.8313,3.9104,4.0806,4.3712,4.6353,4.8334,4.9211,4.9663,4.9653,4.9653,4.9623,4.9563,4.9563,4.9502,4.9427,4.9327,4.9276,4.9276,4.9211,4.9197,4.9164,4.9164,4.9164,4.9113,4.9113,4.9098,4.9049,4.9015,4.8946,4.8874,4.882,4.882,4.882,4.882,4.8768,4.8732,4.8732,4.8678,4.8587,4.8587,4.8587,4.8587,4.8587,4.8587,4.8587,4.8587,4.855,4.8514,4.8514,4.8495,4.8458,4.8458,4.8439,4.8402,4.8402,4.8402,4.8402,4.8402,4.8402,4.8402,4.8402,4.8402,4.8402,4.8402,4.8402,4.831,4.807,4.7555,4.704,4.6523,4.5513,4.4689,4.4481,4.3934,4.3499,4.3214,4.325,4.3286,4.341,4.3444,4.3513,4.3618,4.3618,4.3618,4.3618,4.3618,4.3618,4.3618,4.3618,4.349,4.3232,4.3284,4.2875,3.409,3.4806,3.4806,3.4806,3.4315,3.358,3.2524,3.1808,3.1072,3.0015,3.0298,3.0544,2.9921,3.0732,3.1826,3.2883,3.4034,3.5356,3.6925,3.7659,3.8908,4.1255,4.392,4.6698,4.9485,4.975,4.9721,4.9692,4.9692,4.9663,4.9634,4.9653,4.9623,4.9582,4.944,4.939,4.939,4.9327,4.9295,4.9244,4.9244,4.9211,4.9197,4.9197,4.9164,4.915,4.915,4.9098,0.0,4.9012,4.9012,4.9012,4.9012,4.8978,4.8962,4.8927,4.8857,4.8804,4.875,4.8714,4.8714,4.8714,4.8714,4.8714,4.8714,4.866,4.8587,4.8587,4.8587,4.8587,4.8587,4.8587,4.8587,4.8587,4.8587,4.8587,4.8587,4.8587,4.8587,4.8587,4.8587,4.8587,4.8587,4.8587,4.8587,4.8587,4.8162,4.7737,4.7424,4.6539,4.5674,4.506,4.4558,4.4033,4.3481,4.3444,4.3513,4.3618,4.3667,4.3701,4.3804,4.3804,4.3804,4.3804,4.3804,4.3804,4.3804,4.3804,4.3804,4.3804,4.3837,4.3573,0.0,3.4373,3.4468,3.4449,3.3279,3.2128,3.2128,3.0921,0.0,2.9825,3.1147,3.1807,3.0127,3.124,3.2411,3.2411,3.3865,3.4999,3.5001,3.6402,3.8691,4.2185,4.4004,4.6253,4.9513,4.9807,4.9778,4.9721,4.9721,4.9721,4.9692,4.9692,4.9692,4.9692,4.9582,4.949,4.9509,4.949,4.9459,4.9308,4.9308,4.9276,4.923,4.923,4.923,0.0,4.923,4.9211,0.0,4.9197,4.9197,4.9197,4.9197,4.9197,4.9197,4.9116,4.9101,4.9101,4.8943,4.8909,4.8909,4.8909,4.8909,4.8909,4.8909,4.8785,4.8623,4.8623,4.8623,4.8623,4.8623,4.8623,4.8623,4.8623,4.8623,4.8623,4.8623,4.8623,4.8623,4.8623,4.8623,4.8623,4.8623,4.8623,4.8623,4.8623,4.8623,4.8365,4.7625,4.7496,4.6851,4.5371,4.5115,4.474,4.3966,4.3841,4.3804,4.3804,4.3804,4.3804,4.3804,4.3837,4.3837,4.3837,4.3837,4.3837,4.3837,4.3837,4.3837,4.3837,4.3915,4.3961,2.9038,0.0,3.1118,3.1065,3.0763,3.0478,0.0,3.0243,2.9975,3.0007,3.1371,3.2017,3.0345,3.1903,3.3443,3.3444,3.5419,3.6711,3.6065,3.7395,3.9943,4.3992,4.5399,4.7086,4.9686,4.9952,4.9925,4.9871,4.9843,4.9816,4.9778,4.9778,4.975,4.9692,4.9682,4.9623,4.9563,4.9521,4.949,4.944,4.944,4.9459,4.9427,4.9427,4.9377,4.9276,4.9276,4.9244,4.9197,4.9197,4.9197,4.9197,4.9197,4.9197,4.9197,4.9197,4.9164,4.9164,4.9146,4.9113,4.9113,4.9113,4.9113,4.9113,4.9113,4.9012,4.882,4.882,4.882,4.882,4.882,4.882,4.882,4.882,4.882,4.882,4.882,4.882,4.882,4.882,4.882,4.882,4.882,4.882,4.882,4.882,4.8927,4.8906,4.872,4.8203,4.7698,4.7332,4.6147,4.5289,4.5127,4.4363,4.3883,4.3883,4.3929,4.3942,4.3942,4.4042,4.4092,4.4092,4.4153,4.4165,4.4165,4.4165,4.4165,4.4195,4.4195,4.4226,2.7052,2.8218,2.9433,2.9402,2.9687,3.0007,3.0038,3.0038,3.0072,3.0087,3.142,3.2086,3.0407,3.214,3.3682,3.3304,3.5035,3.6672,3.7338,3.8213,4.0099,4.3542,4.4703,4.6164,0.0,4.8897,4.9195,4.9948,5.0005,4.9952,4.9898,4.9898,4.9843,4.9788,4.9778,4.9721,4.9653,4.9593,4.9593,4.9593,4.9593,4.9582,4.9551,4.9551,4.9502,4.939,4.939,0.0,4.9345,4.9345,4.9345,4.9345,4.9345,4.9345,4.9345,4.9295,4.9244,4.9244,4.9211,4.9197,4.9197,4.9197,4.9197,4.9197,4.9197,4.9113,4.9046,4.9046,4.9046,4.9046,4.9046,4.9046,4.9046,4.9046,4.9046,4.9046,4.9046,4.9046,4.9046,4.9046,4.9046,4.9046,4.9046,4.9046,4.9046,4.9046,4.9098,4.915,4.915,4.8795,4.8418,4.8053,4.7186,4.6326,4.5555,4.4966,4.4495,4.4123,4.4116,4.4147,4.4147,4.4195,4.4244,4.4244,4.4285,4.4285,4.4285,4.4285,4.4285,4.4285,4.4285,4.4314,2.6232,2.7307,2.8503,2.8751,2.936,2.9946,3.0079,3.0117,3.0117,3.0132,3.1451,3.2118,3.0437,3.2267,3.3772,3.2972,3.4459,3.6669,3.9414,3.9585,4.0424,4.309,4.4005,0.0,4.7772,4.8019,4.8566,4.9993,5.0108,5.0082,5.0031,5.0031,5.0005,4.9933,4.9871,4.9807,4.975,4.9721,4.9692,4.9692,4.9692,4.9663,4.9623,4.9623,4.9593,4.9521,0.0,0.0,4.9521,4.9521,4.9521,4.9521,4.9521,4.949,4.9509,4.9358,4.934,4.9308,4.9262,4.9262,4.9262,4.9262,4.9262,4.9262,4.9262,4.9262,4.9262,4.9262,4.923,4.9197,4.9197,4.9197,4.9197,4.9197,4.9197,4.9197,4.9197,4.9197,4.9197,4.9197,4.9197,4.9197,4.9197,4.9197,4.9197,4.9197,4.923,4.923,4.923,4.9225,4.8995,4.8309,4.8128,4.7454,4.6046,4.5679,4.523,4.4568,4.4389,4.4314,4.4314,4.4314,4.4314,4.4344,4.4344,4.4344,4.4344,4.4344,4.4344,4.4344,4.4344,4.4373,2.5393,2.611,2.7185,2.8548,2.8992,2.9292,3.0027,3.0194,3.0194,3.0253,3.1593,3.2264,3.0579,3.2896,3.481,3.4002,3.6454,3.9881,4.3829,4.3158,4.3465,4.6696,0.0,4.7933,4.9635,4.9806,4.9872,5.0089,5.0108,5.0108,5.0082,5.0082,5.0082,5.0082,5.0057,5.0031,4.9952,4.9807,4.9692,4.9692,4.9692,4.9692,4.9692,4.9692,4.9663,4.9682,0.0,4.9682,4.9682,4.9682,4.9653,4.9593,4.9593,4.9551,4.9509,4.9459,4.9459,4.9459,4.9459,4.9459,4.9459,4.9459,4.9459,4.9459,4.9459,4.9459,4.9459,4.9459,4.9345,4.9197,4.9197,4.9197,4.9197,4.9197,4.9197,4.9197,4.9197,4.9197,4.9197,4.9197,4.9197,4.9197,4.9197,4.9197,4.9197,4.9197,4.9244,4.9257,4.9257,4.939,4.9402,4.929,4.8596,4.8052,4.7808,4.6494,4.5631,4.55,4.4747,4.4314,4.4383,4.4383,4.4411,4.4458,4.4458,4.4458,4.4458,4.4458,4.4458,4.4458,4.4458,4.4515,2.5303,2.5611,2.6313,2.7953,2.8663,2.9187,3.0062,3.0247,3.0266,3.0292,3.0906,3.1366,3.1059,3.2996,3.5124,3.6577,3.8495,4.0797,4.3636,4.3387,4.3828,0.0,0.0,4.7237,4.8859,4.9013,4.9373,5.0249,5.0278,5.0255,5.0207,5.0163,5.0133,5.0108,5.0108,5.0082,5.0057,4.9952,4.9871,4.9816,4.9816,4.9807,4.975,4.975,4.9721,4.9692,0.0,4.9692,4.9692,4.9692,4.9663,4.9634,4.9634,4.9653,4.9593,4.9593,4.9593,4.9593,4.9593,4.9593,4.9593,4.9593,4.9593,4.9593,4.9593,4.9593,4.9593,4.9593,4.9502,4.9345,4.9345,4.9345,4.9345,4.9345,4.9345,4.9345,4.9345,4.9345,4.9345,4.9345,4.9345,4.9345,4.9345,4.9345,4.9345,4.9345,4.9377,4.9409,4.9409,4.9459,4.9509,4.9509,4.9164,4.8762,4.8273,4.7598,4.6553,4.5134,4.4665,4.443,4.444,4.444,4.4487,4.4515,4.4542,4.4551,4.4551,4.4578,4.4605,4.4605,4.4605,4.4632,2.5395,2.5541,2.6062,2.7528,2.8324,2.9025,3.0112,3.0362,3.0362,3.0362,3.0362,3.0611,3.1495,3.3492,3.6022,3.8981,4.0537,4.1865,4.3344,4.3555,4.4189,4.5899,4.611,4.6762,4.841,4.8583,4.912,5.0404,5.0457,5.0412,5.0348,5.0302,5.0255,5.0207,5.0182,5.0158,5.0158,5.0133,5.0038,4.9952,4.9952,4.9925,4.989,4.989,4.9816,4.9778,4.9778,4.9778,4.975,4.975,4.975,4.9721,4.9721,4.9721,4.9692,4.9692,4.9692,4.9692,4.9692,4.9692,4.9692,4.9692,4.9692,4.9692,4.9692,4.9692,4.9692,4.9692,4.9623,4.9551,4.9551,4.9551,4.9551,4.9551,4.9551,4.9551,4.9551,4.9551,4.9551,4.9551,4.9551,4.9551,4.9551,4.9551,4.9551,4.9551,4.9551,4.9551,4.9551,4.9551,4.9551,4.9551,4.9593,4.9265,4.8399,4.8381,4.7372,4.5002,4.4664,4.457,4.457,4.457,4.457,4.457,4.4605,4.4632,4.4632,4.4685,4.4712,4.4712,4.4712,4.4712,2.5395,2.5985,2.6814,2.7682,2.7952,2.8425,3.0102,3.0488,3.0488,3.0488,3.0488,3.0739,3.1607,3.5078,3.8395,4.0188,4.2579,4.4508,4.5375,0.0,4.6095,4.7721,4.7895,4.8548,5.0176,5.0308,5.0366,5.0481,5.05,5.05,5.05,5.0478,5.0478,5.0478,5.0412,5.0348,5.0278,5.0212,5.0158,5.0082,5.0082,5.0082,5.0082,5.0082,5.0057,4.9978,4.9978,4.9933,4.9898,4.9898,4.9843,4.9807,4.9807,4.975,4.9692,4.9692,4.9692,4.9692,4.9692,4.9692,4.9692,4.9692,4.9692,4.9692,4.9692,4.9692,4.9692,4.9692,4.9692,4.9692,4.9692,4.9692,4.9692,4.9692,4.9692,4.9692,4.9692,4.9692,4.9692,4.9692,4.9692,4.9692,4.9692,4.9692,4.9692,4.9692,4.9692,4.9692,4.9692,4.9692,4.9692,4.9692,4.9692,4.9353,4.8456,4.8409,4.7692,4.6013,4.5119,4.4685,4.4685,4.4685,4.4685,4.4685,4.4685,4.4685,4.4685,4.4712,4.4712,4.4712,4.4712,4.4719,2.5456,2.6107,2.6978,2.781,2.8429,2.9399,3.1562,3.2042,3.2362,3.3442,3.3249,3.3122,3.399,3.7173,4.0028,4.1224,4.3559,4.5353,4.5661,4.57,4.6127,4.7289,4.7887,4.8659,4.9778,5.0375,5.0664,5.0644,5.0586,5.0545,5.0563,5.0521,5.05,5.05,5.0478,5.0457,5.0416,5.0393,5.0371,5.0348,5.0182,5.0108,5.0108,5.0108,5.0082,5.0057,5.0057,5.0057,5.0031,5.0031,5.0005,4.9978,4.9978,4.9952,4.9898,4.9898,4.9871,4.9816,4.9816,4.9816,4.9816,4.9816,4.9816,4.9816,4.9816,4.9816,4.9816,4.9816,4.9816,4.9807,4.9721,4.9692,4.9692,4.9692,4.9692,4.9692,4.9692,4.9692,4.9692,4.9692,4.9692,4.9692,4.9692,4.9692,4.9692,4.9692,4.9692,4.9692,4.9692,4.9692,4.9692,4.9692,4.975,4.9646,4.9362,4.887,4.8094,4.694,4.601,4.5278,4.4731,4.4712,4.4712,4.4712,4.4738,4.4745,4.4745,4.4796,4.4821,4.4821,4.4821,4.4821,2.5506,2.6333,2.7353,2.7961,2.8943,3.0496,3.3237,3.3439,3.3555,3.5276,3.5372,3.5256,3.5566,3.8182,4.0655,4.1776,4.367,4.5158,4.5684,4.5761,4.6074,4.6931,4.7549,4.8243,4.9037,4.9654,4.9984,4.9949,4.9893,4.9874,4.9856,4.9836,4.9796,4.9777,4.9757,4.9736,4.9697,4.9695,4.9714,4.9714,4.9519,4.9716,5.0231,5.0207,5.0182,5.0158,5.0133,5.0133,5.0108,5.0108,5.0108,5.0108,5.0108,5.0082,5.0031,5.0031,5.0005,4.9978,4.9978,4.9978,4.9978,4.9978,4.9978,4.9978,4.9978,4.9978,4.9978,4.9978,4.9978,4.9952,4.9843,4.9788,4.9759,4.9759,4.9759,4.9759,4.9759,4.9759,4.9759,4.9759,4.9759,4.9759,4.9759,4.9759,4.9759,4.9759,4.9759,4.9759,4.9759,4.9759,4.9759,4.9759,4.9788,4.9843,4.9898,4.9413,4.8757,4.7896,4.7011,4.5968,4.4801,4.4745,4.4745,4.4745,4.4815,4.4821,4.4821,4.4895,4.4919,4.4919,4.4943,4.4943,2.5525,2.6792,2.8117,2.8117,2.9369,3.1521,3.4933,3.4409,3.3701,3.5388,3.6416,3.6765,3.5892,3.786,4.0167,4.1826,4.2842,4.4013,4.5674,4.5893,4.6195,4.6978,4.7113,4.741,4.8208,4.8304,4.8304,4.8304,4.8304,4.8304,4.8304,4.8304,4.827,4.8197,4.8143,4.8068,4.7991,4.8009,4.8008,4.8008,4.7987,4.887,5.0462,5.0416,5.0329,5.0264,5.0193,5.0144,5.0089,5.0089,5.0089,5.0089,5.0108,5.0108,5.0108,5.0108,5.0108,5.0108,5.0108,5.0108,5.0108,5.0108,5.0108,5.0108,5.0108,5.0108,5.0108,5.0108,5.0108,5.0108,5.0108,5.0005,4.9879,4.9879,4.9879,4.9879,4.9879,4.9879,4.9879,4.9879,4.9879,4.9879,4.9879,4.9879,4.9879,4.9879,4.9879,4.9879,4.9879,4.9879,4.9879,4.9879,4.9879,4.9879,4.9879,4.9978,4.9663,4.8846,4.8041,4.6806,4.499,4.4914,4.4895,4.4895,4.4895,4.4895,4.4895,4.4967,4.4991,4.4991,4.508,4.5103,2.631,2.7762,2.922,2.9784,3.0756,3.2479,3.5966,3.5821,3.5611,3.7967,3.8646,3.8568,3.7686,3.9624,4.1524,4.202,4.3812,4.5324,4.5835,4.5893,4.5977,4.6235,4.6803,4.7254,4.7497,4.8043,4.8357,4.8295,4.8295,4.8298,4.8304,4.8304,4.8287,4.827,4.8251,4.8234,4.8216,4.8198,4.8218,4.8218,4.8162,4.8356,4.8755,4.8735,4.8713,4.8673,4.8652,4.863,4.8687,4.9242,4.9449,4.9461,5.0073,5.0255,5.0163,5.0163,5.0158,5.0108,5.0108,5.0108,5.0108,5.0108,5.0108,5.0108,5.0108,5.0108,5.0108,5.0108,5.0108,5.0108,5.0108,5.0082,5.0057,5.0057,5.0057,5.0057,5.0057,5.0057,5.0057,5.0057,5.0057,5.0057,5.0057,5.0057,5.0057,5.0057,5.0057,5.0057,5.0057,5.0057,5.0057,5.0057,5.0057,5.0057,5.0057,5.0057,4.974,4.8922,4.8637,4.7724,4.6026,4.538,4.5057,4.5057,4.5057,4.5057,4.5057,4.5057,4.508,4.508,4.5103,4.5103,2.7692,2.8695,2.9697,3.0495,3.137,3.2824,3.5983,3.7261,3.816,3.9403,3.9927,3.9888,3.9024,4.0383,4.1868,4.2548,4.3934,4.5184,4.5852,4.5949,4.5929,4.5886,4.6351,4.6668,4.6674,4.712,4.7384,4.7342,4.7361,4.7347,4.736,4.7345,4.7345,4.7298,4.7298,4.7298,4.7262,4.7282,4.7282,4.7282,4.7229,4.7159,4.7107,4.7722,4.7989,4.7989,4.8008,4.7987,4.8025,4.8505,4.8715,4.8711,4.9228,4.9395,4.9331,4.9331,4.9285,4.9281,4.9281,4.9281,4.9281,4.9281,4.9281,4.9339,4.9644,4.9739,4.9816,5.0159,5.0255,5.0255,5.0255,5.0255,5.0231,5.0133,5.0108,5.0108,5.0108,5.0108,5.0108,5.0108,5.0108,5.0108,5.0108,5.0108,5.0108,5.0108,5.0108,5.0108,5.0108,5.0108,5.0108,5.0108,5.0108,5.0108,5.0108,5.0133,4.9948,4.9453,4.9158,4.8533,4.7503,4.6291,4.5445,4.5103,4.5103,4.5103,4.5103,4.5125,4.5148,4.517,4.5192,4.5235,2.9371,2.9674,2.9932,3.0739,3.1785,3.3206,3.558,3.8656,4.0789,3.9984,4.0451,4.0762,3.9964,4.0532,4.1613,4.314,4.351,4.4151,4.5684,4.5964,4.6003,4.5929,4.5929,4.5917,4.5917,4.5917,4.5917,4.5886,4.5905,4.5893,4.5906,4.5906,4.588,4.581,4.581,4.5781,4.5731,4.5715,4.5715,4.5715,4.5715,4.5715,4.5758,4.7144,4.778,4.7799,4.7779,4.7798,4.7798,4.7874,4.7893,4.7893,4.7969,4.8008,4.7987,4.7987,4.7987,4.7987,4.7987,4.7987,4.7987,4.7987,4.7987,4.814,4.887,4.91,4.9273,5.0059,5.0327,5.0385,5.0385,5.0442,5.0457,5.0207,5.0133,5.0133,5.0133,5.0133,5.0133,5.0133,5.0133,5.0133,5.0133,5.0133,5.0133,5.0133,5.0133,5.0133,5.0133,5.0133,5.0133,5.0133,5.0133,5.0133,5.0133,5.0188,5.0231,5.0231,4.9602,4.9188,4.9111,4.7392,4.6062,4.5262,4.5186,4.5148,4.5148,4.5192,4.5256,4.5317,4.5379,4.54,3.0287,3.1024,3.1742,3.2604,3.4978,3.724,3.7805,3.958,4.1006,4.0777,4.0879,4.0937,4.0743,4.1443,4.2135,4.2505,4.3653,4.4656,4.5006,4.5647,4.6075,4.6066,4.6066,4.6046,4.5986,4.5983,4.596,4.5898,4.5905,4.5905,4.5905,4.5905,4.5893,4.588,4.588,4.5867,4.5866,4.5866,4.5833,0.0,4.5795,4.5781,4.5785,4.607,4.6188,4.6188,4.6191,4.6191,4.6232,4.6891,4.7124,4.7126,4.7761,4.7989,4.7987,4.7987,4.7987,4.7987,4.7987,4.7987,4.7987,4.7987,4.7987,4.8025,4.8198,4.8255,4.8294,4.8487,4.9005,4.9484,4.9484,4.9982,5.05,5.0435,5.0416,5.0416,5.0416,5.0416,5.0416,5.0416,5.0416,5.0416,5.0416,5.0416,5.0416,5.0416,5.0416,5.0416,5.0416,5.0416,5.0416,5.0416,5.0416,5.0416,5.0416,5.0416,5.0457,5.0457,5.0306,4.9884,4.9215,4.7545,4.6546,4.6355,4.5686,4.5341,4.5341,4.5341,4.5361,4.5381,4.5381,4.54,3.1081,3.1747,3.2407,3.3707,3.6278,3.8385,3.7975,3.9555,4.1086,4.1052,4.1039,4.1052,4.1045,4.1731,4.2296,4.2296,4.3369,4.4225,4.4225,4.4945,4.5471,4.5471,4.5851,4.6095,4.6056,4.6047,4.6026,4.5994,4.5994,4.5983,4.5949,4.5949,4.5929,4.5886,4.5905,4.5905,4.5899,4.5899,4.588,4.5854,4.586,4.5847,4.5847,4.5746,4.57,4.57,4.57,4.57,4.5719,4.6166,4.6307,4.6328,4.6737,4.6912,4.6895,4.6895,4.6895,4.6895,4.6895,4.6895,4.6895,4.6895,4.6895,4.6972,4.7395,4.7529,4.7606,4.8029,4.8452,4.876,4.876,4.9394,5.001,5.001,5.0276,5.05,5.05,5.05,5.05,5.05,5.05,5.05,5.05,5.05,5.05,5.05,5.05,5.05,5.05,5.05,5.05,5.05,5.05,5.05,5.05,5.05,5.0521,5.0562,5.0544,5.0374,4.9932,4.8702,4.7607,4.6723,4.6244,4.5822,4.54,4.5438,4.5457,4.5495,4.5494,4.551,3.1916,3.2424,3.2966,3.471,3.6852,3.8374,3.7808,3.9442,4.11,4.11,4.1111,4.1095,4.1103,4.165,4.2084,4.2084,4.2809,4.3386,4.3386,4.4106,4.462,4.4592,4.5235,4.5732,4.5888,4.5888,4.5929,4.6085,4.6105,4.6085,4.6025,4.6014,4.5983,4.5941,4.5941,4.5929,4.5929,4.5917,4.5917,4.5905,4.5905,4.5905,4.5905,4.5786,4.5727,4.5727,4.5727,4.5731,4.5731,4.5715,4.5715,4.5715,4.5715,4.57,4.57,4.57,4.57,4.57,4.57,4.57,4.57,4.57,4.57,4.5835,4.6568,4.678,4.6934,4.7648,4.7976,4.8092,4.8092,4.8673,4.929,4.929,4.9817,5.0371,5.0525,5.0544,5.0544,5.0544,5.0544,5.0544,5.0544,5.0544,5.0544,5.0544,5.0544,5.0544,5.0544,5.0563,5.0563,5.0544,5.0563,5.0563,5.0544,5.0544,5.0584,5.0624,5.0625,5.0663,5.072,5.0081,4.891,4.7223,4.6897,4.6398,4.5687,4.5571,4.5566,4.562,4.5616,4.5648,3.2966,3.3779,3.4764,3.6518,3.7786,3.8743,3.9387,4.0343,4.1104,4.1104,4.1109,4.1091,4.1111,4.1184,4.1262,4.1262,4.1983,4.2568,4.2568,4.3309,4.383,4.3773,4.3858,4.4233,4.4997,4.5021,4.5296,4.6035,4.6093,4.6104,4.6084,4.6084,4.6084,4.6075,4.6076,4.6056,4.5986,4.5983,4.596,4.5905,4.5905,4.5905,4.5905,4.5873,4.5861,4.5861,4.5874,4.588,4.5866,4.581,4.58,4.5781,4.5715,4.57,4.57,4.57,4.57,4.57,4.57,4.57,4.57,4.57,4.57,4.5719,4.5835,4.5873,4.5893,4.6008,4.6587,4.7169,4.7169,4.7805,4.8458,4.8458,4.9061,4.9851,5.0603,5.0757,5.0757,5.0757,5.0757,5.0757,5.0757,5.0757,5.0757,5.0757,5.0757,5.0757,5.0757,5.0758,5.0777,5.0757,5.0758,5.0777,5.0757,5.0757,5.0757,5.0775,5.0775,5.0775,5.0793,5.0677,5.0156,4.9138,4.7692,4.6901,4.6767,4.605,4.5684,4.5684,4.57,4.568,3.291,3.4394,3.5603,3.638,3.7237,3.8096,3.8973,3.9813,4.0555,4.1004,4.1108,4.109,4.1096,4.1091,4.1091,4.1091,4.1427,4.1661,4.1661,4.2422,4.2968,4.2919,4.3362,4.3805,4.4189,4.4202,4.4325,4.4666,4.4705,4.4698,4.4692,4.4712,4.4712,4.4712,4.4703,4.4685,4.4657,4.5094,4.5551,4.6007,4.6007,4.6007,4.6007,4.6007,4.5975,4.5905,4.5893,4.5912,4.5899,4.5874,4.586,4.5841,4.5827,4.5814,4.5814,4.5814,4.5814,4.5814,4.5814,4.5814,4.5814,4.5814,4.5814,4.5814,4.5814,4.5814,4.5814,4.5814,4.6085,4.6375,4.6375,4.7033,4.769,4.769,4.8329,4.903,4.9432,5.0185,5.0793,5.0793,5.0793,5.0793,5.0793,5.0793,5.0793,5.0793,5.0793,5.0793,5.0793,5.0794,5.0795,5.0793,5.0793,5.0829,5.0846,5.0846,5.088,5.0909,5.0909,5.0945,5.0979,5.096,5.0786,5.0399,4.9068,4.8186,4.7735,4.7384,4.6989,4.654,4.6549,4.6278,3.2551,3.4174,3.5347,3.5332,3.5996,3.6874,3.7733,3.8787,3.9803,4.0622,4.097,4.1097,4.1097,4.1109,4.1105,4.1105,4.1105,4.1105,4.1105,4.1651,4.2061,4.2061,4.2641,4.3129,4.3358,4.3378,4.3446,4.3617,4.3637,4.3624,4.3635,4.3627,4.3627,4.3627,4.3619,4.3592,4.3592,4.4206,4.4829,4.5451,4.5451,4.5451,4.5451,4.5451,4.5415,4.5332,4.5747,4.5929,4.591,4.5917,4.5905,4.5905,4.5905,4.5905,4.5905,4.5905,4.5905,4.5905,4.5905,4.5905,4.5905,4.5905,4.5905,4.5905,4.5905,4.5905,4.5905,4.5905,4.5905,4.5905,4.5905,4.637,4.6874,4.6874,4.7534,4.829,4.8735,4.9737,5.061,5.0822,5.088,5.088,5.088,5.088,5.088,5.088,5.088,5.088,5.088,5.0883,5.0866,5.088,5.0893,5.0909,5.0948,5.0948,5.0979,5.102,5.102,5.1053,5.1101,5.1101,5.1101,5.1101,5.0302,4.9502,4.8667,4.8503,4.8125,4.7533,4.7521,4.7185,3.2126,3.2831,3.3534,3.3537,3.4191,3.5056,3.5933,3.7456,3.8902,3.9784,4.0566,4.1093,4.109,4.1099,4.1108,4.1108,4.1108,4.1108,4.1108,4.1147,4.1166,4.1166,4.1214,4.1558,4.2383,4.2461,4.2812,4.3626,4.3685,4.3685,4.3685,4.3685,4.3685,4.3685,4.3637,4.3598,4.3598,4.3639,4.3692,4.3731,4.3731,4.3731,4.3731,4.3731,4.3731,4.38,4.5337,4.5997,4.5997,4.5929,4.5905,4.5905,4.5905,4.5905,4.5905,4.5905,4.5905,4.5905,4.5905,4.5905,4.5905,4.5905,4.5905,4.5905,4.5905,4.5905,4.5905,4.5905,4.5905,4.5905,4.5905,4.5925,4.5963,4.5963,4.6622,4.7727,4.9375,4.9802,5.0098,5.0912,5.1087,5.1087,5.1087,5.1087,5.1087,5.1087,5.1087,5.1087,5.1087,5.1078,5.1078,5.1087,5.1095,5.1095,5.1087,5.1087,5.1087,5.1101,5.1101,5.1101,5.1101,5.1101,5.1101,5.1101,5.105,5.0584,4.9724,4.891,4.8464,4.8425,4.8425,4.8406,3.2092,3.2739,3.3402,3.3409,3.3629,3.4083,3.4966,3.565,3.6333,3.7214,3.7626,3.8176,3.9295,4.0369,4.1101,4.1101,4.1101,4.1101,4.1101,4.1101,4.1099,4.1091,4.1104,4.1218,4.155,4.1566,4.1702,4.2015,4.2034,4.203,4.2032,4.2032,4.2032,4.2032,4.2003,4.227,4.2816,4.2824,4.3111,4.3656,4.3656,4.3656,4.3656,4.3656,4.3656,4.3695,4.4233,4.4748,4.5269,4.5813,4.6027,4.6027,4.6027,4.6027,4.6027,4.6027,4.6027,4.6027,4.6027,4.6027,4.6027,4.6027,4.6027,4.6027,4.6027,4.6027,4.6027,4.6027,4.6027,4.6027,4.6027,4.6027,4.6027,4.6027,4.627,4.6814,4.7999,4.8631,4.922,5.0092,5.0267,5.0441,5.1004,5.1101,5.1101,5.1101,5.1101,5.1101,5.1101,5.1101,5.1101,5.1092,5.1102,5.112,5.1166,5.1171,5.1163,5.1167,5.1167,5.1167,5.1167,5.1167,5.1167,5.1167,5.1159,5.0981,5.0622,5.0355,4.997,4.9468,4.9468,4.9157,3.1655,3.2088,3.2522,3.2533,3.2537,3.2755,3.3626,3.4056,3.4505,3.5383,3.6027,3.6791,3.7956,3.9529,4.0762,4.1054,4.1093,4.1093,4.1093,4.1092,4.111,4.1103,4.1099,4.1097,4.1097,4.1097,4.1097,4.1097,4.1091,0.0,4.1109,4.1105,4.1105,4.1105,4.1105,4.1378,4.1959,4.1954,4.2247,4.2832,4.2832,4.2832,4.2832,4.2832,4.2832,4.2851,4.3095,4.3656,4.4433,4.5029,4.5262,4.5301,4.5574,4.571,4.5729,4.6021,4.6138,4.6138,4.6111,4.6111,4.6111,4.6102,4.6093,4.6093,4.6093,4.6093,4.6093,4.6093,4.6093,4.6093,4.6093,4.6093,4.6093,4.6093,4.6093,4.6249,4.6833,4.7572,4.839,4.9264,4.9419,4.9613,5.0195,5.0545,5.0739,5.0739,5.0952,5.1127,5.1127,5.112,5.1139,5.114,5.1132,5.1159,5.1197,5.12,5.119,5.1211,5.1211,5.1211,5.1211,5.122,5.122,5.122,5.1219,5.121,5.1181,5.119,5.0918,5.0393,5.0393,4.9946,0.0,0.0,0.0,3.0793,3.0798,3.1016,3.1867,3.2728,3.361,3.4449,3.5994,3.7191,3.724,3.859,3.9998,4.091,4.1087,4.1107,4.1107,4.1092,4.1094,4.1094,4.1092,4.1108,4.1108,4.1108,4.1108,4.1107,4.1099,4.1091,4.1111,4.1111,4.1111,4.1111,4.1111,4.1104,4.1109,4.11,4.1096,4.1096,4.1096,4.1096,4.1096,4.1096,4.1096,4.1154,4.1993,4.2807,4.3532,4.3572,4.3604,4.3682,4.454,4.4871,4.4968,4.5806,4.6144,4.6157,4.6103,4.6076,4.6107,4.6111,4.6102,4.6102,4.6102,4.6102,4.6102,4.6102,4.6102,4.6102,4.6102,4.6102,4.6102,4.6102,4.6102,4.6102,4.6102,4.6774,4.763,4.8487,4.8662,4.8681,4.8701,4.9401,4.9965,4.9965,5.0627,5.1133,5.1152,5.1152,5.1162,5.121,5.1201,5.1201,5.1219,5.1201,5.1211,5.1211,5.1211,5.1211,5.1211,5.1278,5.1295,5.1295,5.1296,5.1291,5.1291,5.1228,5.1211,5.1211,5.1211,5.0792,3.073,0.0,0.0,0.0,0.0,0.0,3.1091,3.1792,3.2479,3.2751,3.3691,3.487,3.613,3.6735,3.7734,3.9825,4.0698,4.1097,4.1097,4.1099,4.1103,4.111,4.1092,4.1093,4.1093,4.1093,4.1093,0.0,4.1092,4.109,4.1103,4.1103,4.1103,4.1103,4.1103,4.1099,4.1104,4.1101,4.1101,4.1101,4.1101,4.1101,4.1101,4.1101,4.1101,4.1101,4.1355,4.1589,4.1894,4.3139,4.368,4.3699,4.3933,4.4025,4.407,4.4304,4.4772,4.5253,4.5234,4.5643,4.617,4.6164,4.6164,4.6164,4.6164,4.6164,4.6164,4.6164,4.6164,4.6164,4.6164,4.6164,4.6164,4.6164,4.6164,4.6164,4.6164,4.6359,4.6787,4.7601,4.7767,4.7961,4.8584,4.8895,4.907,4.907,4.9255,4.9623,5.0246,5.0341,5.0575,5.1198,5.1276,5.1281,5.1343,5.1342,5.1335,5.1342,5.1342,5.1342,5.1342,5.1349,5.1375,5.1375,5.1362,5.1369,5.1369,5.1356,5.1342,5.1342,5.1342,5.1232,3.0653,3.0668,3.0664,3.069,0.0,0.0,3.0742,3.1403,3.2013,3.206,3.2747,3.3785,3.5164,3.571,3.667,3.8902,3.9989,4.0684,4.1058,4.1104,4.1094,4.1101,4.1101,4.1101,4.1101,4.1101,4.1103,4.1108,4.1092,4.1093,4.1094,4.1094,4.1094,4.1094,4.1093,4.111,4.1105,4.1101,4.1099,4.1099,4.1099,4.1099,4.1099,4.1099,4.1099,4.1099,4.1099,4.1099,4.1175,4.2201,4.262,4.265,4.3025,4.3162,4.3201,4.3567,4.3997,4.4406,4.4406,4.4738,4.5226,4.5587,4.5699,4.5757,4.6108,4.6206,4.6206,4.6206,4.6206,4.6206,4.6206,4.6206,4.6206,4.6206,4.6206,4.6206,4.6206,4.6206,4.6332,4.6819,4.6902,4.7058,4.7564,4.7954,4.8207,4.8207,4.8514,4.8931,4.9437,4.9815,5.0238,5.0745,5.1128,5.1349,5.1405,5.14,5.1408,5.1408,5.1408,5.1408,5.1394,5.1394,5.1394,5.1394,5.1405,5.1391,5.1391,5.14,5.1394,5.1394,5.1394,5.1394,3.0586,3.0585,3.0602,3.0657,3.0692,0.0,3.0697,3.1365,3.1994,3.1994,3.2681,3.3524,3.4302,3.5087,3.615,3.7795,3.8887,3.9886,4.0955,4.1094,4.1104,4.1104,4.1104,4.1104,4.1104,4.1108,4.1108,4.1108,4.1101,4.1105,4.1105,4.1105,4.1105,4.1105,4.1092,4.1094,4.1094,4.1092,4.111,4.111,4.111,4.111,4.111,4.111,4.111,4.111,4.111,4.111,4.111,4.111,4.1105,4.1189,4.1953,4.2265,4.2343,4.3121,4.3473,4.3551,4.3567,4.3626,4.3837,4.4601,4.4865,4.5002,4.5826,4.608,4.6099,4.6177,4.6216,4.6216,4.6216,4.6216,4.6216,4.6216,4.6216,4.6216,4.6216,4.6216,4.6216,4.6216,4.6211,4.6206,4.6206,4.683,4.7357,4.7357,4.802,4.8547,4.8644,4.9352,4.9884,5.0084,5.079,5.1297,5.1391,5.1391,5.1405,5.1408,5.1408,5.1394,5.1405,5.1405,5.1405,5.1405,5.1406,5.1398,5.1398,5.1391,5.14,5.14,5.14,5.14,3.05,3.052,3.0521,3.054,3.0577,0.0,3.0621,3.1297,3.1914,3.1918,3.2606,3.3301,3.3511,3.3693,3.4147,3.5197,3.6677,3.8507,4.0774,4.1096,4.11,4.11,4.11,4.11,4.11,4.109,4.1101,4.1108,4.1091,4.1094,4.1094,4.1094,4.1094,4.1094,4.1097,4.1101,4.111,4.1091,4.1091,4.1091,4.1091,4.1091,4.1091,4.1091,4.1091,4.1091,4.1091,4.1091,4.1091,4.1091,4.1094,4.1125,4.1281,4.1359,4.1379,4.1535,4.2043,4.2648,4.2648,4.3115,4.3739,4.3894,4.395,4.4106,4.4967,4.5221,4.5377,4.608,4.6276,4.6276,4.6276,4.6276,4.6276,4.6276,4.6276,4.6276,4.6276,4.6276,4.6276,4.6276,4.6234,4.6206,4.6206,4.6343,4.644,4.644,4.6635,4.7025,4.7674,4.7942,4.8599,4.9965,5.0254,5.0644,5.1332,5.141,5.141,5.1406,5.1402,5.1408,5.1391,5.1391,5.1391,5.1391,5.1394,5.1394,5.1394,5.1398,5.1406,5.1406,5.1406,5.1406,3.0394,3.0417,3.0458,3.0449,3.0481,0.0,0.0,3.1226,3.1854,3.1881,3.2238,3.2682,3.3161,3.2897,3.3021,3.4345,3.6005,3.7759,3.952,4.0499,4.1056,4.1056,4.1086,4.1091,4.1091,4.11,4.1105,4.1094,4.1094,4.1094,4.1094,4.1094,4.1097,4.1101,4.1108,4.1094,4.1099,4.1099,4.1099,4.1099,4.1091,4.1108,4.1108,4.1108,4.1108,4.1108,4.1108,4.1108,4.1108,4.1108,4.1097,4.1107,4.1093,4.1094,4.1094,4.1094,4.1387,4.1758,4.1758,4.2031,4.2461,4.291,4.3047,4.3203,4.4082,4.4668,4.5176,4.6055,4.6308,4.6308,4.6308,4.6308,4.6308,4.6308,4.6308,4.6308,4.6308,4.6308,4.6308,4.6308,4.6268,4.6258,4.6245,4.6241,4.6241,4.6241,4.628,4.6456,4.6846,4.7305,4.7913,4.8753,4.9602,5.0289,5.0713,5.1144,5.1398,5.1398,5.1402,5.1405,5.1406,5.1406,5.1406,5.1406,5.1406,5.1406,5.1406,5.1405,5.14,5.1408,5.1396,5.1398,3.0279,3.0311,3.0367,3.0352,3.0364,3.0386,0.0,0.0,0.0,3.1603,3.1613,3.1845,3.255,3.2104,3.2094,3.3525,3.52,3.6576,3.73,3.8902,0.0,4.0922,4.1045,4.1075,4.1075,4.0788,4.0604,4.0608,4.0608,4.0608,4.0608,4.092,4.11,4.1109,4.1097,4.1104,4.1104,4.1104,4.1104,4.1104,4.1105,4.1091,4.1091,4.1091,4.1091,4.1091,4.1091,4.1091,4.1091,4.1091,4.1091,4.1096,4.1091,4.1101,4.1101,4.1101,4.1101,4.1101,4.1103,4.1105,4.1222,4.1925,4.2257,4.2531,4.3234,4.4171,4.5145,4.5848,4.6163,4.63,4.63,4.63,4.63,4.63,4.63,4.63,4.63,4.63,4.63,4.63,4.63,4.6305,4.6307,4.6306,4.6306,4.6306,4.6306,4.6306,4.6306,4.6911,4.7419,4.7575,4.8819,4.9758,5.0078,5.0741,5.1229,5.1386,5.1405,5.1403,5.1396,5.1394,5.1394,5.1394,5.1391,5.1391,5.1391,5.1391,5.1402,5.1403,5.1406,5.1406,3.0199,3.0226,3.0234,3.0215,3.0267,3.0316,3.0328,0.0,3.0563,3.0574,0.0,3.0693,3.0801,0.0,0.0,3.1011,3.2453,3.3606,3.3768,3.5297,3.7533,4.0626,4.1003,4.1011,4.1011,3.9676,3.8809,3.8794,3.8794,3.8794,3.8794,4.0257,4.1096,4.1096,4.1096,4.11,4.11,4.11,4.11,4.1096,4.1096,4.1091,4.1091,4.1091,4.1091,4.1091,4.1091,4.1091,4.1091,4.1091,4.1091,4.1096,4.11,4.11,4.11,4.11,4.11,4.1105,4.1104,4.1091,4.1111,4.1228,4.1777,4.2422,4.2519,4.3707,4.5015,4.5112,4.5698,4.6303,4.6303,4.6303,4.6303,4.6303,4.6303,4.6303,4.6303,4.6303,4.6303,4.6303,4.6303,4.6309,4.6303,4.6305,4.6305,4.6305,4.6305,4.6305,4.6305,4.6383,4.6734,4.7515,4.777,4.8492,4.9975,5.0198,5.0582,5.1343,5.1402,5.1402,5.1398,5.1398,5.1398,5.1398,5.1396,5.1405,5.1405,5.1405,5.139,5.1402,5.14,5.1394,3.0083,3.0113,3.0142,0.0,0.0,0.0,3.0228,0.0,3.0292,0.0,0.0,0.0,0.0,0.0,0.0,0.0,3.1951,3.3103,3.3132,3.4643,3.629,3.7797,0.0,0.0,3.8045,3.7397,3.6982,3.6999,3.7896,3.8435,3.8435,4.0091,4.1046,4.1039,4.1039,4.1045,4.1031,4.1031,4.1031,4.1031,4.1045,4.1039,4.1039,4.1046,4.1039,4.1039,4.1039,4.1039,4.1039,4.1039,4.1039,4.1039,4.1039,4.1064,4.1091,4.1091,4.1091,4.1096,4.1105,4.109,4.109,4.109,4.1343,4.1737,4.2245,4.2908,4.3684,4.4664,4.5211,4.5601,4.6108,4.6245,4.6245,4.6245,4.6245,4.6245,4.6245,4.6245,4.6245,4.6245,4.6245,4.6245,4.6234,4.6264,4.629,4.629,4.629,4.629,4.629,4.629,4.6443,4.6804,4.7292,4.8072,4.9254,4.9816,5.0474,5.1342,5.1401,5.1396,5.1391,5.1391,5.1391,5.1391,5.14,5.1394,5.1394,5.1394,5.1405,5.141,5.1406,5.1396,3.1326,0.0,0.0,0.0,0.0,0.0,0.0,0.0,0.0,0.0,3.0254,0.0,0.0,0.0,0.0,0.0,0.0,3.2353,3.2353,3.3448,3.4622,3.5659,3.5779,0.0,0.0,3.5437,3.5171,3.5185,3.6735,3.7493,3.7033,3.9536,4.0789,4.0298,4.0746,4.1006,4.0993,4.0993,4.0993,4.0993,4.1006,4.0999,4.0999,4.1003,4.0996,4.0996,4.0988,4.0968,4.0968,4.096,4.098,4.098,4.098,4.0999,4.1045,4.107,4.107,4.107,4.1075,4.1061,4.1061,4.1061,4.1061,4.1178,4.1827,4.2178,4.2627,4.3841,4.4523,4.5055,4.5679,4.6011,4.6206,4.6206,4.6206,4.6206,4.6206,4.6206,4.6206,4.6206,4.6206,4.6206,4.6206,4.624,4.6273,4.6273,4.6273,4.6273,4.6273,4.6273,4.6269,4.627,4.6835,4.7552,4.8379,4.9243,5.0224,5.1327,5.1405,5.14,5.1362,5.1369,5.1369,5.1362,5.1375,5.1375,5.1375,5.1349,5.1349,5.1349,5.1375,5.1401,0.0,0.0,0.0,3.224,0.0,0.0,0.0,0.0,3.0109,0.0,0.0,0.0,0.0,0.0,0.0,0.0,0.0,0.0,0.0,3.0529,3.1841,3.5281,3.5708,3.5736,0.0,3.4279,3.3305,3.3388,3.4943,3.5184,3.3544,3.8252,4.0237,3.8532,4.012,4.0996,4.0996,4.0996,4.0996,4.0996,4.0996,4.0996,4.0996,4.0996,4.0996,4.0996,4.0932,4.0913,4.0904,4.0897,4.0907,4.0907,4.0907,4.0906,4.0913,4.0976,4.0996,4.1003,4.1006,4.1,4.0994,4.0994,4.0994,4.1013,4.1033,4.1637,4.2305,4.2376,4.359,4.4902,4.4938,4.5562,4.6206,4.6206,4.6206,4.6206,4.6206,4.6206,4.6206,4.6206,4.6206,4.6206,4.6206,4.6206,4.6206,4.6206,4.6206,4.6206,4.6206,4.6206,4.6206,4.6206,4.6226,4.6596,4.7474,4.8332,4.9561,5.1288,5.14,5.1362,5.13,5.1303,5.1303,5.13,5.1304,5.1295,5.1295,5.1249,5.1211,5.122,5.1342,5.1394,0.0,0.0,3.2164,3.2203,0.0,0.0,0.0,0.0,0.0,0.0,0.0,0.0,0.0,0.0,0.0,0.0,0.0,0.0,0.0,3.0323,3.0787,3.1989,3.2201,3.228,3.2289,3.1794,3.1482,3.1499,3.3106,3.4318,3.4861,3.7637,3.9452,3.9966,4.0548,4.0859,4.0859,4.0859,4.0859,4.0859,4.0859,4.0859,4.0859,4.0859,4.0859,4.0859,4.084,4.0829,4.0829,4.0819,4.0839,4.0839,4.0839,4.0819,4.084,4.0915,4.0968,4.0996,4.1003,4.0991,4.0991,4.0991,4.0991,4.0991,4.0991,4.1213,4.1563,4.2135,4.3148,4.4168,4.4694,4.548,4.6123,4.6123,4.6123,4.6123,4.6123,4.6123,4.6123,4.6123,4.6123,4.6123,4.6123,4.6123,4.615,4.6189,4.6203,4.6196,4.6196,4.6196,4.617,4.6144,4.6137,4.6488,4.7369,4.8752,5.0077,5.1206,5.1265,5.1248,5.1239,5.123,5.123,5.1239,5.123,5.122,5.122,5.1211,5.1211,5.1211,5.1248,5.1276,3.6155,3.5011,0.0,3.3845,3.2629,0.0,3.1506,0.0,3.1845,0.0,0.0,0.0,0.0,0.0,0.0,0.0,0.0,0.0,0.0,3.0188,3.0241,3.0254,3.0383,3.046,3.0452,3.0492,3.053,3.0568,3.2183,3.3374,3.3819,3.6096,3.7588,3.8053,3.8653,3.9273,3.9874,3.9893,4.0173,4.0754,4.0754,4.0754,4.0754,4.0754,4.0754,4.0754,4.0761,4.0761,4.0761,4.075,4.0718,4.0718,4.0718,4.073,4.0773,4.084,4.0897,4.0926,4.0926,4.0926,4.0926,4.0926,4.0926,4.0926,4.0926,4.0926,4.1042,4.1634,4.2421,4.3276,4.4121,4.4958,4.5677,4.5988,4.6047,4.6047,4.6047,4.6047,4.6047,4.6047,4.6047,4.6047,4.6047,4.6066,4.6084,4.615,4.6169,4.6154,4.6154,4.6154,4.6154,4.6099,4.6099,4.6578,4.7738,4.8866,4.9975,5.1083,5.1161,5.1169,5.1156,5.1147,5.1159,5.1167,5.1159,5.1159,5.1167,5.1167,5.1167,5.1167,5.1167,5.1167]},{"header":{"parameterUnit":"m.s-1","parameterCategory":1,"la1":30.6,"la2":29.2853,"lo1":-89.7004,"lo2":-87.6739,"dy":0.0162,"dx":0.0183,"nx":112,"ny":82,"refTime":"2023-08-20T18:00:00:Z","depth":0,"parameterNumber":3,"parameterNumberName":"V-component_of_WINDS"},"data":[0.0,0.0,0.0,0.0,0.0,0.0,0.0,0.0,0.0,0.0,0.0,0.0,0.0,0.0,0.0,0.0,0.0,0.0,0.0,0.0,0.0,0.0,0.0,0.0,0.0,0.0,0.0,0.0,0.0,0.0,0.0,0.0,0.0,0.0,0.0,0.0,0.0,0.0,0.0,0.0,0.0,0.0,0.0,0.0,0.0,0.0,0.0,0.0,0.0,0.0,0.0,0.0,0.0,0.0,0.0,0.0,0.0,0.0,0.0,0.0,0.0,0.0,0.0,0.0,0.0,0.0,0.0,0.0,0.0,0.0,0.0,0.0,0.0,0.0,0.0,0.0,0.0,0.0,0.0,0.0,0.0,0.0,0.0,0.0,0.0,0.0,0.0,0.0,0.0,0.0,-0.8975,-0.8975,-0.8984,-0.8943,-0.8871,-0.883,-0.8741,-0.8521,0.0,0.0,0.0,0.0,0.0,0.0,0.0,0.0,0.0,0.0,0.0,0.0,0.0,0.0,0.0,0.0,0.0,0.0,0.0,0.0,0.0,0.0,0.0,0.0,0.0,0.0,0.0,0.0,0.0,0.0,0.0,0.0,0.0,0.0,0.0,0.0,0.0,0.0,0.0,0.0,0.0,0.0,0.0,0.0,0.0,0.0,0.0,0.0,0.0,0.0,0.0,0.0,0.0,0.0,0.0,0.0,0.0,0.0,0.0,0.0,0.0,0.0,0.0,0.0,0.0,0.0,0.0,0.0,0.0,0.0,0.0,0.0,0.0,0.0,0.0,0.0,0.0,0.0,0.0,0.0,0.0,0.0,0.0,0.0,0.0,0.0,0.0,0.0,0.0,0.0,0.0,0.0,0.0,0.0,0.0,0.0,0.0,0.0,0.0,0.0,0.0,0.0,0.0,0.0,-0.8984,-0.8911,-0.8911,-0.8862,-0.8724,-0.8643,-0.8561,-0.8521,0.0,0.0,0.0,0.0,0.0,0.0,0.0,0.0,0.0,0.0,0.0,0.0,0.0,0.0,0.0,0.0,0.0,0.0,0.0,0.0,0.0,0.0,0.0,0.0,0.0,0.0,0.0,0.0,0.0,0.0,0.0,0.0,0.0,0.0,0.0,0.0,0.0,0.0,0.0,0.0,0.0,0.0,0.0,0.0,0.0,0.0,0.0,0.0,0.0,0.0,0.0,0.0,0.0,0.0,0.0,0.0,0.0,0.0,0.0,0.0,0.0,0.0,0.0,0.0,0.0,0.0,0.0,0.0,0.0,0.0,0.0,0.0,0.0,0.0,0.0,0.0,0.0,0.0,0.0,0.0,0.0,0.0,0.0,0.0,0.0,0.0,0.0,0.0,0.0,0.0,0.0,0.0,0.0,0.0,0.0,0.0,0.0,0.0,0.0,0.0,0.0,0.0,0.0,-0.8943,-0.8903,-0.8822,-0.8773,-0.8732,-0.8602,-0.8521,-0.848,-0.8447,-0.8447,0.0,0.0,0.0,0.0,0.0,0.0,0.0,0.0,0.0,0.0,0.0,0.0,0.0,0.0,0.0,0.0,0.0,0.0,0.0,0.0,0.0,0.0,0.0,0.0,0.0,0.0,0.0,0.0,0.0,0.0,0.0,0.0,0.0,0.0,0.0,0.0,0.0,0.0,0.0,0.0,0.0,0.0,0.0,0.0,0.0,0.0,0.0,0.0,0.0,0.0,0.0,0.0,0.0,0.0,0.0,0.0,0.0,0.0,0.0,0.0,0.0,0.0,0.0,0.0,0.0,0.0,0.0,0.0,0.0,0.0,0.0,0.0,0.0,0.0,0.0,0.0,0.0,0.0,0.0,0.0,0.0,0.0,0.0,0.0,0.0,0.0,0.0,0.0,0.0,0.0,0.0,0.0,0.0,0.0,0.0,0.0,0.0,0.0,0.0,0.0,0.0,0.0,-0.8871,-0.8781,-0.8683,-0.8635,-0.8602,-0.848,-0.848,-0.8447,-0.8414,-0.8414,0.0,0.0,0.0,0.0,0.0,0.0,0.0,0.0,0.0,0.0,0.0,0.0,0.0,0.0,0.0,0.0,0.0,0.0,0.0,0.0,0.0,0.0,0.0,0.0,0.0,0.0,0.0,0.0,0.0,0.0,0.0,0.0,0.0,0.0,0.0,0.0,0.0,0.0,0.0,0.0,0.0,0.0,0.0,0.0,0.0,0.0,0.0,0.0,0.0,0.0,0.0,0.0,0.0,0.0,0.0,0.0,0.0,0.0,0.0,0.0,0.0,0.0,0.0,0.0,0.0,0.0,0.0,0.0,0.0,0.0,0.0,0.0,0.0,0.0,0.0,0.0,0.0,0.0,0.0,0.0,0.0,0.0,0.0,0.0,0.0,0.0,0.0,0.0,0.0,0.0,0.0,0.0,0.0,0.0,0.0,0.0,0.0,0.0,0.0,0.0,0.0,0.0,-0.8724,-0.8675,-0.8521,-0.8521,-0.848,-0.8414,-0.8414,-0.8414,-0.8414,-0.8414,0.0,0.0,0.0,0.0,0.0,0.0,0.0,0.0,0.0,0.0,0.0,0.0,0.0,0.0,0.0,0.0,0.0,0.0,0.0,0.0,0.0,0.0,0.0,0.0,0.0,0.0,0.0,0.0,0.0,0.0,0.0,0.0,0.0,0.0,0.0,0.0,0.0,0.0,0.0,0.0,0.0,0.0,0.0,0.0,0.0,0.0,0.0,0.0,0.0,0.0,0.0,0.0,0.0,0.0,0.0,0.0,0.0,0.0,0.0,0.0,0.0,0.0,0.0,0.0,0.0,0.0,0.0,0.0,0.0,0.0,0.0,0.0,0.0,0.0,0.0,0.0,0.0,0.0,0.0,0.0,0.0,0.0,0.0,0.0,0.0,0.0,0.0,0.0,0.0,0.0,0.0,0.0,0.0,0.0,0.0,0.0,0.0,0.0,0.0,0.0,0.0,0.0,-0.8553,-0.8521,-0.8447,-0.8447,-0.8406,-0.8414,-0.8414,-0.8414,-0.8414,0.0,0.0,0.0,0.0,0.0,0.0,0.0,0.0,0.0,0.0,0.0,0.0,0.0,0.0,0.0,0.0,0.0,0.0,0.0,0.0,0.0,0.0,0.0,0.0,0.0,0.0,0.0,0.0,0.0,0.0,0.0,0.0,0.0,0.0,0.0,0.0,0.0,0.0,0.0,0.0,0.0,0.0,0.0,0.0,0.0,0.0,0.0,0.0,0.0,0.0,0.0,0.0,0.0,0.0,0.0,0.0,0.0,0.0,0.0,0.0,0.0,0.0,0.0,0.0,0.0,0.0,0.0,0.0,0.0,0.0,0.0,0.0,0.0,0.0,0.0,0.0,0.0,0.0,0.0,0.0,0.0,0.0,0.0,0.0,0.0,0.0,0.0,0.0,0.0,0.0,0.0,0.0,0.0,0.0,0.0,0.0,0.0,0.0,0.0,0.0,0.0,0.0,-0.8488,-0.848,-0.8447,-0.8414,-0.8414,-0.8414,-0.8414,-0.8414,-0.8414,-0.8414,0.0,0.0,0.0,0.0,0.0,0.0,0.0,0.0,0.0,0.0,0.0,0.0,0.0,0.0,0.0,0.0,0.0,0.0,0.0,0.0,0.0,0.0,0.0,0.0,0.0,0.0,0.0,0.0,0.0,0.0,0.0,0.0,0.0,0.0,0.0,0.0,0.0,0.0,0.0,0.0,0.0,0.0,0.0,0.0,0.0,0.0,0.0,0.0,0.0,0.0,0.0,0.0,0.0,0.0,0.0,0.0,0.0,0.0,0.0,0.0,0.0,0.0,0.0,0.0,0.0,0.0,0.0,0.0,0.0,0.0,0.0,0.0,0.0,0.0,0.0,0.0,0.0,0.0,0.0,0.0,0.0,0.0,0.0,0.0,0.0,0.0,0.0,0.0,0.0,0.0,0.0,0.0,0.0,0.0,0.0,0.0,0.0,0.0,0.0,0.0,0.0,0.0,-0.8414,-0.8414,-0.8414,-0.8414,-0.8414,-0.8414,-0.8414,-0.8414,-0.8414,0.0,0.0,0.0,0.0,0.0,0.0,0.0,0.0,0.0,0.0,0.0,0.0,0.0,0.0,0.0,0.0,0.0,0.0,0.0,0.0,0.0,0.0,0.0,0.0,0.0,0.0,0.0,0.0,0.0,0.0,0.0,0.0,0.0,0.0,0.0,0.0,0.0,0.0,0.0,0.0,0.0,0.0,0.0,0.0,0.0,0.0,0.0,0.0,0.0,0.0,0.0,0.0,0.0,0.0,0.0,0.0,0.0,0.0,0.0,0.0,0.0,0.0,0.0,0.0,0.0,0.0,0.0,0.0,0.0,0.0,0.0,0.0,0.0,0.0,0.0,0.0,0.0,0.0,0.0,0.0,0.0,0.0,0.0,0.0,0.0,0.0,0.0,0.0,0.0,0.0,0.0,0.0,0.0,0.0,0.0,0.0,0.0,0.0,0.0,0.0,0.0,0.0,0.0,-0.8414,-0.8414,-0.8414,-0.8414,-0.8414,-0.8414,-0.8414,-0.8414,-0.8414,-0.8414,0.0,0.0,0.0,0.0,0.0,0.0,0.0,0.0,0.0,0.0,0.0,0.0,0.0,0.0,0.0,0.0,0.0,0.0,0.0,0.0,0.0,0.0,0.0,0.0,0.0,0.0,0.0,0.0,0.0,0.0,0.0,0.0,0.0,0.0,0.0,0.0,0.0,0.0,0.0,0.0,0.0,0.0,0.0,0.0,0.0,0.0,0.0,0.0,0.0,0.0,0.0,0.0,0.0,0.0,0.0,0.0,0.0,0.0,0.0,0.0,0.0,0.0,0.0,0.0,0.0,0.0,0.0,0.0,0.0,0.0,0.0,0.0,0.0,0.0,0.0,0.0,0.0,0.0,0.0,0.0,0.0,0.0,0.0,0.0,0.0,0.0,0.0,0.0,0.0,0.0,0.0,0.0,0.0,0.0,0.0,0.0,0.0,0.0,0.0,0.0,0.0,0.0,-0.8414,-0.8414,-0.8414,-0.8414,-0.8414,-0.8414,-0.8414,-0.8414,-0.8414,-0.8414,0.0,0.0,0.0,0.0,0.0,0.0,0.0,0.0,0.0,0.0,0.0,0.0,0.0,0.0,0.0,0.0,0.0,0.0,0.0,0.0,0.0,0.0,0.0,0.0,0.0,0.0,0.0,0.0,0.0,0.0,0.0,0.0,0.0,0.0,0.0,0.0,0.0,0.0,0.0,0.0,0.0,0.0,0.0,0.0,0.0,0.0,0.0,0.0,0.0,0.0,0.0,0.0,0.0,0.0,0.0,0.0,0.0,0.0,0.0,0.0,0.0,0.0,0.0,0.0,0.0,0.0,0.0,0.0,0.0,0.0,0.0,0.0,0.0,0.0,0.0,0.0,0.0,0.0,0.0,0.0,0.0,0.0,0.0,0.0,0.0,0.0,0.0,0.0,0.0,0.0,0.0,0.0,0.0,0.0,0.0,0.0,0.0,0.0,0.0,0.0,0.0,0.0,-0.8414,-0.8414,-0.8414,-0.8414,-0.8414,-0.8414,-0.8414,-0.8414,-0.8414,-0.8414,0.0,0.0,0.0,0.0,0.0,0.0,0.0,0.0,0.0,0.0,0.0,0.0,0.0,0.0,0.0,0.0,0.0,0.0,0.0,0.0,0.0,0.0,0.0,0.0,0.0,0.0,0.0,0.0,0.0,0.0,0.0,0.0,0.0,0.0,0.0,0.0,0.0,0.0,0.0,0.0,0.0,0.0,0.0,0.0,0.0,0.0,0.0,0.0,0.0,0.0,0.0,0.0,0.0,0.0,0.0,0.0,0.0,0.0,0.0,0.0,-1.0327,0.0,0.0,0.0,0.0,0.0,0.0,0.0,0.0,0.0,0.0,0.0,0.0,0.0,0.0,0.0,0.0,0.0,0.0,0.0,0.0,0.0,0.0,0.0,0.0,0.0,0.0,0.0,0.0,0.0,0.0,0.0,0.0,0.0,0.0,0.0,0.0,0.0,0.0,0.0,0.0,0.0,-0.8414,-0.8414,-0.8414,-0.8414,-0.8414,-0.8414,-0.8414,-0.8414,-0.8414,-0.8414,-0.8414,0.0,0.0,0.0,0.0,0.0,0.0,0.0,0.0,0.0,0.0,0.0,0.0,0.0,0.0,0.0,0.0,0.0,0.0,0.0,0.0,0.0,0.0,0.0,0.0,0.0,0.0,0.0,0.0,0.0,0.0,0.0,0.0,0.0,0.0,0.0,0.0,0.0,0.0,0.0,0.0,0.0,0.0,0.0,0.0,0.0,0.0,0.0,0.0,0.0,0.0,0.0,0.0,0.0,0.0,0.0,0.0,0.0,0.0,0.0,0.0,-1.0375,0.0,0.0,0.0,0.0,0.0,0.0,0.0,0.0,0.0,0.0,0.0,0.0,0.0,0.0,0.0,0.0,0.0,0.0,0.0,0.0,0.0,0.0,0.0,0.0,0.0,0.0,0.0,0.0,0.0,0.0,0.0,0.0,0.0,0.0,0.0,0.0,0.0,0.0,0.0,0.0,-0.8414,-0.8414,-0.8414,-0.8414,-0.8414,-0.8414,-0.8414,-0.8414,-0.8414,-0.8414,-0.8414,0.0,0.0,0.0,0.0,0.0,0.0,0.0,0.0,0.0,0.0,0.0,0.0,0.0,0.0,0.0,0.0,0.0,0.0,0.0,0.0,0.0,0.0,0.0,0.0,0.0,0.0,0.0,0.0,0.0,0.0,0.0,0.0,0.0,0.0,0.0,0.0,0.0,0.0,0.0,0.0,0.0,0.0,0.0,0.0,0.0,0.0,0.0,0.0,0.0,0.0,0.0,0.0,0.0,-1.2599,-1.2805,-1.2805,-1.2805,-1.3082,-1.3467,-1.1817,-1.1415,-1.1816,-1.0934,0.0,0.0,0.0,0.0,0.0,0.0,0.0,0.0,0.0,0.0,0.0,0.0,0.0,0.0,0.0,0.0,0.0,0.0,0.0,0.0,0.0,0.0,0.0,0.0,-0.9492,-0.9445,0.0,0.0,0.0,0.0,0.0,0.0,0.0,0.0,0.0,0.0,0.0,0.0,-0.8414,-0.8414,-0.8414,-0.8414,-0.8414,-0.8414,-0.8414,-0.8414,-0.8414,-0.8414,-0.8414,-0.8414,0.0,0.0,0.0,0.0,0.0,0.0,0.0,0.0,0.0,0.0,0.0,0.0,0.0,0.0,0.0,0.0,0.0,0.0,0.0,0.0,0.0,0.0,0.0,0.0,0.0,0.0,0.0,0.0,0.0,0.0,0.0,0.0,-1.101,-1.0462,0.0,0.0,0.0,0.0,0.0,0.0,0.0,0.0,0.0,0.0,0.0,0.0,0.0,-1.2909,-1.3243,-1.333,-1.3378,-1.3378,-1.3425,-1.3589,-1.372,-1.372,-1.3884,-1.4057,-1.3809,0.0,-1.3285,-1.3145,0.0,0.0,0.0,0.0,0.0,0.0,0.0,0.0,0.0,0.0,0.0,0.0,0.0,0.0,0.0,0.0,0.0,0.0,0.0,0.0,0.0,0.0,-1.116,-1.1169,-1.0777,-1.0348,0.0,-0.9702,-0.9263,-0.9263,-0.9263,0.0,0.0,0.0,0.0,0.0,0.0,0.0,-0.8414,-0.8414,-0.8414,-0.8414,-0.8414,-0.8414,-0.8414,-0.8414,-0.8414,-0.8414,-0.8414,-0.8414,-0.8414,-0.8414,0.0,0.0,0.0,0.0,0.0,0.0,0.0,0.0,0.0,0.0,0.0,0.0,0.0,0.0,0.0,0.0,0.0,0.0,0.0,0.0,0.0,0.0,0.0,0.0,0.0,0.0,0.0,0.0,0.0,-1.0701,-1.1098,-1.0804,-1.1066,-1.1003,0.0,0.0,0.0,0.0,0.0,0.0,0.0,0.0,0.0,-1.3068,-1.3267,-1.3529,-1.3878,-1.4077,-1.425,-1.4319,-1.4319,-1.4458,-1.4665,-1.4665,-1.4734,-1.4957,-1.4957,-1.4865,-1.4799,-1.3963,-1.3289,-1.287,0.0,0.0,0.0,0.0,-1.1739,-1.1989,-1.2497,-1.2814,0.0,-1.3116,0.0,0.0,0.0,0.0,0.0,0.0,0.0,0.0,0.0,0.0,-1.1765,-1.1808,-1.1712,-1.1703,-1.1705,-1.1116,-1.0343,0.0,-0.9398,-0.935,-0.9207,0.0,0.0,0.0,0.0,-0.8945,-0.8945,-0.8945,-0.8945,-0.8945,-0.8778,-0.8667,-0.8667,-0.8492,-0.8414,-0.8414,-0.8414,-0.8414,-0.8414,-0.8414,-0.8414,0.0,0.0,0.0,0.0,0.0,0.0,0.0,0.0,0.0,0.0,0.0,0.0,0.0,0.0,0.0,0.0,0.0,0.0,0.0,0.0,0.0,0.0,0.0,0.0,0.0,0.0,0.0,0.0,-1.1066,-1.14,-1.14,-1.1694,-1.1702,0.0,0.0,0.0,0.0,0.0,0.0,-1.3076,-1.2925,-1.3076,-1.3608,-1.3862,-1.4156,-1.4514,-1.4776,-1.5057,-1.5211,-1.5203,-1.5348,-1.5549,-1.5549,-1.5702,-1.5855,-1.5855,-1.5935,-1.6002,-1.4689,-1.4022,-1.3861,-1.3325,-1.2998,-1.2814,-1.2789,-1.2941,-1.3183,-1.3626,-1.3961,-1.418,-1.4455,-1.4297,-1.3957,-1.3393,0.0,0.0,0.0,0.0,-1.1736,-1.211,-1.2425,-1.2687,-1.2687,-1.2773,-1.283,-1.2883,-1.2282,-1.1422,0.0,-0.9787,-0.9644,-0.9549,0.0,0.0,0.0,0.0,-0.9398,-0.9398,-0.9398,-0.9398,-0.9398,-0.9175,-0.9032,-0.9032,-0.8786,-0.8635,-0.8635,-0.8635,-0.8635,-0.8635,-0.8635,-0.8635,-0.8635,0.0,0.0,0.0,0.0,0.0,0.0,0.0,0.0,0.0,0.0,0.0,0.0,0.0,0.0,0.0,0.0,0.0,0.0,0.0,0.0,0.0,0.0,0.0,0.0,0.0,0.0,0.0,0.0,0.0,-1.2541,-1.2798,0.0,0.0,0.0,0.0,-1.3425,-1.2909,-1.3139,-1.4466,-1.3894,-1.4005,-1.5046,-1.5094,-1.5261,-1.5594,-1.5855,-1.594,-1.594,-1.616,-1.6304,-1.6539,-1.6539,-1.6623,-1.6867,-1.6867,-1.6867,-1.6798,-1.6028,-1.53,-1.4649,-1.4615,-1.4144,-1.3571,-1.4298,-1.4581,-1.4701,-1.5437,-1.5703,-1.5649,-1.5517,-1.4588,-1.3595,-1.3625,-1.2854,0.0,0.0,-1.3137,-1.3444,-1.4085,-1.4383,-1.4435,-1.4435,-1.3997,-1.3571,-1.3529,-1.3036,-1.231,0.0,-1.086,-1.0303,-0.9954,0.0,-0.9779,-0.9445,-0.9398,-0.9398,-0.9398,-0.9398,-0.9398,-0.9398,-0.9382,-0.9366,-0.9366,-0.9358,-0.9342,-0.9342,-0.9342,-0.9342,-0.9342,-0.9342,-0.9342,-0.9342,-0.9342,0.0,0.0,0.0,0.0,0.0,0.0,0.0,0.0,0.0,0.0,0.0,0.0,0.0,0.0,0.0,0.0,0.0,0.0,0.0,0.0,0.0,0.0,0.0,0.0,0.0,0.0,0.0,0.0,-1.2653,-1.2877,0.0,-1.2774,-1.3243,-1.3656,-1.3902,-1.4323,-1.4784,-1.5276,-1.507,-1.511,-1.5491,-1.5499,-1.5639,-1.5912,-1.5996,-1.6149,-1.6378,-1.6446,-1.6598,-1.6767,-1.6767,-1.6843,-1.6918,-1.6918,-1.6918,-1.6901,-1.6636,-1.6362,-1.6122,-1.6122,-1.5951,-1.5737,-1.6019,-1.6122,-1.6165,-1.643,-1.6524,-1.6516,-1.6442,-1.6096,-1.5652,-1.5399,-1.5044,-1.4723,-1.4932,-1.496,-1.5026,-1.5511,-1.5585,-1.5466,-1.5466,-1.5025,-1.466,-1.4641,-1.3926,-1.3203,-1.2924,-1.2282,-1.1831,-1.1646,-1.1241,-1.0891,-1.0764,-1.0367,-1.013,-1.013,-1.013,-1.013,-1.013,-0.9874,-0.9731,-0.9731,-0.9525,-0.9398,-0.9398,-0.9398,-0.9398,-0.9398,-0.9398,-0.9398,-0.9398,-0.9398,-0.9398,0.0,0.0,0.0,0.0,0.0,0.0,0.0,0.0,0.0,0.0,0.0,0.0,0.0,0.0,0.0,0.0,0.0,0.0,0.0,0.0,0.0,0.0,0.0,0.0,0.0,-1.2528,-1.3211,-1.31,-1.3505,-1.3751,-1.3691,-1.4236,-1.4641,-1.4641,-1.5284,-1.5674,-1.5674,-1.5674,-1.5729,-1.5856,-1.5856,-1.599,-1.6353,-1.6431,-1.6665,-1.6968,-1.7046,-1.7132,-1.7295,-1.7295,-1.7295,-1.7295,-1.7295,-1.7295,-1.7295,-1.7295,-1.7295,-1.7269,-1.7021,-1.6918,-1.6918,-1.6918,-1.6918,-1.6918,-1.6918,-1.6918,-1.6918,-1.6918,-1.6918,-1.6867,-1.661,-1.6459,-1.6385,-1.6402,-1.6253,-1.6146,-1.638,-1.6209,-1.6065,-1.6065,-1.5814,-1.5487,-1.5458,-1.4848,-1.4287,-1.4337,-1.3354,-1.2621,-1.2621,-1.217,-1.1853,-1.1853,-1.1257,-1.0812,-1.0812,-1.0665,-1.0522,-1.0522,-1.0248,-1.0105,-1.0105,-0.989,-0.9755,-0.9755,-0.9755,-0.9755,-0.9755,-0.9755,-0.9755,-0.9755,-0.9755,-0.9755,-0.9755,0.0,0.0,0.0,0.0,0.0,0.0,0.0,0.0,0.0,0.0,0.0,0.0,0.0,0.0,0.0,0.0,0.0,0.0,0.0,0.0,0.0,0.0,0.0,-1.2687,-1.3203,-1.3775,-1.4117,-1.4776,-1.5324,-1.5642,-1.569,-1.5697,-1.5697,-1.5713,-1.5729,-1.5729,-1.5737,-1.5896,-1.6238,-1.6254,-1.6581,-1.7163,-1.7343,-1.7498,-1.7733,-1.7904,-1.8074,-1.8074,-1.8074,-1.8074,-1.8074,-1.8074,-1.8074,-1.8074,-1.8074,-1.8074,-1.7997,-1.7244,-1.6953,-1.6953,-1.6953,-1.6953,-1.6953,-1.6953,-1.6953,-1.6953,-1.6953,-1.6953,-1.6953,-1.6953,-1.6953,-1.6953,-1.6953,-1.6792,-1.6632,-1.6632,-1.6471,-1.631,-1.631,-1.6166,-1.6013,-1.6005,-1.5843,-1.5682,-1.5682,-1.4045,-1.2725,-1.2725,-1.2693,-1.2677,-1.2677,-1.1988,0.0,-1.1519,-1.0947,-1.0585,-1.0585,-1.0585,-1.0585,-1.0585,-1.0585,-1.0585,-1.0585,-1.0585,-1.0585,-1.0585,-1.0585,-1.0585,-1.0585,-1.0585,-1.0585,-1.0585,0.0,0.0,0.0,0.0,0.0,0.0,0.0,0.0,0.0,0.0,0.0,0.0,0.0,0.0,0.0,0.0,0.0,0.0,0.0,0.0,0.0,-1.3063,-1.3671,-1.3362,-1.4339,-1.5141,-1.5237,-1.5419,-1.5578,-1.5666,-1.5912,-1.6063,-1.6063,-1.654,-1.6841,-1.6841,-1.7064,-1.7239,-1.7334,-1.7342,-1.756,-1.8083,-1.8176,-1.8431,-1.8769,-1.8862,-1.8862,-1.8862,-1.8862,-1.8862,-1.8862,-1.8862,-1.8862,-1.8862,-1.8862,-1.8862,-1.8785,-1.8023,-1.7732,-1.7732,-1.7732,-1.7732,-1.7732,-1.7732,-1.7732,-1.7732,-1.7732,-1.7732,-1.7732,-1.7732,-1.7732,-1.7732,-1.7732,-1.7652,-1.7652,-1.7652,-1.7477,-1.7317,-1.7317,-1.6959,-1.6596,-1.6427,-1.611,-1.5883,-1.5709,-1.5233,-1.4824,-1.4824,-1.4188,-1.3688,-1.3688,-1.2877,0.0,-1.2326,-1.2166,-1.2046,-1.2046,-1.2046,-1.2046,-1.2046,-1.2046,-1.2046,-1.2046,-1.2046,-1.2046,-1.2046,-1.2046,-1.2046,-1.2046,-1.2046,-1.2046,0.0,0.0,0.0,0.0,0.0,0.0,0.0,0.0,0.0,0.0,0.0,0.0,0.0,0.0,0.0,0.0,0.0,0.0,0.0,0.0,0.0,0.0,-1.4088,-1.4626,-1.4576,-1.5186,-1.5737,-1.588,-1.5896,-1.6015,-1.6317,-1.6532,-1.6714,-1.6849,-1.7247,-1.7485,-1.7485,-1.7668,-1.7771,-1.7771,-1.7771,-1.7945,-1.83,-1.8473,-1.8654,-1.8998,-1.9179,-1.917,-1.917,-1.917,-1.917,-1.917,-1.917,-1.917,-1.917,-1.917,-1.917,0.0,0.0,0.0,0.0,0.0,-1.8511,-1.8511,-1.8511,-1.8511,-1.8511,-1.8511,-1.8511,-1.8511,-1.8511,-1.8511,-1.8511,-1.8511,-1.8511,-1.8511,-1.8511,-1.83,-1.8091,-1.8091,-1.7649,-1.7204,-1.705,-1.6697,-1.6395,-1.6349,-1.6198,0.0,-1.6118,-1.5372,-1.4768,-1.4768,-1.4005,-1.3378,-1.3235,-1.2957,-1.2789,-1.2645,-1.2621,-1.2621,-1.2621,-1.2621,0.0,0.0,0.0,-1.2621,-1.2621,-1.2621,0.0,0.0,0.0,-1.2621,-1.2621,0.0,0.0,0.0,-1.2075,-1.2095,0.0,0.0,0.0,0.0,0.0,0.0,0.0,0.0,0.0,0.0,0.0,0.0,0.0,0.0,0.0,0.0,-1.5088,-1.5901,-1.594,-1.5937,-1.6015,-1.6293,-1.6357,-1.6635,-1.727,-1.7334,-1.7461,-1.7747,-1.7811,-1.7834,-1.7834,0.0,0.0,0.0,0.0,-1.7978,-1.8248,-1.8423,-1.8684,-1.8961,-1.9126,-1.9299,-1.9299,-1.9299,-1.9299,-1.9299,-1.9299,-1.9299,-1.9299,-1.9299,-1.9299,-1.929,-1.9204,-1.917,-1.917,-1.917,-1.917,-1.917,-1.917,0.0,0.0,-1.917,-1.917,-1.917,-1.917,-1.917,-1.917,-1.917,-1.917,-1.917,-1.917,-1.8913,-1.8656,-1.8656,-1.8226,-1.7899,-1.7865,-1.7564,-1.7261,-1.7203,-1.6998,-1.6794,-1.6794,-1.6206,-1.5737,-1.5737,-1.5173,-1.4641,-1.4331,-1.3759,-1.3259,-1.2949,0.0,0.0,-1.2861,-1.2822,-1.2861,-1.2861,-1.2861,-1.2861,-1.2861,-1.2861,-1.2861,-1.2861,-1.2861,-1.2861,-1.2861,-1.2861,-1.3108,-1.3688,-1.306,-1.2656,0.0,0.0,0.0,0.0,0.0,0.0,0.0,0.0,0.0,0.0,0.0,0.0,0.0,0.0,0.0,-1.4539,-1.5253,-1.5906,-1.6362,-1.6823,-1.7047,-1.7096,-1.731,-1.7525,-1.766,-1.7676,-1.7699,-1.7763,-1.8033,-1.82,-1.82,-1.847,-1.8629,-1.8629,-1.8629,-1.8712,-1.8985,-1.9076,-1.9257,-1.9718,0.0,0.0,-2.0078,-2.0078,-2.0078,-2.0078,-2.0078,-2.0078,-2.0078,-2.0078,-2.0078,-2.0018,-1.941,-1.917,-1.917,-1.917,-1.917,-1.917,-1.917,-1.917,-1.917,-1.917,-1.917,-1.917,-1.917,-1.917,0.0,-1.917,-1.917,-1.917,-1.917,-1.9119,-1.9059,-1.9059,-1.9007,-1.8812,-1.8598,-1.8549,-1.8402,-1.804,-1.7709,-1.7411,-1.7175,-1.6579,-1.6103,-1.6103,-1.5745,-1.5451,-1.538,-1.5261,-1.5149,-1.5078,-1.4832,-1.4681,-1.4681,-1.4403,-1.4236,-1.4236,-1.4236,-1.4236,-1.4236,-1.4236,-1.4236,-1.4236,-1.4236,-1.4236,-1.4236,-1.4236,-1.4307,-1.4418,-1.3711,-1.3696,0.0,0.0,0.0,0.0,0.0,0.0,0.0,0.0,0.0,0.0,0.0,-1.2714,-1.3269,0.0,-1.4161,-1.5212,-1.5695,-1.61,-1.6616,-1.7125,-1.7474,-1.7392,-1.7589,-1.7842,-1.8017,-1.8033,-1.8112,-1.8287,-1.8462,-1.8565,-1.8565,-1.8732,-1.8907,-1.9098,-1.9098,-1.9271,-1.9533,-1.9628,-1.9825,-2.0013,-2.0201,-2.0389,-2.0662,-2.0662,-2.0661,-2.0583,-2.0583,-2.0472,-2.0292,-2.0292,-2.0292,-2.0249,-1.9881,-1.9735,-1.9735,-1.9735,-1.9735,-1.9735,-1.9735,-1.9735,-1.9735,-1.9735,-1.9735,-1.9735,-1.9735,-1.9735,-1.9735,-1.9735,-1.9735,-1.9735,-1.9735,-1.9598,-1.9461,-1.9461,-1.9307,-1.9136,-1.9007,-1.882,-1.8593,-1.8423,-1.7959,-1.7688,-1.761,-1.7223,-1.6873,-1.6524,-1.6317,-1.6142,-1.596,-1.5944,-1.5872,-1.5697,-1.5531,-1.5427,-1.5427,-1.511,-1.4832,-1.4585,-1.4569,-1.4569,-1.4569,-1.4569,-1.4569,-1.4569,-1.4569,-1.4569,-1.4569,-1.4569,-1.4569,-1.4561,-1.4275,-1.4299,0.0,0.0,0.0,0.0,0.0,0.0,0.0,-1.183,-1.2249,-1.226,-1.2728,-1.3341,-1.4151,-1.4257,-1.4681,-1.5777,-1.6132,-1.6344,-1.6699,-1.7289,-1.7575,-1.7486,-1.7713,-1.8,-1.8292,-1.8316,-1.8458,-1.8907,-1.8931,-1.8962,-1.9026,-1.9026,-1.9161,-1.9455,-1.9471,-1.9598,-1.986,-2.0071,-2.0168,-2.0168,-2.0459,-2.0644,-2.0933,-2.0933,-2.087,-2.0891,-2.0985,-2.0805,-2.0506,-2.0506,-2.0472,-2.0403,-2.0403,-2.036,-2.0292,-2.0292,-2.0292,-2.0292,-2.0292,-2.0292,-2.0292,-2.0292,-2.0292,-2.0292,-2.0292,-2.0292,-2.0292,-2.0292,-2.0292,-2.0292,-2.0292,-2.0069,-1.9847,-1.9847,-1.9615,-1.9393,-1.9393,-1.9037,-1.8775,-1.8679,-1.8272,-1.797,-1.7874,-1.7811,-1.7556,-1.6937,-1.6841,-1.6706,-1.6357,-1.6309,-1.6198,-1.5912,-1.5825,-1.5753,-1.5682,-1.5435,-1.5125,-1.4768,-1.4744,-1.4712,-1.4569,-1.4569,-1.4569,-1.4569,-1.4569,-1.4569,-1.4569,-1.4569,-1.4569,-1.4569,-1.4569,-1.4569,-1.0339,-1.0973,-1.1533,-1.1822,-1.1676,-1.1522,0.0,-1.2153,-1.2824,-1.2705,-1.3532,-1.4302,-1.475,-1.4977,-1.5261,-1.5913,-1.6303,-1.6588,-1.6799,-1.736,-1.7654,-1.771,-1.788,-1.818,-1.8419,-1.8511,-1.8753,-1.928,-1.9312,-1.9439,-1.9733,-1.9749,-1.9765,-1.9805,-1.9812,-1.9828,-1.9868,-1.9957,-2.0063,-2.0168,-2.0265,-2.0362,-2.0644,-2.0644,-2.082,-2.0971,-2.1258,-2.1328,-2.1285,-2.1285,-2.1097,-2.0814,-2.0814,-2.06,-2.0292,-2.0292,-2.0292,-2.0292,-2.0292,-2.0292,-2.0292,-2.0292,-2.0292,-2.0292,-2.0292,-2.0292,-2.0292,-2.0292,-2.0292,-2.0292,-2.0292,-2.0266,-2.0232,-2.0232,-2.0198,-2.0082,-1.9892,-1.981,-1.962,-1.9165,-1.8831,-1.8531,-1.8247,-1.7977,-1.7644,-1.727,-1.7223,-1.7088,-1.6722,-1.6675,-1.6659,-1.6619,-1.6333,-1.6023,-1.5705,-1.5642,-1.5483,-1.5141,-1.5125,-1.4982,-1.4585,-1.4569,-1.4569,-1.4569,-1.4569,-1.4569,-1.4569,-1.4569,-1.4569,-1.4569,-1.4569,-1.4569,-1.1274,-1.1582,-1.1952,-1.2351,-1.2307,-1.2305,-1.2587,-1.3166,-1.3684,-1.3635,-1.4208,-1.4805,-1.5116,-1.5218,-1.5403,-1.5972,-1.6225,-1.6465,-1.6936,-1.7174,-1.7347,-1.7434,-1.7784,-1.8018,-1.821,-1.8465,-1.8635,-1.8876,-1.907,-1.9338,-1.9665,-1.9673,-1.9866,-2.017,-2.017,-2.0265,-2.048,-2.048,-2.048,-2.058,-2.058,-2.078,-2.098,-2.098,-2.1073,-2.1064,-2.1034,-2.1029,-2.1126,-2.1126,-2.1137,-2.1191,-2.1191,-2.1088,-2.0891,-2.0454,-2.0292,-2.0292,-2.0292,-2.0292,-2.0292,-2.0292,-2.0292,-2.0292,-2.0292,-2.0292,-2.0292,-2.0292,-2.0292,-2.0292,-2.0292,-2.0201,-2.011,-2.011,-1.9936,-1.9853,-1.9762,-1.9571,-1.9463,-1.9279,-1.8983,-1.8712,-1.8605,-1.8486,-1.8237,-1.7893,-1.7723,-1.7437,-1.7096,-1.7048,-1.6969,-1.6754,-1.6603,-1.6373,-1.6015,-1.5983,-1.584,-1.5491,-1.5467,-1.5404,-1.5253,-1.5245,-1.5245,-1.5245,-1.5245,-1.5245,-1.5245,-1.5245,-1.5245,-1.5245,-1.5245,-1.5245,-1.1745,-1.1968,-1.2204,-1.2726,-1.2794,-1.2952,-1.3397,-1.3879,-1.4115,-1.4203,-1.4543,-1.4983,-1.5154,-1.5264,-1.554,-1.6019,-1.616,-1.6337,-1.685,-1.6885,-1.7001,-1.7167,-1.7383,-1.7661,-1.7903,-1.8399,-1.8677,-1.8865,-1.9102,-1.9376,-1.9659,-1.9667,-1.9875,-2.0326,-2.0334,-2.0452,-2.0822,-2.0822,-2.0822,-2.0925,-2.0925,-2.1019,-2.1224,-2.1224,-2.129,-2.1237,-2.0966,-2.1039,-2.1234,-2.1234,-2.1273,-2.1374,-2.1374,-2.1315,-2.1249,-2.0704,-2.0508,-2.06,-2.06,-2.0531,-2.0454,-2.0454,-2.0377,-2.0292,-2.0292,-2.0292,-2.0292,-2.0292,-2.0292,-2.0201,-2.0201,-2.0019,-1.9845,-1.9845,-1.9671,-1.9587,-1.9487,-1.9387,-1.9188,-1.9096,-1.8912,-1.8827,-1.8827,-1.8827,-1.8719,-1.8495,-1.8186,-1.7906,-1.7469,-1.7334,-1.7183,-1.6913,-1.6794,-1.6627,-1.6373,-1.6349,-1.6198,-1.584,-1.5825,-1.5777,-1.5682,-1.5674,-1.5674,-1.5674,-1.5674,-1.5674,-1.5674,-1.5674,-1.5674,-1.5674,-1.5674,-1.5674,-1.1679,-1.2095,-1.2747,-1.3031,-1.3097,-1.3258,-1.3795,-1.387,-1.3966,-1.4147,-1.4411,-1.4676,-1.495,-1.5193,-1.557,-1.6069,-1.6211,-1.6305,-1.6581,-1.6588,-1.6693,-1.6987,-1.7036,-1.7155,-1.7449,-1.8192,-1.8934,-1.9552,-1.959,-1.9727,-2.0033,-2.0048,-2.0055,-2.0063,-2.0063,-2.0285,-2.0514,-2.0514,-2.0617,-2.0925,-2.0925,-2.0925,-2.0925,-2.1224,-2.1318,-2.131,-2.1599,-2.1692,-2.1692,-2.1692,-2.1494,-2.1197,-2.1197,-2.117,-2.1029,-2.1004,-2.1188,-2.1379,-2.1379,-2.1148,-2.0857,-2.0857,-2.0609,-2.0292,-2.0292,-2.0292,-2.0292,-2.0292,-2.011,-1.9928,-1.9928,-1.9754,-1.9587,-1.9587,-1.9587,-1.9487,-1.9288,-1.9188,-1.9096,-1.8827,-1.8827,-1.8827,-1.8827,-1.8827,-1.8827,-1.8827,-1.8812,-1.8541,-1.7842,-1.7477,-1.7278,-1.7262,-1.6945,-1.673,-1.6722,-1.6714,-1.6563,-1.6214,-1.619,-1.6031,-1.569,-1.5674,-1.5674,-1.5674,-1.5674,-1.5674,-1.5674,-1.5674,-1.5674,-1.5674,-1.5674,-1.5674,-1.2542,-1.2783,-1.3049,-1.3314,-1.3387,-1.3405,-1.3586,-1.3927,-1.4155,-1.4247,-1.4364,-1.4437,-1.4533,-1.4741,-1.4955,-1.5153,-1.5585,-1.6028,-1.6312,-1.6312,-1.6517,-1.6905,-1.7218,-1.747,-1.7785,-1.8225,-1.8585,-1.8789,-1.9199,-1.9568,-1.9768,-1.9879,-1.9879,-2.0078,-2.0078,-2.0189,-2.0197,-2.0197,-2.0292,-2.0395,-2.0506,-2.0617,-2.0617,-2.0917,-2.1019,-2.1019,-2.1121,-2.1216,-2.142,-2.142,-2.1456,-2.1552,-2.1552,-2.1478,-2.1462,-2.1462,-2.1562,-2.1586,-2.1488,-2.1241,-2.0948,-2.0948,-2.076,-2.047,-2.047,-2.047,-2.047,-2.047,-2.047,-2.0326,-2.0077,-1.9832,-1.9589,-1.9345,-1.9196,-1.902,-1.892,-1.8912,-1.892,-1.8827,-1.8827,-1.8827,-1.8827,-1.8827,-1.8827,-1.8827,-1.8629,-1.839,-1.8152,-1.7819,-1.7525,-1.7302,-1.7167,-1.7,-1.6754,-1.673,-1.6683,-1.6563,-1.6555,-1.65,-1.6381,-1.6373,-1.6373,-1.6373,-1.6373,-1.6373,-1.6373,-1.6373,-1.6373,-1.6373,-1.6373,-1.6373,-1.2795,-1.3043,-1.3326,-1.3592,-1.3652,-1.3676,-1.3773,-1.4017,-1.4333,-1.4333,-1.4222,-1.4147,-1.4147,-1.4417,-1.4597,-1.4597,-1.508,-1.5648,-1.575,-1.5845,-1.6081,-1.6674,-1.6891,-1.7271,-1.7778,-1.8142,-1.8252,-1.8348,-1.874,-1.9056,-1.9257,-1.9257,-1.9368,-1.968,-1.968,-1.9783,-1.9983,-1.9983,-1.9983,-2.0078,-2.03,-2.0411,-2.0403,-2.0506,-2.0712,-2.0719,-2.0719,-2.0925,-2.1121,-2.1121,-2.1224,-2.142,-2.142,-2.142,-2.1522,-2.1522,-2.1623,-2.1659,-2.1584,-2.1341,-2.1045,-2.1045,-2.0848,-2.0644,-2.0644,-2.0644,-2.0644,-2.0644,-2.0547,-2.0401,-2.0164,-1.9917,-1.9757,-1.9531,-1.9287,-1.9169,-1.905,-1.9026,-1.8978,-1.8851,-1.8827,-1.8827,-1.8827,-1.8827,-1.8827,-1.8827,-1.8637,-1.8486,-1.8486,-1.8184,-1.7882,-1.7668,-1.7421,-1.7183,-1.6945,-1.681,-1.673,-1.673,-1.673,-1.673,-1.673,-1.673,-1.673,-1.673,-1.673,-1.673,-1.673,-1.673,-1.673,-1.673,-1.673,-1.673,-1.2524,-1.2952,-1.3598,-1.3857,-1.3924,-1.399,-1.4244,-1.4298,-1.4298,-1.4298,-1.405,-1.3845,-1.3845,-1.4084,-1.4231,-1.4231,-1.4651,-1.5038,-1.5038,-1.5064,-1.539,-1.6153,-1.6325,-1.6642,-1.7417,-1.7799,-1.8016,-1.8318,0.0,-1.8422,-1.8422,-1.8422,-1.8534,-1.8869,-1.8869,-1.9071,-1.968,-1.968,-1.9783,-2.0086,-2.0086,-2.0078,-2.0078,-2.0078,-2.0197,-2.0522,-2.0522,-2.0617,-2.0822,-2.0822,-2.0822,-2.0822,-2.0917,-2.1019,-2.1224,-2.1216,-2.142,-2.1623,-2.1623,-2.141,-2.1246,-2.1246,-2.0901,-2.0605,-2.0605,-2.0605,-2.0605,-2.0605,-2.0411,-2.0216,-2.02,-2.0095,-1.9884,-1.9868,-1.9868,-1.9781,-1.9463,-1.9399,-1.9296,-1.8947,-1.8867,-1.8851,-1.8827,-1.8827,-1.8827,-1.8827,-1.8827,-1.8827,-1.8827,-1.8533,-1.8319,-1.8295,-1.7715,-1.7318,-1.7286,-1.6961,-1.6754,-1.673,-1.673,-1.673,-1.673,-1.673,-1.673,-1.673,-1.673,-1.673,-1.673,-1.673,-1.673,-1.673,-1.673,-1.6648,-1.3375,-1.3646,-1.387,-1.4129,-1.4195,-1.4214,-1.428,-1.4298,-1.4298,-1.4298,-1.3647,-1.2997,-1.2997,-1.2934,-1.2826,-1.2826,-1.3724,-1.4539,-1.4539,-1.4816,-1.5286,-1.5946,-1.601,-1.6228,-1.689,-1.6948,-1.7047,0.0,-1.7891,-1.8422,-1.8422,-1.8422,-1.8422,-1.8534,-1.8534,-1.8639,-1.8736,-1.8959,-1.9175,-1.9175,-1.9576,-1.9776,-1.9783,-1.9983,-2.0189,-2.0189,-2.0189,-2.0189,-2.0292,-2.0292,-2.0292,-2.0292,-2.0514,-2.0617,-2.0719,-2.0925,-2.1019,-2.1121,-2.1121,-2.1167,-2.1298,-2.1298,-2.103,-2.0857,-2.0857,-2.0857,-2.0857,-2.0857,-2.0756,-2.0692,-2.0428,-2.0357,-2.0194,-1.9924,-1.9868,-1.9844,-1.9757,-1.9741,-1.9709,-1.9614,-1.9399,-1.9145,-1.8875,-1.8827,-1.8827,-1.8827,-1.8827,-1.8827,-1.8827,-1.8748,-1.8589,-1.8327,-1.8144,-1.7834,-1.7326,-1.7191,-1.7024,-1.6754,-1.673,-1.673,-1.673,-1.673,-1.673,-1.673,-1.673,-1.673,-1.673,-1.673,-1.673,-1.673,-1.673,-1.6648,-1.3755,-1.399,-1.4117,-1.4262,-1.4298,-1.4238,-1.4008,-1.3954,-1.3888,-1.3646,-1.294,-1.2361,-1.2361,-1.2207,-1.2166,-1.248,-1.3318,-1.4047,-1.4284,-1.4584,-1.4989,-1.5639,-1.5702,-1.6017,-1.6679,-1.673,-1.673,-1.673,-1.7259,-1.7687,-1.7905,-1.7905,-1.801,-1.822,-1.822,-1.8325,-1.8422,-1.8541,-1.8646,-1.8646,-1.8952,-1.9153,-1.9153,-1.9472,-1.968,-1.9783,0.0,-1.9983,-2.0078,-2.0078,-2.0078,-2.0086,-2.03,-2.03,-2.03,-2.0506,-2.0498,-2.0498,-2.0498,-2.0601,-2.0806,-2.1019,-2.1019,-2.0925,-2.0925,-2.0925,-2.0925,-2.0925,-2.0925,-2.0877,-2.0678,-2.0623,-2.0575,-2.0377,-2.0329,-2.0289,-2.013,-2.0098,-2.0051,-1.9892,-1.9598,-1.9312,-1.9098,-1.8931,-1.8827,-1.8827,-1.8827,-1.8827,-1.8827,-1.8827,-1.8756,-1.8549,-1.839,-1.8144,-1.7755,-1.7588,-1.7342,-1.7,-1.6976,-1.6905,-1.6738,-1.673,-1.673,-1.673,-1.673,-1.673,-1.673,-1.673,-1.673,-1.673,-1.6648,-1.6476,-1.3876,-1.4123,-1.4298,-1.4298,-1.4298,-1.4159,-1.3634,-1.3513,-1.3363,-1.2819,-1.2288,-1.192,-1.192,-1.189,-1.2005,-1.2427,-1.2982,-1.3525,-1.4014,-1.4147,-1.4497,-1.5275,-1.5475,-1.5692,-1.6523,-1.6605,-1.6624,-1.6624,-1.6624,-1.6736,-1.7067,-1.7173,-1.7384,-1.7806,-1.7911,-1.8016,-1.8213,-1.8318,-1.8318,-1.8318,-1.8422,-1.8422,-1.8422,-1.8653,-1.8966,-1.9168,-1.9472,-1.9672,-1.9872,-1.9879,-1.9983,-1.9983,-1.9983,-2.0086,-2.0078,-2.0086,-2.0078,-2.0078,-2.0078,-2.0078,-2.0189,-2.0609,-2.0814,-2.0814,-2.0814,-2.0814,-2.0814,-2.0814,-2.0814,-2.0814,-2.0814,-2.0814,-2.0814,-2.0814,-2.0814,-2.0735,-2.0427,-2.0364,-2.0361,-2.0003,-1.9701,-1.9479,-1.9391,-1.9105,-1.8883,-1.8835,-1.8827,-1.8827,-1.8827,-1.8827,-1.8827,-1.8827,-1.8557,-1.8351,-1.8303,-1.8017,-1.7699,-1.7366,-1.735,-1.7183,-1.6818,-1.681,-1.6786,-1.673,-1.673,-1.6648,-1.6648,-1.6648,-1.6648,-1.6656,-1.6402,-1.6312,-1.4099,-1.4262,-1.4298,-1.4298,-1.4298,-1.4159,-1.3634,-1.3513,-1.3363,-1.2819,-1.2288,-1.192,-1.192,-1.1745,-1.1552,-1.1413,-1.2023,-1.2626,-1.294,-1.3369,-1.3936,-1.469,-1.5075,-1.533,-1.564,-1.5864,-1.5992,0.0,-1.5992,-1.6311,-1.6736,-1.6842,-1.6842,-1.6942,-1.7173,-1.7391,-1.7384,-1.7806,-1.8122,-1.8122,-1.8318,-1.8422,-1.8422,-1.8429,-1.8534,-1.8534,-1.8632,0.0,-1.8736,-1.8959,-1.9078,-1.9175,-1.9576,-1.9783,-1.9776,-1.9983,-2.0078,-2.0078,-2.0078,-2.0078,-2.0078,-2.0189,-2.0292,-2.0292,-2.0292,-2.0292,-2.0292,-2.0292,-2.0292,-2.0292,-2.0292,-2.0292,-2.0292,-2.0292,-2.0292,-2.0174,-2.0112,-2.0318,-2.0429,-2.0077,-2.0158,-2.0035,-1.9471,-1.932,-1.9177,-1.8875,-1.8827,-1.8827,-1.8827,-1.8827,-1.8827,-1.8827,-1.8772,-1.8613,-1.8327,-1.824,-1.8057,-1.7707,-1.7683,-1.7533,-1.7199,-1.7183,-1.704,-1.6738,-1.673,-1.6648,-1.6476,-1.6476,-1.6402,-1.617,-1.617,-1.5997,-1.4153,-1.4298,-1.4298,-1.4298,-1.4298,-1.4087,-1.3278,-1.3091,-1.2862,-1.1879,-1.1522,-1.1272,-1.1194,-1.1212,-1.1224,-1.1224,-1.1646,-1.2169,-1.2698,-1.2986,-1.3438,-1.4219,-1.4536,-1.4794,-1.5059,-1.5317,-1.5464,-1.5464,-1.5464,-1.5785,-1.6424,-1.663,-1.673,-1.673,-1.6842,-1.6955,-1.6955,-1.7166,-1.7265,-1.7378,-1.7589,-1.7799,-1.7799,-1.801,-1.822,-1.822,-1.8318,-1.8422,-1.8422,-1.8541,-1.8646,-1.8646,-1.8952,-1.9049,-1.9049,-1.9153,-1.925,-1.925,-1.925,-1.925,-1.925,-1.925,-1.9665,-2.0078,-2.0078,-2.0078,-2.0078,-2.0078,-2.0078,-2.0078,-2.0078,-2.0078,-2.0078,-2.0078,-2.0078,-2.0078,-2.0078,-2.0189,-2.0254,-2.0084,-2.0016,-1.9898,-1.9579,-1.9221,-1.8925,-1.8754,-1.8575,-1.8458,-1.8458,-1.8458,-1.8458,-1.8658,-1.8558,-1.8388,-1.8224,-1.8208,-1.806,-1.771,-1.7687,-1.7539,-1.7125,-1.711,-1.7032,-1.6862,-1.6683,-1.6598,-1.6507,-1.6329,-1.6162,-1.6087,-1.5997,-1.5824,-1.3868,-1.4023,-1.4034,-1.4094,-1.4064,-1.3761,-1.2766,-1.2492,-1.2171,-1.1018,-1.0697,-1.0673,-1.0507,-1.069,-1.0895,-1.109,-1.1329,-1.1758,-1.2517,-1.2626,-1.2923,-1.3733,-1.4099,-1.4362,-1.4573,-1.4864,-1.5041,-1.5041,-1.5041,-1.5363,-1.6117,-1.6318,-1.6524,-1.6524,-1.663,-1.663,-1.663,-1.6624,-1.673,-1.673,-1.6955,-1.7067,-1.7067,-1.749,-1.7701,-1.7701,-1.801,-1.8115,-1.8108,-1.8318,-1.8318,-1.8318,-1.8422,-1.8422,-1.8422,-1.8422,-1.8422,-1.8422,-1.8422,-1.8422,-1.8422,-1.8422,-1.9042,-1.9768,-1.9768,-1.9768,-1.9768,-1.9768,-1.9768,-1.9768,-1.9776,-1.9879,-1.9879,-1.9879,-1.9879,-1.9879,-1.9879,-1.9983,-1.9975,-1.9975,-1.988,-1.9689,-1.962,-1.9163,-1.8766,-1.8613,-1.8259,-1.8054,-1.8094,-1.7994,-1.8087,-1.8295,-1.8187,-1.8087,-1.8087,-1.8087,-1.7972,-1.7705,-1.769,-1.7537,-1.712,-1.7105,-1.7075,-1.6999,-1.6748,-1.6698,-1.6612,-1.6346,-1.6179,-1.6027,-1.5769,-1.5641,-1.3078,-1.3279,-1.3337,-1.3573,-1.3458,-1.3078,-1.2214,-1.1939,-1.1548,-1.0678,-1.0415,-1.0329,-1.0473,-1.0541,-1.064,-1.0581,-1.081,-1.1244,-1.2003,-1.2112,-1.2471,-1.3459,-1.399,-1.4287,-1.431,-1.4756,-1.5041,-1.5041,-1.5041,-1.5148,-1.5589,-1.5589,-1.569,-1.5998,-1.6211,-1.6324,-1.6324,-1.663,-1.673,-1.673,-1.673,-1.673,-1.673,-1.6836,-1.6836,-1.6842,-1.7173,-1.7279,0.0,-1.7806,-1.8016,-1.8016,-1.8325,-1.8422,-1.8422,-1.8422,-1.8422,-1.8422,-1.8422,-1.8422,-1.8422,-1.8422,-1.8422,-1.8527,-1.8527,-1.8527,-1.8527,-1.8527,-1.8527,-1.8632,-1.8966,-1.8974,-1.9071,-1.9272,-1.9376,-1.9376,-1.9376,-1.9576,-1.9783,-1.9783,-1.996,-1.9949,-1.9659,-1.9559,-1.9308,-1.8689,-1.8125,-1.7983,-1.8233,-1.7792,-1.7505,-1.7822,-1.8001,-1.8087,-1.8087,-1.8087,-1.8071,-1.8041,-1.8041,-1.7888,-1.7545,-1.7529,-1.7392,-1.7007,-1.6976,-1.6866,-1.6683,-1.6653,-1.6409,-1.587,-1.5691,-1.5447,-1.2723,-1.2928,-1.2951,-1.306,-1.3003,-1.2694,-1.1792,-1.1506,-1.1175,-1.0115,-0.9856,-0.9745,-0.9757,-0.9944,-1.0099,-0.9955,-1.0269,-1.0781,-1.1508,-1.1607,-1.1971,-1.294,-1.3485,-1.3777,-1.3777,-1.4223,-1.4509,-1.4509,-1.4509,-1.4617,-1.4934,-1.5148,-1.5256,-1.5357,-1.569,-1.5797,-1.5797,-1.6105,-1.6205,-1.6205,-1.6424,-1.6424,-1.6424,-1.663,-1.673,-1.673,-1.6842,-1.6955,0.0,-1.716,-1.7265,-1.7265,-1.7364,-1.7477,-1.7694,-1.7694,-1.7799,-1.7898,-1.7898,-1.7898,-1.7898,-1.7898,-1.7898,-1.8003,-1.8318,-1.8422,-1.8422,-1.8422,-1.8422,-1.8422,-1.8534,-1.8646,-1.8646,-1.8743,-1.8743,-1.8743,-1.8743,-1.8848,-1.8945,-1.8945,-1.9049,-1.9005,-1.8882,-1.8709,-1.86,-1.8238,-1.775,-1.7352,-1.7545,-1.7167,-1.6951,-1.7059,-1.7426,-1.7613,-1.7613,-1.7613,-1.7527,-1.7441,-1.7441,-1.7289,-1.7057,-1.6957,-1.6899,-1.6776,-1.6581,-1.6389,-1.6299,-1.6106,-1.5948,-1.5746,-1.5658,-1.55,-1.2271,-1.249,-1.2507,-1.258,-1.2434,-1.2068,-1.1297,-1.0954,-1.05,-0.9586,-0.9377,-0.9275,-0.9195,-0.9427,-0.9599,-0.9583,-0.9916,-1.0406,-1.0968,-1.1033,-1.1367,-1.2167,-1.2734,-1.309,-1.3164,-1.3657,-1.4083,-1.4191,-1.4196,-1.4299,-1.4504,-1.4611,-1.4826,-1.5035,-1.5261,-1.5369,-1.5369,-1.5577,-1.5678,-1.5791,-1.6004,-1.6111,-1.6217,-1.6418,-1.6418,-1.6524,-1.6524,-1.663,0.0,-1.663,-1.673,-1.673,-1.673,-1.6842,-1.7067,-1.7067,-1.7166,-1.7371,-1.7371,-1.7371,-1.7371,-1.7371,-1.7371,-1.7364,-1.7786,-1.8003,-1.8213,-1.8213,-1.8213,-1.8325,-1.8325,-1.8318,-1.8422,-1.8422,-1.8422,-1.8422,-1.8422,-1.8422,-1.8422,-1.8422,-1.8422,-1.8422,-1.8422,-1.8247,-1.8072,-1.7981,-1.7596,-1.7141,-1.6843,-1.6745,-1.6679,-1.6494,-1.6857,-1.7052,-1.7052,-1.7052,-1.7052,-1.6878,-1.6878,-1.6784,-1.6588,-1.6588,-1.6588,-1.6588,-1.6371,-1.6253,-1.6253,-1.6036,-1.5882,-1.5791,-1.5708,-1.5569,-1.1445,-1.1704,-1.1758,-1.208,-1.1515,-1.0934,-1.0692,-1.0094,-0.9518,-0.9254,-0.9023,-0.8937,-0.9163,-0.9023,-0.9028,-0.9502,-0.9771,-1.0017,-1.0256,-1.0517,-1.0745,-1.1033,-1.1581,-1.2077,-1.2304,-1.3141,-1.3862,-1.4191,-1.4196,0.0,-1.4196,-1.4196,-1.4407,-1.4934,-1.5041,-1.5041,-1.5041,-1.5041,-1.5148,-1.5482,-1.5482,-1.569,-1.5891,-1.5891,-1.5891,-1.5891,-1.6217,-1.6324,0.0,-1.663,-1.673,-1.673,-1.673,-1.673,-1.673,-1.673,-1.673,-1.673,-1.673,-1.673,-1.673,-1.673,-1.673,-1.673,-1.673,-1.7153,-1.7582,-1.7582,-1.7799,-1.8016,-1.8016,-1.822,-1.8422,-1.8422,-1.8422,-1.8422,-1.8422,-1.8422,-1.8422,-1.8422,-1.8422,-1.8422,-1.8422,-1.8422,-1.8317,-1.8016,-1.7967,-1.7615,-1.6454,-1.6704,-1.6814,-1.6393,-1.648,-1.6588,-1.6588,-1.6588,-1.6588,-1.6588,-1.6588,-1.6588,-1.6588,-1.6588,-1.6588,-1.6588,-1.6581,-1.6581,-1.6581,-1.6574,-1.642,-1.6113,-1.5858,-1.5335,-0.9932,-1.0093,-1.0113,-1.0262,-1.0115,-0.9777,-0.9388,-0.9135,-0.8865,-0.8472,-0.8337,-0.8311,-0.8379,-0.8462,-0.8663,-0.913,-0.9394,-0.9684,-1.0208,-1.0355,-1.057,-1.0934,-1.1713,-1.242,-1.2951,-1.3301,-1.3423,-1.3537,-1.3537,-1.3645,-1.3862,-1.3862,-1.4078,-1.4407,-1.4611,-1.4713,-1.4713,-1.4928,-1.5041,-1.5148,-1.5148,-1.5148,-1.525,-1.525,-1.5363,-1.5583,-1.569,-1.5903,-1.5998,-1.6099,-1.6099,-1.6099,-1.6099,-1.6318,-1.6424,-1.6424,-1.6524,-1.673,-1.673,-1.673,-1.673,-1.673,-1.673,-1.673,-1.673,-1.6836,-1.6942,-1.6942,-1.7054,-1.716,-1.716,-1.7153,-1.7259,-1.7259,-1.7259,-1.7259,-1.7259,-1.7259,-1.7259,-1.7259,-1.7259,-1.7259,-1.7259,-1.7259,-1.7226,-1.7141,-1.6957,-1.6658,-1.6361,-1.6229,-1.6155,-1.5751,-1.5774,-1.594,-1.6588,-1.6386,-1.6292,-1.6015,-1.592,-1.573,-1.5553,-1.5553,-1.5553,-1.5553,-1.5553,-1.5553,-1.5553,-1.5553,-1.5507,-1.5416,-1.5328,-1.5078,-0.9134,-0.9408,-0.9408,-0.9408,-0.9275,-0.9076,-0.8791,-0.8597,-0.8326,-0.8043,-0.8118,-0.8184,-0.8017,-0.8235,-0.8528,-0.8811,-0.9119,-0.9391,-0.9722,-1.0003,-1.0244,-1.0765,-1.1461,-1.2186,-1.3028,-1.3098,-1.3207,-1.3315,-1.3315,-1.3423,-1.3532,-1.3537,-1.3645,-1.3867,-1.4293,-1.4396,-1.4396,-1.4611,-1.4719,-1.4821,-1.4821,-1.4928,-1.5041,-1.5041,-1.5148,-1.5261,-1.5261,-1.5363,0.0,-1.5571,-1.5571,-1.5571,-1.5571,-1.5678,-1.5791,-1.5897,-1.6111,-1.6211,-1.6311,-1.6418,-1.6418,-1.6418,-1.6418,-1.6418,-1.6418,-1.6518,-1.673,-1.673,-1.673,-1.673,-1.673,-1.673,-1.673,-1.673,-1.673,-1.673,-1.673,-1.673,-1.673,-1.673,-1.673,-1.673,-1.673,-1.673,-1.673,-1.673,-1.6584,-1.6437,-1.6329,-1.6138,-1.595,-1.5515,-1.5234,-1.5377,-1.5933,-1.592,-1.573,-1.5553,-1.5356,-1.5261,-1.5083,-1.5083,-1.5083,-1.5083,-1.5083,-1.5083,-1.5083,-1.5083,-1.5083,-1.5083,-1.4987,-1.4791,0.0,-0.921,-0.9236,-0.9231,-0.8917,-0.8609,-0.8609,-0.8285,0.0,-0.7922,-0.8273,-0.8374,-0.8002,-0.8225,-0.8533,-0.8609,-0.8995,-0.9214,-0.8971,-0.9329,-0.9916,-1.0518,-1.0972,-1.1639,-1.269,-1.2881,-1.2989,-1.3207,-1.3207,-1.3207,-1.3315,-1.3315,-1.3315,-1.3315,-1.3867,-1.4191,-1.4196,-1.4191,-1.4299,-1.4606,-1.4606,-1.4713,-1.4934,-1.4934,-1.4934,0.0,-1.4934,-1.4928,0.0,-1.5041,-1.5041,-1.5041,-1.5041,-1.5041,-1.5041,-1.5369,-1.5482,-1.5482,-1.5785,-1.5891,-1.5891,-1.5891,-1.5891,-1.5891,-1.5891,-1.6205,-1.6624,-1.6624,-1.6624,-1.6624,-1.6624,-1.6624,-1.6624,-1.6624,-1.6624,-1.6624,-1.6624,-1.6624,-1.6624,-1.6624,-1.6624,-1.6624,-1.6624,-1.6624,-1.6624,-1.6624,-1.6624,-1.6535,-1.6283,-1.6238,-1.6132,-1.5512,-1.4986,-1.4753,-1.5032,-1.5096,-1.5083,-1.5083,-1.5083,-1.5083,-1.5083,-1.4987,-1.4987,-1.4987,-1.4987,-1.4987,-1.4987,-1.4987,-1.4987,-1.4987,-1.4694,-1.4496,-0.6971,0.0,-0.7758,-0.7889,-0.7884,-0.774,0.0,-0.747,-0.7335,-0.7204,-0.7459,-0.7613,-0.7215,-0.7586,-0.7952,-0.8029,-0.8422,-0.8729,-0.8575,-0.8891,-0.9405,-1.0359,-1.069,-1.1196,-1.2158,-1.2223,-1.2332,-1.255,-1.2659,-1.2767,-1.2989,-1.2989,-1.3098,-1.3315,-1.3428,-1.3645,-1.3862,-1.4083,-1.4191,-1.4293,-1.4293,-1.4299,-1.4407,-1.4407,-1.4509,-1.4713,-1.4713,-1.4821,-1.5041,-1.5041,-1.5041,-1.5041,-1.5041,-1.5041,-1.5041,-1.5041,-1.5148,-1.5148,-1.5143,-1.525,-1.525,-1.525,-1.525,-1.525,-1.525,-1.5571,-1.6099,-1.6099,-1.6099,-1.6099,-1.6099,-1.6099,-1.6099,-1.6099,-1.6099,-1.6099,-1.6099,-1.6099,-1.6099,-1.6099,-1.6099,-1.6099,-1.6099,-1.6099,-1.6099,-1.6099,-1.5897,-1.5773,-1.5713,-1.5662,-1.5383,-1.4924,-1.4329,-1.4063,-1.412,-1.4522,-1.479,-1.479,-1.4592,-1.449,-1.449,-1.431,-1.422,-1.422,-1.4027,-1.3925,-1.3925,-1.3925,-1.3925,-1.3829,-1.3829,-1.3732,-0.5935,-0.645,-0.6998,-0.7127,-0.7196,-0.7204,-0.7073,-0.7073,-0.7012,-0.6946,-0.7254,-0.7408,-0.695,-0.7346,-0.7699,-0.7689,-0.8089,-0.8466,-0.862,-0.8822,-0.9165,-1.0052,-1.032,-1.0764,0.0,-1.1514,-1.1697,-1.1991,-1.2005,-1.2223,-1.2441,-1.2441,-1.2659,-1.2876,-1.2989,-1.3207,-1.3537,-1.3753,-1.3753,-1.3753,-1.3753,-1.3867,-1.3975,-1.3975,-1.4078,-1.4396,-1.4396,0.0,-1.4617,-1.4617,-1.4617,-1.4617,-1.4617,-1.4617,-1.4617,-1.4719,-1.4821,-1.4821,-1.4928,-1.5041,-1.5041,-1.5041,-1.5041,-1.5041,-1.5041,-1.525,-1.5464,-1.5464,-1.5464,-1.5464,-1.5464,-1.5464,-1.5464,-1.5464,-1.5464,-1.5464,-1.5464,-1.5464,-1.5464,-1.5464,-1.5464,-1.5464,-1.5464,-1.5464,-1.5464,-1.5464,-1.5363,-1.5261,-1.5261,-1.5151,-1.4918,-1.4577,-1.4202,-1.3943,-1.3928,-1.4178,-1.4243,-1.4124,-1.4016,-1.3919,-1.3919,-1.3829,-1.3738,-1.3738,-1.3539,-1.3539,-1.3539,-1.3539,-1.3539,-1.3539,-1.3539,-1.3443,-0.5277,-0.5866,-0.6515,-0.6572,-0.6711,-0.6776,-0.6806,-0.6815,-0.6815,-0.6749,-0.7117,-0.7267,-0.6817,-0.7227,-0.7565,-0.7385,-0.7718,-0.8213,-0.8828,-0.8867,-0.9054,-0.975,-0.9957,0.0,-1.0919,-1.0976,-1.1212,-1.1542,-1.1568,-1.1678,-1.1896,-1.1896,-1.2005,-1.2219,-1.255,-1.2881,-1.3098,-1.3207,-1.3315,-1.3315,-1.3315,-1.3423,-1.3645,-1.3645,-1.3753,-1.4083,0.0,0.0,-1.4083,-1.4083,-1.4083,-1.4083,-1.4083,-1.4191,-1.4196,-1.4504,-1.4498,-1.4606,-1.4826,-1.4826,-1.4826,-1.4826,-1.4826,-1.4826,-1.4826,-1.4826,-1.4826,-1.4826,-1.4934,-1.5041,-1.5041,-1.5041,-1.5041,-1.5041,-1.5041,-1.5041,-1.5041,-1.5041,-1.5041,-1.5041,-1.5041,-1.5041,-1.5041,-1.5041,-1.5041,-1.5041,-1.4934,-1.4934,-1.4934,-1.4815,-1.4629,-1.4539,-1.4256,-1.4057,-1.3858,-1.3857,-1.372,-1.3413,-1.3465,-1.3443,-1.3443,-1.3443,-1.3443,-1.3346,-1.3346,-1.3346,-1.3346,-1.3346,-1.3346,-1.3346,-1.3346,-1.3249,-0.4993,-0.5194,-0.5593,-0.6133,-0.6295,-0.6293,-0.6314,-0.628,-0.628,-0.6086,-0.6356,-0.6491,-0.6152,-0.6618,-0.7003,-0.6763,-0.7251,-0.7842,-0.8718,-0.8585,-0.8744,-0.9713,0.0,-1.0188,-1.1004,-1.1042,-1.1285,-1.1564,-1.1568,-1.1568,-1.1678,-1.1678,-1.1678,-1.1678,-1.1787,-1.1896,-1.2223,-1.2881,-1.3315,-1.3315,-1.3315,-1.3315,-1.3315,-1.3315,-1.3423,-1.3428,0.0,-1.3428,-1.3428,-1.3428,-1.3537,-1.3753,-1.3753,-1.3975,-1.4196,-1.4299,-1.4299,-1.4299,-1.4299,-1.4299,-1.4299,-1.4299,-1.4299,-1.4299,-1.4299,-1.4299,-1.4299,-1.4299,-1.4617,-1.5041,-1.5041,-1.5041,-1.5041,-1.5041,-1.5041,-1.5041,-1.5041,-1.5041,-1.5041,-1.5041,-1.5041,-1.5041,-1.5041,-1.5041,-1.5041,-1.5041,-1.4821,-1.4708,-1.4708,-1.4396,-1.4283,-1.425,-1.4049,-1.3892,-1.3822,-1.3442,-1.3192,-1.3154,-1.3361,-1.3443,-1.3147,-1.3147,-1.305,-1.2958,-1.2958,-1.2958,-1.2958,-1.2958,-1.2958,-1.2958,-1.2958,-1.2764,-0.4405,-0.4458,-0.464,-0.5118,-0.5571,-0.5938,-0.6048,-0.6017,-0.602,-0.5888,-0.6007,-0.6097,-0.6037,-0.6414,-0.6827,-0.7027,-0.7396,-0.7838,-0.8482,-0.8434,-0.8519,0.0,0.0,-0.9503,-1.0052,-1.0083,-1.027,-1.0566,-1.0802,-1.0911,-1.1131,-1.1236,-1.1459,-1.1568,-1.1568,-1.1678,-1.1787,-1.2223,-1.255,-1.2767,-1.2767,-1.2881,-1.3098,-1.3098,-1.3207,-1.3315,0.0,-1.3315,-1.3315,-1.3315,-1.3423,-1.3532,-1.3532,-1.3537,-1.3753,-1.3753,-1.3753,-1.3753,-1.3753,-1.3753,-1.3753,-1.3753,-1.3753,-1.3753,-1.3753,-1.3753,-1.3753,-1.3753,-1.4078,-1.4617,-1.4617,-1.4617,-1.4617,-1.4617,-1.4617,-1.4617,-1.4617,-1.4617,-1.4617,-1.4617,-1.4617,-1.4617,-1.4617,-1.4617,-1.4617,-1.4617,-1.4509,-1.4401,-1.4401,-1.4299,-1.4196,-1.4196,-1.3981,-1.3752,-1.3614,-1.32,-1.302,-1.2942,-1.3019,-1.3055,-1.2953,-1.2953,-1.2861,-1.2764,-1.2667,-1.2565,-1.2565,-1.2467,-1.237,-1.237,-1.237,-1.2273,-0.3965,-0.4045,-0.4128,-0.436,-0.4931,-0.5445,-0.5581,-0.5627,-0.5627,-0.5627,-0.5627,-0.5673,-0.5837,-0.6207,-0.6595,-0.7137,-0.7422,-0.7759,-0.8033,-0.8072,-0.819,-0.8714,-0.8754,-0.8878,-0.941,-0.9444,-0.9548,-0.9798,-1.0036,-1.0257,-1.0472,-1.0692,-1.0911,-1.1131,-1.124,-1.135,-1.135,-1.1459,-1.1782,-1.2223,-1.2223,-1.2332,-1.2555,-1.2555,-1.2767,-1.2989,-1.2989,-1.2989,-1.3098,-1.3098,-1.3098,-1.3207,-1.3207,-1.3207,-1.3315,-1.3315,-1.3315,-1.3315,-1.3315,-1.3315,-1.3315,-1.3315,-1.3315,-1.3315,-1.3315,-1.3315,-1.3315,-1.3315,-1.3645,-1.3975,-1.3975,-1.3975,-1.3975,-1.3975,-1.3975,-1.3975,-1.3975,-1.3975,-1.3975,-1.3975,-1.3975,-1.3975,-1.3975,-1.3975,-1.3975,-1.3975,-1.3975,-1.3975,-1.3975,-1.3975,-1.3975,-1.3975,-1.3753,-1.3547,-1.3309,-1.3077,-1.2915,-1.2692,-1.2597,-1.257,-1.257,-1.257,-1.257,-1.257,-1.237,-1.2273,-1.2273,-1.2078,-1.198,-1.198,-1.198,-1.198,-0.3965,-0.4116,-0.4247,-0.4384,-0.4427,-0.4566,-0.4835,-0.4897,-0.4897,-0.4897,-0.4897,-0.4937,-0.5077,-0.5634,-0.6167,-0.6455,-0.6839,-0.7149,-0.7288,0.0,-0.761,-0.8414,-0.8553,-0.8888,-0.964,-0.9779,-0.979,-0.9812,-0.9816,-0.9816,-0.9816,-0.9926,-0.9926,-0.9926,-1.0257,-1.0472,-1.0802,-1.1017,-1.135,-1.1678,-1.1678,-1.1678,-1.1678,-1.1678,-1.1787,-1.2114,-1.2114,-1.2219,-1.2441,-1.2441,-1.2659,-1.2881,-1.2881,-1.3098,-1.3315,-1.3315,-1.3315,-1.3315,-1.3315,-1.3315,-1.3315,-1.3315,-1.3315,-1.3315,-1.3315,-1.3315,-1.3315,-1.3315,-1.3315,-1.3315,-1.3315,-1.3315,-1.3315,-1.3315,-1.3315,-1.3315,-1.3315,-1.3315,-1.3315,-1.3315,-1.3315,-1.3315,-1.3315,-1.3315,-1.3315,-1.3315,-1.3315,-1.3315,-1.3315,-1.3315,-1.3315,-1.3315,-1.3315,-1.3224,-1.3097,-1.2971,-1.2779,-1.2329,-1.2195,-1.2078,-1.2078,-1.2078,-1.2078,-1.2078,-1.2078,-1.2078,-1.2078,-1.198,-1.198,-1.198,-1.198,-1.1878,-0.3408,-0.3553,-0.3672,-0.3785,-0.3869,-0.4132,-0.4858,-0.5075,-0.5053,-0.5222,-0.5192,-0.5246,-0.5384,-0.5888,-0.634,-0.6529,-0.6899,-0.7183,-0.7232,-0.7238,-0.7409,-0.7808,-0.7906,-0.8143,-0.8553,-0.8656,-0.8819,-0.893,-0.9147,-0.9368,-0.9485,-0.9706,-0.9816,-0.9816,-0.9926,-1.0036,-1.0143,-1.0253,-1.0363,-1.0472,-1.124,-1.1568,-1.1568,-1.1568,-1.1678,-1.1787,-1.1787,-1.1787,-1.1896,-1.1896,-1.2005,-1.2114,-1.2114,-1.2223,-1.2441,-1.2441,-1.255,-1.2767,-1.2767,-1.2767,-1.2767,-1.2767,-1.2767,-1.2767,-1.2767,-1.2767,-1.2767,-1.2767,-1.2767,-1.2881,-1.3207,-1.3315,-1.3315,-1.3315,-1.3315,-1.3315,-1.3315,-1.3315,-1.3315,-1.3315,-1.3315,-1.3315,-1.3315,-1.3315,-1.3315,-1.3315,-1.3315,-1.3315,-1.3315,-1.3315,-1.3315,-1.3315,-1.3098,-1.2955,-1.2651,-1.2525,-1.2326,-1.203,-1.2113,-1.2132,-1.1986,-1.198,-1.198,-1.198,-1.1883,-1.178,-1.178,-1.1585,-1.1487,-1.1487,-1.1487,-1.1487,-0.3019,-0.3175,-0.3359,-0.3371,-0.3554,-0.388,-0.4745,-0.4848,-0.4865,-0.5115,-0.5129,-0.5112,-0.5157,-0.5621,-0.5985,-0.615,-0.6429,-0.6648,-0.6828,-0.6839,-0.6989,-0.7328,-0.7425,-0.7533,-0.7767,-0.7864,-0.8029,-0.8247,-0.8461,-0.857,-0.8903,-0.9012,-0.9229,-0.9226,-0.9334,-0.9443,-0.9548,-0.966,-0.9663,-0.9663,-1.0526,-1.0908,-1.1021,-1.1131,-1.124,-1.135,-1.1459,-1.1459,-1.1568,-1.1568,-1.1568,-1.1568,-1.1568,-1.1678,-1.1896,-1.1896,-1.2005,-1.2114,-1.2114,-1.2114,-1.2114,-1.2114,-1.2114,-1.2114,-1.2114,-1.2114,-1.2114,-1.2114,-1.2114,-1.2223,-1.2659,-1.2876,-1.2985,-1.2985,-1.2985,-1.2985,-1.2985,-1.2985,-1.2985,-1.2985,-1.2985,-1.2985,-1.2985,-1.2985,-1.2985,-1.2985,-1.2985,-1.2985,-1.2985,-1.2985,-1.2985,-1.2985,-1.2876,-1.2659,-1.2441,-1.2206,-1.1931,-1.1831,-1.183,-1.1888,-1.1795,-1.178,-1.178,-1.178,-1.159,-1.1487,-1.1487,-1.1194,-1.1096,-1.1096,-1.0998,-1.0998,-0.2852,-0.3112,-0.339,-0.339,-0.3606,-0.387,-0.4289,-0.4225,-0.4063,-0.4267,-0.4391,-0.4433,-0.4328,-0.4649,-0.4932,-0.5043,-0.526,-0.5502,-0.5912,-0.6042,-0.6287,-0.7021,-0.7041,-0.7297,-0.7635,-0.7651,-0.7651,-0.7651,-0.7651,-0.7651,-0.7651,-0.7651,-0.7861,-0.8065,-0.8381,-0.8584,-0.8895,-0.9223,-0.9332,-0.9332,-0.9436,-0.9499,-0.9809,-1.0143,-1.0468,-1.0684,-1.1013,-1.1232,-1.1564,-1.1564,-1.1564,-1.1564,-1.1568,-1.1568,-1.1568,-1.1568,-1.1568,-1.1568,-1.1568,-1.1568,-1.1568,-1.1568,-1.1568,-1.1568,-1.1568,-1.1568,-1.1568,-1.1568,-1.1568,-1.1568,-1.1568,-1.2005,-1.2436,-1.2436,-1.2436,-1.2436,-1.2436,-1.2436,-1.2436,-1.2436,-1.2436,-1.2436,-1.2436,-1.2436,-1.2436,-1.2436,-1.2436,-1.2436,-1.2436,-1.2436,-1.2436,-1.2436,-1.2436,-1.2436,-1.2436,-1.2114,-1.1923,-1.1727,-1.1312,-1.1021,-1.1217,-1.1198,-1.1194,-1.1194,-1.1194,-1.1194,-1.1194,-1.09,-1.0801,-1.0801,-1.0511,-1.0413,-0.2475,-0.2673,-0.2814,-0.2868,-0.2961,-0.3199,-0.3463,-0.3923,-0.4373,-0.4578,-0.466,-0.465,-0.4627,-0.4865,-0.5099,-0.5066,-0.5379,-0.5565,-0.5729,-0.5737,-0.5849,-0.5984,-0.6162,-0.6326,-0.657,-0.6752,-0.6904,-0.7326,-0.7326,-0.7434,-0.7651,-0.7651,-0.7756,-0.7861,-0.7858,-0.7963,-0.8069,-0.8174,-0.8177,-0.8177,-0.8384,-0.8853,-0.9477,-0.9583,-0.969,-0.9792,-0.9898,-1.0004,-1.0016,-1.013,-1.0285,-1.0513,-1.0643,-1.0911,-1.1236,-1.1236,-1.135,-1.1568,-1.1568,-1.1568,-1.1568,-1.1568,-1.1568,-1.1568,-1.1568,-1.1568,-1.1568,-1.1568,-1.1568,-1.1568,-1.1568,-1.1678,-1.1787,-1.1787,-1.1787,-1.1787,-1.1787,-1.1787,-1.1787,-1.1787,-1.1787,-1.1787,-1.1787,-1.1787,-1.1787,-1.1787,-1.1787,-1.1787,-1.1787,-1.1787,-1.1787,-1.1787,-1.1787,-1.1787,-1.1787,-1.1787,-1.1598,-1.1407,-1.134,-1.1128,-1.0838,-1.0686,-1.0609,-1.0609,-1.0609,-1.0609,-1.0609,-1.0609,-1.0511,-1.0511,-1.0413,-1.0413,-0.2119,-0.2321,-0.2533,-0.2601,-0.2676,-0.2872,-0.3069,-0.367,-0.4095,-0.4228,-0.4285,-0.428,-0.4274,-0.4423,-0.4678,-0.4754,-0.5006,-0.5248,-0.5427,-0.5438,-0.5436,-0.5634,-0.5691,-0.5833,-0.5938,-0.5994,-0.6238,-0.6548,-0.6551,-0.6654,-0.6972,-0.7076,-0.7076,-0.7386,-0.7386,-0.7386,-0.7486,-0.7489,-0.7489,-0.7489,-0.7692,-0.7997,-0.8518,-0.8953,-0.922,-0.922,-0.9332,-0.9436,-0.9444,-0.9538,-0.958,-0.98,-0.9904,-1.0162,-1.0373,-1.0373,-1.0588,-1.07,-1.07,-1.07,-1.07,-1.07,-1.07,-1.0712,-1.0779,-1.0799,-1.0816,-1.0891,-1.0911,-1.0911,-1.0911,-1.0911,-1.1021,-1.1459,-1.1568,-1.1568,-1.1568,-1.1568,-1.1568,-1.1568,-1.1568,-1.1568,-1.1568,-1.1568,-1.1568,-1.1568,-1.1568,-1.1568,-1.1568,-1.1568,-1.1568,-1.1568,-1.1568,-1.1568,-1.1568,-1.1459,-1.1302,-1.119,-1.0898,-1.0648,-1.0422,-1.0474,-1.0492,-1.0413,-1.0413,-1.0413,-1.0413,-1.0314,-1.0216,-1.0117,-1.0019,-0.9821,-0.1925,-0.2075,-0.229,-0.2487,-0.2641,-0.2759,-0.2957,-0.3212,-0.3479,-0.3498,-0.3539,-0.3566,-0.3496,-0.3724,-0.3915,-0.4154,-0.4381,-0.464,-0.5003,-0.5135,-0.514,-0.5436,-0.5436,-0.5536,-0.5536,-0.5536,-0.5536,-0.5634,-0.5636,-0.5737,-0.5942,-0.5942,-0.6142,-0.6642,-0.6642,-0.6842,-0.7039,-0.7138,-0.7138,-0.7138,-0.7138,-0.7138,-0.7247,-0.8313,-0.8748,-0.8751,-0.9071,-0.9183,-0.9183,-0.9197,-0.9309,-0.9309,-0.9324,-0.9332,-0.9436,-0.9436,-0.9436,-0.9436,-0.9436,-0.9436,-0.9436,-0.9436,-0.9436,-0.9467,-0.9499,-0.9544,-0.9578,-0.973,-0.9783,-0.9794,-0.9794,-0.9805,-1.0036,-1.1131,-1.1459,-1.1459,-1.1459,-1.1459,-1.1459,-1.1459,-1.1459,-1.1459,-1.1459,-1.1459,-1.1459,-1.1459,-1.1459,-1.1459,-1.1459,-1.1459,-1.1459,-1.1459,-1.1459,-1.1459,-1.1459,-1.1126,-1.1021,-1.1021,-1.0317,-1.0007,-0.9992,-1.029,-1.0423,-1.0242,-1.0224,-1.0216,-1.0216,-1.0019,-0.9723,-0.9529,-0.9232,-0.9031,-0.1654,-0.1762,-0.1872,-0.1851,-0.2063,-0.2196,-0.2229,-0.2334,-0.2688,-0.3388,-0.3576,-0.3582,-0.3565,-0.3626,-0.3779,-0.3812,-0.3915,-0.4103,-0.4135,-0.4194,-0.4234,-0.4334,-0.4537,-0.4738,-0.4935,-0.5138,-0.5338,-0.5534,-0.5636,-0.5636,-0.5636,-0.5636,-0.5737,-0.5837,-0.5837,-0.5937,-0.6242,-0.6242,-0.6339,0.0,-0.6742,-0.6842,-0.6945,-0.74,-0.7522,-0.7522,-0.7626,-0.7626,-0.7737,-0.8057,-0.8309,-0.8522,-0.8852,-0.922,-0.9436,-0.9436,-0.9436,-0.9436,-0.9436,-0.9436,-0.9436,-0.9436,-0.9436,-0.9444,-0.9478,-0.9489,-0.9497,-0.9425,-0.9526,-0.9619,-0.9619,-0.9716,-0.9816,-1.0147,-1.0143,-1.0143,-1.0143,-1.0143,-1.0143,-1.0143,-1.0143,-1.0143,-1.0143,-1.0143,-1.0143,-1.0143,-1.0143,-1.0143,-1.0143,-1.0143,-1.0143,-1.0143,-1.0143,-1.0143,-1.0143,-1.0143,-1.0036,-1.0036,-0.9892,-0.981,-0.9567,-0.9457,-0.947,-0.9431,-0.9191,-0.9122,-0.9122,-0.9122,-0.9023,-0.8924,-0.8924,-0.8825,-0.1425,-0.1386,-0.1486,-0.1693,-0.1901,-0.2012,-0.199,-0.2073,-0.2333,-0.2871,-0.305,-0.3141,-0.323,-0.3468,-0.3514,-0.3514,-0.3794,-0.3869,-0.3869,-0.3932,-0.3978,-0.3978,-0.4112,-0.4236,-0.4435,-0.4535,-0.4736,-0.5037,-0.5037,-0.5138,-0.5438,-0.5438,-0.5436,-0.5634,-0.5636,-0.5636,-0.5839,-0.5839,-0.5837,-0.6037,-0.6139,-0.6239,-0.6239,-0.6939,-0.7238,-0.7238,-0.7238,-0.7238,-0.7241,-0.7415,-0.7645,-0.7753,-0.8031,-0.8166,-0.8374,-0.8374,-0.8374,-0.8374,-0.8374,-0.8374,-0.8374,-0.8374,-0.8374,-0.8388,-0.8464,-0.8488,-0.8501,-0.8577,-0.8652,-0.8707,-0.8707,-0.8821,-0.8931,-0.8931,-0.9318,-0.9816,-0.9816,-0.9816,-0.9816,-0.9816,-0.9816,-0.9816,-0.9816,-0.9816,-0.9816,-0.9816,-0.9816,-0.9816,-0.9816,-0.9816,-0.9816,-0.9816,-0.9816,-0.9816,-0.9816,-0.9816,-0.9706,-0.9599,-0.9482,-0.9223,-0.9029,-0.8697,-0.8716,-0.9082,-0.8989,-0.8907,-0.8825,-0.8627,-0.8528,-0.8432,-0.8329,-0.8127,-0.1045,-0.1061,-0.1223,-0.1591,-0.177,-0.1843,-0.1816,-0.1981,-0.2064,-0.2064,-0.2244,-0.2513,-0.2694,-0.3004,-0.322,-0.322,-0.3463,-0.3605,-0.3605,-0.3665,-0.361,-0.3705,-0.3759,-0.3901,-0.3914,-0.3914,-0.4119,-0.4336,-0.4338,-0.4539,-0.4939,-0.5039,-0.5138,-0.5336,-0.5336,-0.5436,-0.5436,-0.5536,-0.5536,-0.5636,-0.5636,-0.5636,-0.5636,-0.6537,-0.6936,-0.6936,-0.6936,-0.7039,-0.7039,-0.7138,-0.7138,-0.7138,-0.7138,-0.7238,-0.7238,-0.7238,-0.7238,-0.7238,-0.7238,-0.7238,-0.7238,-0.7238,-0.7238,-0.726,-0.7376,-0.7409,-0.7434,-0.7547,-0.7599,-0.7617,-0.7617,-0.7818,-0.7917,-0.7917,-0.8672,-0.9449,-0.9478,-0.9482,-0.9482,-0.9482,-0.9482,-0.9482,-0.9482,-0.9482,-0.9482,-0.9482,-0.9482,-0.9482,-0.9482,-0.9485,-0.9485,-0.9482,-0.9485,-0.9485,-0.9482,-0.9482,-0.9375,-0.9154,-0.8927,-0.8592,-0.8374,-0.8044,-0.8185,-0.8859,-0.8798,-0.8704,-0.8571,-0.8343,-0.8035,-0.7839,-0.7633,-0.7434,-0.0432,-0.0811,-0.1214,-0.1355,-0.1402,-0.1438,-0.1461,-0.1497,-0.1525,-0.1525,-0.1885,-0.2243,-0.2244,-0.2339,-0.2343,-0.2343,-0.2384,-0.2417,-0.2417,-0.2459,-0.2585,-0.2869,-0.3067,-0.3287,-0.3541,-0.3741,-0.3963,-0.4028,-0.4033,-0.4135,-0.4133,-0.4133,-0.4133,-0.4234,-0.4437,-0.4638,-0.4935,-0.5138,-0.5338,-0.5636,-0.5636,-0.5636,-0.5636,-0.5734,-0.5834,-0.5834,-0.6039,-0.6142,-0.6242,-0.6642,-0.6845,-0.6842,-0.7138,-0.7238,-0.7238,-0.7238,-0.7238,-0.7238,-0.7238,-0.7238,-0.7238,-0.7238,-0.7238,-0.7241,-0.726,-0.7266,-0.7269,-0.7287,-0.7379,-0.7576,-0.7576,-0.7679,-0.7675,-0.7675,-0.799,-0.8119,-0.8241,-0.8266,-0.8266,-0.8266,-0.8266,-0.8266,-0.8266,-0.8266,-0.8266,-0.8266,-0.8266,-0.8266,-0.8266,-0.838,-0.8383,-0.8266,-0.838,-0.8383,-0.8266,-0.8266,-0.8266,-0.8156,-0.8156,-0.8156,-0.8045,-0.8026,-0.7944,-0.8003,-0.7767,-0.7638,-0.7616,-0.7397,-0.7338,-0.7338,-0.7238,-0.7235,0.0144,-0.015,-0.0388,-0.0714,-0.0813,-0.0831,-0.0935,-0.0956,-0.0973,-0.0984,-0.1436,-0.1884,-0.2154,-0.2243,-0.2243,-0.2243,-0.2171,-0.2183,-0.2183,-0.2223,-0.2252,-0.2437,-0.2557,-0.2679,-0.2799,-0.2897,-0.31,-0.3515,-0.3518,-0.3616,-0.391,-0.3912,-0.3912,-0.3912,-0.4009,-0.4204,-0.43,-0.4441,-0.4587,-0.4734,-0.4734,-0.4734,-0.4734,-0.4734,-0.5035,-0.5636,-0.5737,-0.5739,-0.5839,-0.6039,-0.6139,-0.6137,-0.6237,-0.6337,-0.6337,-0.6337,-0.6337,-0.6337,-0.6337,-0.6337,-0.6337,-0.6337,-0.6337,-0.6337,-0.6337,-0.6337,-0.6337,-0.6337,-0.6374,-0.6414,-0.6414,-0.6505,-0.6596,-0.6596,-0.6685,-0.6891,-0.6837,-0.75,-0.8045,-0.8045,-0.8045,-0.8045,-0.8045,-0.8045,-0.8045,-0.8045,-0.8045,-0.8045,-0.8045,-0.8159,-0.8273,-0.8045,-0.8045,-0.7937,-0.7826,-0.7826,-0.7604,-0.7268,-0.7268,-0.716,-0.7051,-0.7049,-0.7025,-0.6971,-0.7443,-0.7524,-0.7241,-0.7082,-0.6813,-0.6644,-0.6438,-0.6401,0.071,0.0597,0.054,0.0077,-0.0157,-0.0241,-0.0247,-0.0338,-0.0347,-0.0443,-0.0715,-0.1166,-0.1705,-0.1885,-0.1974,-0.1974,-0.1974,-0.1974,-0.1974,-0.2001,-0.202,-0.202,-0.2141,-0.2166,-0.2272,-0.2273,-0.2467,-0.2859,-0.286,-0.305,-0.3434,-0.3529,-0.3529,-0.3529,-0.3624,-0.3718,-0.3718,-0.3868,-0.3922,-0.3976,-0.3976,-0.3976,-0.3976,-0.3976,-0.4373,-0.5165,-0.5313,-0.5436,-0.5434,-0.5536,-0.5636,-0.5636,-0.5636,-0.5636,-0.5636,-0.5636,-0.5636,-0.5636,-0.5636,-0.5636,-0.5636,-0.5636,-0.5636,-0.5636,-0.5636,-0.5636,-0.5636,-0.5636,-0.5636,-0.5636,-0.5636,-0.5694,-0.5755,-0.5755,-0.5836,-0.5929,-0.5984,-0.6769,-0.7564,-0.7595,-0.7604,-0.7604,-0.7604,-0.7604,-0.7604,-0.7604,-0.7604,-0.7604,-0.7604,-0.7718,-0.7829,-0.7604,-0.7379,-0.7268,-0.7274,-0.7274,-0.7051,-0.6604,-0.6604,-0.6495,-0.6274,-0.6274,-0.6274,-0.6274,-0.6958,-0.7177,-0.6948,-0.6709,-0.6443,-0.6152,-0.594,-0.5794,0.1192,0.1147,0.1171,0.1098,0.0746,0.0459,0.0549,0.0572,0.0594,0.0347,0.0089,-0.0179,-0.0538,-0.1076,-0.1436,-0.1436,-0.1436,-0.1436,-0.1436,-0.1437,-0.1438,-0.1438,-0.1709,-0.1905,-0.2221,-0.2225,-0.2244,-0.2382,-0.2385,-0.2385,-0.2385,-0.2385,-0.2385,-0.2385,-0.286,-0.3144,-0.3144,-0.3626,-0.3919,-0.3922,-0.3922,-0.3922,-0.3922,-0.3922,-0.3922,-0.4025,-0.4565,-0.4834,-0.4834,-0.5436,-0.5636,-0.5636,-0.5636,-0.5636,-0.5636,-0.5636,-0.5636,-0.5636,-0.5636,-0.5636,-0.5636,-0.5636,-0.5636,-0.5636,-0.5636,-0.5636,-0.5636,-0.5636,-0.5636,-0.5636,-0.5636,-0.5639,-0.5644,-0.5644,-0.5725,-0.586,-0.6063,-0.6115,-0.6262,-0.6364,-0.6386,-0.6386,-0.6386,-0.6386,-0.6386,-0.6386,-0.6386,-0.6386,-0.6386,-0.6611,-0.6611,-0.6386,-0.6161,-0.6161,-0.6386,-0.6386,-0.6386,-0.6274,-0.6274,-0.6274,-0.6274,-0.6274,-0.6274,-0.6274,-0.6042,-0.5987,-0.6105,-0.6005,-0.5951,-0.5946,-0.5946,-0.5943,0.1541,0.1501,0.1531,0.1386,0.1248,0.1116,0.0992,0.1011,0.1031,0.0974,0.0903,0.075,0.0343,-0.044,-0.0987,-0.0987,-0.0987,-0.0987,-0.0987,-0.0987,-0.1076,-0.1345,-0.1525,-0.1619,-0.1632,-0.1724,-0.173,-0.1743,-0.1743,-0.1835,-0.2203,-0.2203,-0.2203,-0.2203,-0.2385,-0.2493,-0.2525,-0.2713,-0.2826,-0.2861,-0.2861,-0.2861,-0.2861,-0.2861,-0.2861,-0.2864,-0.3287,-0.3718,-0.4259,-0.4512,-0.4533,-0.4533,-0.4533,-0.4533,-0.4533,-0.4533,-0.4533,-0.4533,-0.4533,-0.4533,-0.4533,-0.4533,-0.4533,-0.4533,-0.4533,-0.4533,-0.4533,-0.4533,-0.4533,-0.4533,-0.4533,-0.4533,-0.4533,-0.4533,-0.4659,-0.4714,-0.4833,-0.5541,-0.6043,-0.6151,-0.6172,-0.6193,-0.6262,-0.6274,-0.6274,-0.6274,-0.6274,-0.6274,-0.6274,-0.6274,-0.6274,-0.65,-0.5935,-0.5599,-0.5717,-0.5491,-0.5377,-0.5152,-0.5152,-0.5152,-0.5152,-0.5152,-0.5152,-0.5152,-0.5039,-0.5246,-0.5656,-0.5404,-0.5142,-0.4872,-0.4872,-0.4841,0.2005,0.1963,0.1918,0.1705,0.1634,0.1573,0.1321,0.1338,0.1356,0.139,0.1415,0.1365,0.0994,0.0431,-0.0089,-0.0179,-0.0269,-0.0269,-0.0269,-0.0359,-0.0538,-0.0897,-0.1076,-0.1166,-0.1166,-0.1166,-0.1166,-0.1166,-0.1345,0.0,-0.1885,-0.1974,-0.1974,-0.1974,-0.1974,-0.1988,-0.2107,-0.2199,-0.2214,-0.2245,-0.2245,-0.2245,-0.2245,-0.2245,-0.2245,-0.2246,-0.2447,-0.2861,-0.3497,-0.3643,-0.3662,-0.3665,-0.3687,-0.3698,-0.3699,-0.3723,-0.3732,-0.3732,-0.3831,-0.3831,-0.3831,-0.3932,-0.4033,-0.4033,-0.4033,-0.4033,-0.4033,-0.4033,-0.4033,-0.4033,-0.4033,-0.4033,-0.4033,-0.4033,-0.4033,-0.4046,-0.4097,-0.479,-0.5406,-0.5504,-0.5521,-0.5543,-0.5608,-0.5647,-0.5669,-0.5669,-0.5693,-0.5712,-0.5712,-0.5599,-0.5601,-0.594,-0.5487,-0.5039,-0.5043,-0.4817,-0.4704,-0.448,-0.448,-0.448,-0.448,-0.4369,-0.4369,-0.4369,-0.4143,-0.4255,-0.459,-0.4704,-0.4679,-0.4409,-0.4409,-0.437,0.0,0.0,0.0,0.2018,0.1951,0.1897,0.174,0.1715,0.1688,0.173,0.1729,0.1624,0.1382,0.1348,0.1309,0.0803,0.0717,0.0718,0.0718,0.0359,0.0,0.0,-0.0359,-0.0628,-0.0628,-0.0628,-0.0628,-0.0718,-0.1076,-0.1345,-0.1346,-0.1346,-0.1346,-0.1346,-0.1346,-0.1525,-0.1885,-0.2064,-0.2154,-0.2154,-0.2154,-0.2154,-0.2154,-0.2154,-0.2154,-0.2157,-0.2201,-0.2337,-0.2663,-0.2951,-0.3049,-0.3055,-0.3115,-0.3138,-0.3144,-0.3203,-0.3126,-0.3228,-0.3426,-0.3525,-0.3629,-0.3831,-0.3932,-0.3932,-0.3932,-0.3932,-0.3932,-0.3932,-0.3932,-0.3932,-0.3932,-0.3932,-0.3932,-0.3932,-0.3932,-0.3932,-0.3932,-0.4092,-0.4167,-0.4242,-0.4257,-0.4259,-0.4261,-0.4322,-0.4371,-0.4371,-0.4429,-0.4474,-0.4475,-0.4475,-0.4589,-0.4706,-0.4592,-0.4367,-0.4143,-0.4367,-0.448,-0.448,-0.448,-0.448,-0.448,-0.4148,-0.3924,-0.3924,-0.3362,-0.3137,-0.3137,-0.4032,-0.448,-0.448,-0.448,-0.4332,0.3027,0.0,0.0,0.0,0.0,0.0,0.2242,0.2293,0.2271,0.2003,0.1987,0.1904,0.1735,0.1765,0.173,0.1739,0.1421,0.1166,0.1166,0.1076,0.0897,0.0538,0.0359,0.0269,0.0269,0.0269,0.0179,0.0,-0.0359,-0.0538,-0.0897,-0.0897,-0.0897,-0.0897,-0.0897,-0.1076,-0.1525,-0.1615,-0.1615,-0.1615,-0.1615,-0.1615,-0.1615,-0.1615,-0.1615,-0.1615,-0.1625,-0.1634,-0.1829,-0.2355,-0.248,-0.2481,-0.2495,-0.2596,-0.2502,-0.2516,-0.2542,-0.2669,-0.2668,-0.2692,-0.2723,-0.2823,-0.2823,-0.2823,-0.2823,-0.2823,-0.2823,-0.2823,-0.2823,-0.2823,-0.2823,-0.2823,-0.2823,-0.2823,-0.2823,-0.2823,-0.2823,-0.2835,-0.3169,-0.406,-0.4179,-0.4196,-0.4251,-0.4278,-0.4293,-0.4293,-0.4201,-0.4014,-0.4065,-0.3851,-0.3869,-0.3917,-0.3923,-0.3586,-0.2915,-0.3253,-0.3365,-0.3253,-0.3253,-0.3253,-0.3253,-0.3141,-0.303,-0.303,-0.2917,-0.2805,-0.2805,-0.3029,-0.3253,-0.3253,-0.3253,-0.3134,0.356,0.3426,0.3291,0.3226,0.0,0.0,0.269,0.2747,0.273,0.2382,0.2362,0.2362,0.2228,0.2262,0.2243,0.2209,0.2008,0.1776,0.1703,0.1525,0.1256,0.0987,0.0987,0.0987,0.0987,0.0987,0.0897,0.0628,0.0359,0.0179,-0.009,-0.009,-0.009,-0.009,-0.0269,-0.0538,-0.0807,-0.0987,-0.1076,-0.1076,-0.1076,-0.1076,-0.1076,-0.1076,-0.1076,-0.1076,-0.1076,-0.1076,-0.1168,-0.1474,-0.1768,-0.1955,-0.1879,-0.1884,-0.1886,-0.1997,-0.2017,-0.2036,-0.2036,-0.2051,-0.2073,-0.2289,-0.2395,-0.2398,-0.2416,-0.2422,-0.2422,-0.2422,-0.2422,-0.2422,-0.2422,-0.2422,-0.2422,-0.2422,-0.2422,-0.2422,-0.2422,-0.2422,-0.2631,-0.3274,-0.3485,-0.3497,-0.3535,-0.3564,-0.3582,-0.3582,-0.3392,-0.3314,-0.3349,-0.3265,-0.3073,-0.3104,-0.3239,-0.3141,-0.2469,-0.2581,-0.2807,-0.2807,-0.2807,-0.2807,-0.2693,-0.2693,-0.2693,-0.2693,-0.2469,-0.2356,-0.2356,-0.2581,-0.2693,-0.2693,-0.2693,-0.2693,0.4095,0.3959,0.3825,0.3696,0.3565,0.0,0.3159,0.3158,0.3151,0.294,0.2931,0.2933,0.2775,0.2761,0.2686,0.2394,0.2464,0.244,0.2236,0.1794,0.1525,0.1525,0.1525,0.1525,0.1525,0.1436,0.1436,0.1436,0.0987,0.0807,0.0807,0.0807,0.0807,0.0807,0.0359,0.009,0.009,-0.0359,-0.0538,-0.0538,-0.0538,-0.0538,-0.0538,-0.0538,-0.0538,-0.0538,-0.0538,-0.0538,-0.0538,-0.0538,-0.0807,-0.1348,-0.1282,-0.1291,-0.1294,-0.1412,-0.1423,-0.1426,-0.1521,-0.1523,-0.1627,-0.2045,-0.2253,-0.226,-0.2201,-0.2213,-0.2214,-0.2218,-0.222,-0.222,-0.222,-0.222,-0.222,-0.222,-0.222,-0.222,-0.222,-0.222,-0.222,-0.222,-0.2321,-0.2422,-0.2422,-0.2454,-0.2482,-0.2482,-0.2517,-0.2544,-0.2549,-0.2478,-0.2396,-0.2296,-0.2662,-0.2688,-0.2356,-0.2356,-0.2469,-0.2807,-0.2807,-0.2693,-0.2469,-0.2469,-0.2469,-0.2469,-0.202,-0.1683,-0.1683,-0.2356,-0.2581,-0.2581,-0.2581,-0.2581,0.4694,0.4561,0.4425,0.4428,0.4161,0.0,0.3828,0.3773,0.3707,0.3496,0.3499,0.3427,0.3079,0.3022,0.2987,0.2847,0.2967,0.2862,0.2315,0.2154,0.2064,0.2064,0.2064,0.2064,0.2064,0.1884,0.1615,0.1436,0.1345,0.1256,0.1256,0.1256,0.1256,0.1256,0.1166,0.0987,0.0538,0.0448,0.0448,0.0448,0.0448,0.0448,0.0448,0.0448,0.0448,0.0448,0.0448,0.0448,0.0448,0.0448,-0.009,-0.0808,-0.0811,-0.0812,-0.0813,-0.0816,-0.0826,-0.0837,-0.0837,-0.0941,-0.0954,-0.1054,-0.1151,-0.1155,-0.1079,-0.1085,-0.1089,-0.1106,-0.1111,-0.1111,-0.1111,-0.1111,-0.1111,-0.1111,-0.1111,-0.1111,-0.1111,-0.1111,-0.1111,-0.1111,-0.1817,-0.2422,-0.2422,-0.2429,-0.2434,-0.2434,-0.2444,-0.2464,-0.2394,-0.2093,-0.1803,-0.1854,-0.1974,-0.199,-0.1905,-0.1908,-0.1908,-0.202,-0.157,-0.1346,-0.1234,-0.1234,-0.1234,-0.1234,-0.1121,-0.1121,-0.1121,-0.1683,-0.202,-0.202,-0.202,-0.202,0.5223,0.509,0.496,0.4891,0.4691,0.0,0.0,0.4319,0.4194,0.3985,0.3958,0.3868,0.3632,0.353,0.3471,0.3383,0.3467,0.3386,0.2937,0.2654,0.2511,0.2511,0.2333,0.2243,0.2243,0.2064,0.1974,0.1794,0.1794,0.1794,0.1794,0.1794,0.1705,0.1615,0.1436,0.1256,0.1076,0.1076,0.1076,0.1076,0.1345,0.1436,0.1436,0.1436,0.1436,0.1436,0.1436,0.1436,0.1436,0.1436,0.1166,0.0718,0.0179,-0.0,-0.0,-0.0,-0.0,-0.0,-0.0,-0.0,-0.0093,-0.0094,-0.0094,-0.0094,-0.0096,-0.0,-0.0,-0.0,-0.0,-0.0,-0.0,-0.0,-0.0,-0.0,-0.0,-0.0,-0.0,-0.0,-0.0,-0.0,-0.0404,-0.1009,-0.1514,-0.1615,-0.1615,-0.1615,-0.1616,-0.1622,-0.1636,-0.1342,-0.1255,-0.1277,-0.1624,-0.1536,-0.0996,-0.0893,-0.0897,-0.0897,-0.0673,-0.0336,-0.0,-0.0,-0.0,-0.0,-0.0,-0.0,-0.0,-0.0336,-0.0785,-0.1346,-0.1009,-0.0897,0.5749,0.5686,0.5491,0.5352,0.5286,0.5153,0.0,0.0,0.0,0.4442,0.4373,0.4263,0.4141,0.4084,0.4012,0.3894,0.3855,0.3844,0.3674,0.3318,0.0,0.3041,0.269,0.2512,0.2512,0.2405,0.2217,0.2128,0.2128,0.2128,0.2128,0.2145,0.2064,0.1885,0.1705,0.1525,0.1525,0.1525,0.1525,0.1525,0.1974,0.2243,0.2243,0.2243,0.2243,0.2243,0.2243,0.2243,0.2243,0.2243,0.2243,0.2154,0.1345,0.0987,0.0987,0.0987,0.0987,0.0987,0.0897,0.0807,0.081,0.0823,0.083,0.0835,0.0849,0.0867,0.0985,0.1,0.0907,0.0909,0.0909,0.0909,0.0909,0.0909,0.0909,0.0909,0.0909,0.0909,0.0909,0.0909,0.0909,0.0606,-0.0303,-0.0505,-0.0505,-0.0505,-0.0505,-0.0505,-0.0505,-0.0512,-0.0517,-0.0519,-0.0959,-0.0869,0.0109,0.0332,0.0335,0.0336,0.0336,0.0561,0.1009,0.1121,0.1121,0.1121,0.1234,0.1234,0.1234,0.1234,0.0673,-0.0561,-0.0,0.0224,0.635,0.6218,0.6083,0.6079,0.5815,0.555,0.5484,0.0,0.5046,0.4979,0.0,0.4724,0.4535,0.0,0.0,0.4014,0.4129,0.4201,0.3997,0.3866,0.3697,0.3554,0.3497,0.3408,0.3408,0.2948,0.2459,0.2033,0.2033,0.2033,0.2033,0.211,0.2154,0.2154,0.2154,0.2064,0.2064,0.2064,0.2064,0.2154,0.2154,0.2243,0.2243,0.2243,0.2243,0.2243,0.2243,0.2243,0.2243,0.2243,0.2243,0.2154,0.2064,0.2064,0.2064,0.2064,0.2064,0.1974,0.1525,0.1345,0.1346,0.135,0.1276,0.1296,0.1299,0.1431,0.1474,0.1477,0.1496,0.1516,0.1516,0.1516,0.1516,0.1516,0.1516,0.1516,0.1516,0.1516,0.1516,0.1516,0.1516,0.1314,0.0707,0.0606,0.0606,0.0606,0.0606,0.0606,0.0606,0.0607,0.0612,0.0622,0.0521,0.0635,0.0763,0.1314,0.1545,0.1569,0.157,0.157,0.1683,0.1683,0.1683,0.1683,0.2244,0.2469,0.2469,0.2469,0.1907,0.0673,0.0785,0.1121,0.6876,0.6745,0.6613,0.0,0.0,0.0,0.6013,0.0,0.5683,0.0,0.0,0.0,0.0,0.0,0.0,0.0,0.4633,0.4579,0.4509,0.4407,0.4295,0.3806,0.0,0.0,0.3245,0.3025,0.2829,0.2587,0.265,0.2772,0.2772,0.2891,0.296,0.278,0.278,0.269,0.2599,0.2599,0.2599,0.2599,0.269,0.278,0.278,0.296,0.305,0.305,0.305,0.305,0.305,0.305,0.305,0.305,0.305,0.2691,0.2243,0.2243,0.2243,0.2154,0.1974,0.1884,0.1884,0.1884,0.1895,0.1822,0.1844,0.1873,0.2003,0.195,0.1974,0.1991,0.2013,0.2019,0.2019,0.2019,0.2019,0.2019,0.2019,0.2019,0.2019,0.2019,0.2019,0.2019,0.1817,0.1515,0.1313,0.1313,0.1313,0.1313,0.1313,0.1313,0.1419,0.1737,0.1755,0.1784,0.2043,0.2175,0.2314,0.2129,0.2132,0.2244,0.2356,0.2356,0.2356,0.2356,0.2581,0.2693,0.2693,0.2693,0.2469,0.1908,0.202,0.2244,0.781,0.0,0.0,0.0,0.0,0.0,0.0,0.0,0.0,0.0,0.5881,0.0,0.0,0.0,0.0,0.0,0.0,0.498,0.498,0.4924,0.4712,0.4142,0.3761,0.0,0.0,0.3256,0.3154,0.3001,0.3214,0.328,0.3159,0.3459,0.3479,0.326,0.3296,0.3227,0.3136,0.3136,0.3136,0.3136,0.3227,0.3317,0.3317,0.3497,0.3587,0.3587,0.3676,0.3674,0.3674,0.3764,0.3765,0.3765,0.3765,0.3317,0.269,0.2602,0.2602,0.2602,0.2512,0.2422,0.2422,0.2422,0.2422,0.2428,0.2375,0.2395,0.2421,0.2394,0.2431,0.2361,0.2394,0.2411,0.2422,0.2422,0.2422,0.2422,0.2422,0.2422,0.2422,0.2422,0.2422,0.2422,0.2422,0.212,0.1818,0.1818,0.1818,0.1818,0.1818,0.1818,0.1919,0.2324,0.2352,0.2492,0.2747,0.2688,0.2632,0.2465,0.2469,0.2581,0.2917,0.2805,0.2805,0.2917,0.303,0.303,0.303,0.3141,0.3141,0.3141,0.303,0.2919,0.0,0.0,0.0,0.8338,0.0,0.0,0.0,0.0,0.6675,0.0,0.0,0.0,0.0,0.0,0.0,0.0,0.0,0.0,0.0,0.5246,0.4972,0.4645,0.4384,0.4151,0.0,0.383,0.3574,0.3141,0.3288,0.3233,0.2935,0.3347,0.352,0.3286,0.351,0.3587,0.3587,0.3587,0.3587,0.3587,0.3587,0.3587,0.3587,0.3587,0.3587,0.3587,0.3851,0.3849,0.3939,0.4208,0.43,0.43,0.43,0.4119,0.3849,0.3585,0.3587,0.3497,0.3227,0.3047,0.2867,0.2867,0.2867,0.2868,0.2869,0.2912,0.2866,0.2685,0.2666,0.2648,0.2355,0.2388,0.2422,0.2422,0.2422,0.2422,0.2422,0.2422,0.2422,0.2422,0.2422,0.2422,0.2422,0.2422,0.2422,0.2422,0.2422,0.2422,0.2422,0.2422,0.2422,0.2422,0.2423,0.2442,0.2488,0.2533,0.2597,0.2464,0.2581,0.2917,0.3587,0.325,0.325,0.3587,0.3813,0.3924,0.3924,0.4258,0.448,0.4369,0.3253,0.2693,0.0,0.0,0.8996,0.8855,0.0,0.0,0.0,0.0,0.0,0.0,0.0,0.0,0.0,0.0,0.0,0.0,0.0,0.0,0.0,0.562,0.5359,0.5281,0.4812,0.4393,0.4179,0.4045,0.3866,0.3728,0.3772,0.3834,0.3895,0.4205,0.4321,0.4465,0.453,0.4565,0.4565,0.4565,0.4565,0.4565,0.4565,0.4565,0.4565,0.4565,0.4565,0.4565,0.4563,0.4652,0.4652,0.4741,0.4743,0.4743,0.4743,0.4741,0.4563,0.403,0.3674,0.3587,0.3497,0.3406,0.3406,0.3406,0.3406,0.3406,0.3406,0.3334,0.3362,0.3316,0.3396,0.3379,0.3419,0.338,0.3428,0.3428,0.3428,0.3428,0.3428,0.3428,0.3428,0.3428,0.3428,0.3428,0.3428,0.3428,0.3328,0.2724,0.2826,0.2927,0.2927,0.2927,0.3026,0.3126,0.3226,0.3251,0.352,0.3623,0.3721,0.3805,0.381,0.4033,0.4145,0.4257,0.4257,0.4145,0.4257,0.4369,0.4369,0.448,0.448,0.448,0.4033,0.3923,1.114,1.0537,0.0,0.9865,0.9433,0.0,0.8737,0.0,0.8607,0.0,0.0,0.0,0.0,0.0,0.0,0.0,0.0,0.0,0.0,0.621,0.5947,0.5881,0.5289,0.4824,0.4619,0.4489,0.4359,0.4228,0.4237,0.432,0.4377,0.4592,0.4782,0.4841,0.4917,0.4996,0.5073,0.5075,0.52,0.5275,0.5275,0.5275,0.5275,0.5275,0.5275,0.5275,0.5366,0.5366,0.5366,0.5455,0.5542,0.5542,0.5542,0.5453,0.5277,0.4563,0.4208,0.4121,0.4121,0.4121,0.4121,0.4121,0.4121,0.4121,0.4121,0.4121,0.4133,0.4101,0.4085,0.4167,0.4151,0.423,0.4298,0.4327,0.4332,0.4332,0.4332,0.4332,0.4332,0.4332,0.4332,0.4332,0.4332,0.4334,0.4133,0.3328,0.333,0.3531,0.3531,0.3531,0.3531,0.3729,0.3729,0.387,0.4281,0.4383,0.4482,0.4806,0.4814,0.4927,0.5264,0.515,0.5039,0.5152,0.5039,0.5039,0.5152,0.5152,0.5152,0.5152,0.5152,0.5152]}]]